<?xml version='1.0' encoding='UTF-8'?><gpx version="1.1" creator="JPX - https://github.com/jenetics/jpx" xmlns="http://www.topografix.com/GPX/1/1"><trk><trkseg><trkpt lat="41.60295276404898" lon="14.244655477862924"><ele>460.00000000000006</ele><time>2026-04-25T04:39:45Z</time></trkpt><trkpt lat="41.60295596226553" lon="14.244552748731978"><ele>460.0</ele><time>2026-04-25T04:39:48Z</time></trkpt><trkpt lat="41.602960048097465" lon="14.244431724100602"><ele>460.0</ele><time>2026-04-25T04:39:52Z</time></trkpt><trkpt lat="41.602965708699436" lon="14.244311193699337"><ele>460.0</ele><time>2026-04-25T04:39:56Z</time></trkpt><trkpt lat="41.60297005536504" lon="14.244205454761666"><ele>460.00000000000006</ele><time>2026-04-25T04:40:00Z</time></trkpt><trkpt lat="41.602970464369406" lon="14.24411966012972"><ele>460.0</ele><time>2026-04-25T04:40:03Z</time></trkpt><trkpt lat="41.60297737233883" lon="14.243999686739478"><ele>460.1666666666667</ele><time>2026-04-25T04:40:06Z</time></trkpt><trkpt lat="41.602981918943165" lon="14.243914007129357"><ele>460.33333333333337</ele><time>2026-04-25T04:40:08Z</time></trkpt><trkpt lat="41.60297253677804" lon="14.2438242001547"><ele>460.5</ele><time>2026-04-25T04:40:10Z</time></trkpt><trkpt lat="41.602983308263106" lon="14.243734418831908"><ele>460.66666666666663</ele><time>2026-04-25T04:40:12Z</time></trkpt><trkpt lat="41.60298926808966" lon="14.243616112544386"><ele>460.8333333333333</ele><time>2026-04-25T04:40:15Z</time></trkpt><trkpt lat="41.60299545542511" lon="14.243501698179276"><ele>461.0</ele><time>2026-04-25T04:40:18Z</time></trkpt><trkpt lat="41.6029941914257" lon="14.243381477511928"><ele>460.99999999999994</ele><time>2026-04-25T04:40:21Z</time></trkpt><trkpt lat="41.602999994475134" lon="14.243260958130408"><ele>461.0</ele><time>2026-04-25T04:40:24Z</time></trkpt><trkpt lat="41.603012983830816" lon="14.243172065607709"><ele>461.0</ele><time>2026-04-25T04:40:26Z</time></trkpt><trkpt lat="41.60300563316537" lon="14.243065486374675"><ele>461.0</ele><time>2026-04-25T04:40:29Z</time></trkpt><trkpt lat="41.60301883155264" lon="14.242948746504164"><ele>460.99999999999994</ele><time>2026-04-25T04:40:33Z</time></trkpt><trkpt lat="41.60301809848033" lon="14.2428518762497"><ele>461.0</ele><time>2026-04-25T04:40:36Z</time></trkpt><trkpt lat="41.60298173673952" lon="14.24276749192456"><ele>461.16666666666663</ele><time>2026-04-25T04:40:39Z</time></trkpt><trkpt lat="41.60288929609847" lon="14.24277466084782"><ele>461.3333333333333</ele><time>2026-04-25T04:40:44Z</time></trkpt><trkpt lat="41.602807289723835" lon="14.242838602511634"><ele>461.5</ele><time>2026-04-25T04:40:47Z</time></trkpt><trkpt lat="41.60274545617948" lon="14.242872347150072"><ele>461.66666666666663</ele><time>2026-04-25T04:40:49Z</time></trkpt><trkpt lat="41.60267322615119" lon="14.242901786915557"><ele>461.8333333333333</ele><time>2026-04-25T04:40:52Z</time></trkpt><trkpt lat="41.6025982667172" lon="14.242972364639087"><ele>462.0</ele><time>2026-04-25T04:40:55Z</time></trkpt><trkpt lat="41.602538612463924" lon="14.243008536430342"><ele>462.0</ele><time>2026-04-25T04:40:57Z</time></trkpt><trkpt lat="41.602464555567884" lon="14.243071445290472"><ele>462.0</ele><time>2026-04-25T04:41:00Z</time></trkpt><trkpt lat="41.60240973667774" lon="14.243119867177779"><ele>462.0</ele><time>2026-04-25T04:41:02Z</time></trkpt><trkpt lat="41.60234842218946" lon="14.243199519967904"><ele>462.0</ele><time>2026-04-25T04:41:05Z</time></trkpt><trkpt lat="41.60232007708239" lon="14.243303769360999"><ele>462.0</ele><time>2026-04-25T04:41:08Z</time></trkpt><trkpt lat="41.602304564425886" lon="14.243411872987503"><ele>462.0</ele><time>2026-04-25T04:41:11Z</time></trkpt><trkpt lat="41.60228348263752" lon="14.243501211385261"><ele>462.0</ele><time>2026-04-25T04:41:14Z</time></trkpt><trkpt lat="41.602278939648244" lon="14.243585708638822"><ele>462.0</ele><time>2026-04-25T04:41:16Z</time></trkpt><trkpt lat="41.60226405278395" lon="14.243705012494807"><ele>462.0</ele><time>2026-04-25T04:41:19Z</time></trkpt><trkpt lat="41.60225491195148" lon="14.243812336126163"><ele>462.0</ele><time>2026-04-25T04:41:22Z</time></trkpt><trkpt lat="41.60226511896705" lon="14.243924696350746"><ele>462.0</ele><time>2026-04-25T04:41:25Z</time></trkpt><trkpt lat="41.60227224630329" lon="14.244027350861364"><ele>462.0</ele><time>2026-04-25T04:41:28Z</time></trkpt><trkpt lat="41.60227025329332" lon="14.2441397816787"><ele>461.8333333333333</ele><time>2026-04-25T04:41:31Z</time></trkpt><trkpt lat="41.602280121913196" lon="14.244244235207068"><ele>461.66666666666663</ele><time>2026-04-25T04:41:34Z</time></trkpt><trkpt lat="41.602283172787175" lon="14.24436261123341"><ele>461.5</ele><time>2026-04-25T04:41:37Z</time></trkpt><trkpt lat="41.602295254221744" lon="14.244482787970524"><ele>461.3333333333333</ele><time>2026-04-25T04:41:40Z</time></trkpt><trkpt lat="41.60229727049125" lon="14.244566991687801"><ele>461.16666666666663</ele><time>2026-04-25T04:41:43Z</time></trkpt><trkpt lat="41.602279567604064" lon="14.244684823267853"><ele>461.0</ele><time>2026-04-25T04:41:47Z</time></trkpt><trkpt lat="41.602287936997215" lon="14.2448119461472"><ele>461.49999999999994</ele><time>2026-04-25T04:41:51Z</time></trkpt><trkpt lat="41.60229458885783" lon="14.244904703860044"><ele>462.0</ele><time>2026-04-25T04:41:54Z</time></trkpt><trkpt lat="41.60228706182493" lon="14.245022069604376"><ele>462.5</ele><time>2026-04-25T04:41:57Z</time></trkpt><trkpt lat="41.60228638722341" lon="14.245124798535633"><ele>463.0</ele><time>2026-04-25T04:42:00Z</time></trkpt><trkpt lat="41.60227746138879" lon="14.245209836425431"><ele>463.49999999999994</ele><time>2026-04-25T04:42:02Z</time></trkpt><trkpt lat="41.60225582715086" lon="14.245319540962221"><ele>464.0</ele><time>2026-04-25T04:42:05Z</time></trkpt><trkpt lat="41.602227732660815" lon="14.245428490132028"><ele>463.99999999999994</ele><time>2026-04-25T04:42:08Z</time></trkpt><trkpt lat="41.60219033379173" lon="14.245533510805435"><ele>464.0</ele><time>2026-04-25T04:42:11Z</time></trkpt><trkpt lat="41.602147578432145" lon="14.245631380114208"><ele>464.0</ele><time>2026-04-25T04:42:14Z</time></trkpt><trkpt lat="41.60212144574457" lon="14.24574260004207"><ele>464.0</ele><time>2026-04-25T04:42:17Z</time></trkpt><trkpt lat="41.602095929456496" lon="14.245850980615447"><ele>463.99999999999994</ele><time>2026-04-25T04:42:20Z</time></trkpt><trkpt lat="41.602102971839095" lon="14.245966218268514"><ele>464.0</ele><time>2026-04-25T04:42:23Z</time></trkpt><trkpt lat="41.602139788189085" lon="14.246066930082781"><ele>463.66666666666663</ele><time>2026-04-25T04:42:26Z</time></trkpt><trkpt lat="41.602179411078396" lon="14.24616939741222"><ele>463.3333333333333</ele><time>2026-04-25T04:42:29Z</time></trkpt><trkpt lat="41.602224883678105" lon="14.246271737066744"><ele>463.0</ele><time>2026-04-25T04:42:32Z</time></trkpt><trkpt lat="41.60226608325542" lon="14.246365861064785"><ele>462.66666666666663</ele><time>2026-04-25T04:42:35Z</time></trkpt><trkpt lat="41.602308011631045" lon="14.246464675058826"><ele>462.3333333333333</ele><time>2026-04-25T04:42:38Z</time></trkpt><trkpt lat="41.602349289738946" lon="14.246562469081788"><ele>462.0</ele><time>2026-04-25T04:42:41Z</time></trkpt><trkpt lat="41.60239274513782" lon="14.246643874676181"><ele>461.6666666666667</ele><time>2026-04-25T04:42:44Z</time></trkpt><trkpt lat="41.60244519544469" lon="14.246741524522896"><ele>461.33333333333337</ele><time>2026-04-25T04:42:47Z</time></trkpt><trkpt lat="41.60249026191644" lon="14.246822120079917"><ele>461.0</ele><time>2026-04-25T04:42:50Z</time></trkpt><trkpt lat="41.60252406446925" lon="14.24689548392412"><ele>460.6666666666667</ele><time>2026-04-25T04:42:52Z</time></trkpt><trkpt lat="41.60257270338522" lon="14.246986446812837"><ele>460.33333333333337</ele><time>2026-04-25T04:42:55Z</time></trkpt><trkpt lat="41.60261249159801" lon="14.24709636385163"><ele>460.0</ele><time>2026-04-25T04:42:58Z</time></trkpt><trkpt lat="41.602655884379494" lon="14.247189995725028"><ele>460.00000000000006</ele><time>2026-04-25T04:43:01Z</time></trkpt><trkpt lat="41.60268045330521" lon="14.247268609727406"><ele>460.0</ele><time>2026-04-25T04:43:03Z</time></trkpt><trkpt lat="41.60271654731862" lon="14.247370831303973"><ele>460.0</ele><time>2026-04-25T04:43:06Z</time></trkpt><trkpt lat="41.60275379359983" lon="14.247455910171793"><ele>460.0</ele><time>2026-04-25T04:43:09Z</time></trkpt><trkpt lat="41.60279535015671" lon="14.24755636358684"><ele>460.00000000000006</ele><time>2026-04-25T04:43:12Z</time></trkpt><trkpt lat="41.6028428736365" lon="14.247660248023703"><ele>460.0</ele><time>2026-04-25T04:43:15Z</time></trkpt><trkpt lat="41.602902443254415" lon="14.247730400585912"><ele>460.1666666666667</ele><time>2026-04-25T04:43:18Z</time></trkpt><trkpt lat="41.602978776266774" lon="14.247780316928447"><ele>460.33333333333337</ele><time>2026-04-25T04:43:21Z</time></trkpt><trkpt lat="41.60305982600059" lon="14.247803797127021"><ele>460.5</ele><time>2026-04-25T04:43:24Z</time></trkpt><trkpt lat="41.603137139666146" lon="14.247833392137501"><ele>460.66666666666663</ele><time>2026-04-25T04:43:27Z</time></trkpt><trkpt lat="41.60321798865902" lon="14.24785322196391"><ele>460.8333333333333</ele><time>2026-04-25T04:43:30Z</time></trkpt><trkpt lat="41.60329328359266" lon="14.24789472990932"><ele>461.0</ele><time>2026-04-25T04:43:33Z</time></trkpt><trkpt lat="41.603361052339835" lon="14.247940599814816"><ele>460.99999999999994</ele><time>2026-04-25T04:43:36Z</time></trkpt><trkpt lat="41.60343283699995" lon="14.247992027465036"><ele>461.0</ele><time>2026-04-25T04:43:39Z</time></trkpt><trkpt lat="41.60349727867893" lon="14.248045761379776"><ele>461.0</ele><time>2026-04-25T04:43:42Z</time></trkpt><trkpt lat="41.60356224543083" lon="14.2480920372907"><ele>461.0</ele><time>2026-04-25T04:43:45Z</time></trkpt><trkpt lat="41.60363570119096" lon="14.248138651256317"><ele>460.99999999999994</ele><time>2026-04-25T04:43:48Z</time></trkpt><trkpt lat="41.60370319786634" lon="14.248210965217295"><ele>461.0</ele><time>2026-04-25T04:43:51Z</time></trkpt><trkpt lat="41.60377449534655" lon="14.248256910165756"><ele>461.16666666666663</ele><time>2026-04-25T04:43:54Z</time></trkpt><trkpt lat="41.603836820593216" lon="14.24833843820618"><ele>461.3333333333333</ele><time>2026-04-25T04:43:57Z</time></trkpt><trkpt lat="41.60389868152048" lon="14.248411654977165"><ele>461.5</ele><time>2026-04-25T04:44:00Z</time></trkpt><trkpt lat="41.603954786384534" lon="14.248487452226039"><ele>461.66666666666663</ele><time>2026-04-25T04:44:03Z</time></trkpt><trkpt lat="41.60399491382795" lon="14.248560675702779"><ele>461.8333333333333</ele><time>2026-04-25T04:44:05Z</time></trkpt><trkpt lat="41.604026140517924" lon="14.248638363015042"><ele>462.0</ele><time>2026-04-25T04:44:07Z</time></trkpt><trkpt lat="41.6040685145985" lon="14.248731632322274"><ele>462.0</ele><time>2026-04-25T04:44:10Z</time></trkpt><trkpt lat="41.604090967169135" lon="14.248811197626985"><ele>462.0</ele><time>2026-04-25T04:44:12Z</time></trkpt><trkpt lat="41.60412515223416" lon="14.248904347420789"><ele>462.0</ele><time>2026-04-25T04:44:15Z</time></trkpt><trkpt lat="41.60414479706849" lon="14.249021931802991"><ele>462.0</ele><time>2026-04-25T04:44:18Z</time></trkpt><trkpt lat="41.604176070157855" lon="14.249143849221616"><ele>462.0</ele><time>2026-04-25T04:44:21Z</time></trkpt><trkpt lat="41.60420486365499" lon="14.24924766362593"><ele>462.0</ele><time>2026-04-25T04:44:24Z</time></trkpt><trkpt lat="41.60423753248559" lon="14.249355471076997"><ele>462.0</ele><time>2026-04-25T04:44:27Z</time></trkpt><trkpt lat="41.60427186025634" lon="14.249458854385267"><ele>462.0</ele><time>2026-04-25T04:44:30Z</time></trkpt><trkpt lat="41.604310153274135" lon="14.24955660852957"><ele>462.0</ele><time>2026-04-25T04:44:33Z</time></trkpt><trkpt lat="41.60435052014367" lon="14.249662699987418"><ele>462.0</ele><time>2026-04-25T04:44:36Z</time></trkpt><trkpt lat="41.6043843357238" lon="14.249758873628114"><ele>462.0</ele><time>2026-04-25T04:44:39Z</time></trkpt><trkpt lat="41.60442492909584" lon="14.249850780326836"><ele>462.0</ele><time>2026-04-25T04:44:42Z</time></trkpt><trkpt lat="41.60448529490384" lon="14.24993692143907"><ele>461.8333333333333</ele><time>2026-04-25T04:44:45Z</time></trkpt><trkpt lat="41.604541078726896" lon="14.250023377176197"><ele>461.66666666666663</ele><time>2026-04-25T04:44:48Z</time></trkpt><trkpt lat="41.60459858006556" lon="14.250105480850554"><ele>461.5</ele><time>2026-04-25T04:44:51Z</time></trkpt><trkpt lat="41.6046519079583" lon="14.250183254031548"><ele>461.3333333333333</ele><time>2026-04-25T04:44:54Z</time></trkpt><trkpt lat="41.60470920019558" lon="14.250259855906144"><ele>461.16666666666663</ele><time>2026-04-25T04:44:57Z</time></trkpt><trkpt lat="41.6047817712007" lon="14.2503167748961"><ele>461.0</ele><time>2026-04-25T04:45:00Z</time></trkpt><trkpt lat="41.60484213824084" lon="14.250350006694811"><ele>460.99999999999994</ele><time>2026-04-25T04:45:02Z</time></trkpt><trkpt lat="41.60492502279033" lon="14.250367679260025"><ele>461.0</ele><time>2026-04-25T04:45:05Z</time></trkpt><trkpt lat="41.60499817421131" lon="14.250377826128018"><ele>461.0</ele><time>2026-04-25T04:45:08Z</time></trkpt><trkpt lat="41.60507975157059" lon="14.250353488174255"><ele>461.0</ele><time>2026-04-25T04:45:11Z</time></trkpt><trkpt lat="41.60515651379069" lon="14.250323379618383"><ele>460.99999999999994</ele><time>2026-04-25T04:45:14Z</time></trkpt><trkpt lat="41.6052336888424" lon="14.250293986124525"><ele>461.0</ele><time>2026-04-25T04:45:17Z</time></trkpt><trkpt lat="41.605308904727586" lon="14.250265160532244"><ele>461.16666666666663</ele><time>2026-04-25T04:45:20Z</time></trkpt><trkpt lat="41.6053922716152" lon="14.250231821202416"><ele>461.3333333333333</ele><time>2026-04-25T04:45:23Z</time></trkpt><trkpt lat="41.60546975793521" lon="14.250205597292435"><ele>461.5</ele><time>2026-04-25T04:45:26Z</time></trkpt><trkpt lat="41.605540433329324" lon="14.25016805248882"><ele>461.66666666666663</ele><time>2026-04-25T04:45:29Z</time></trkpt><trkpt lat="41.605609500434866" lon="14.250125064991982"><ele>461.8333333333333</ele><time>2026-04-25T04:45:32Z</time></trkpt><trkpt lat="41.605692232609904" lon="14.250085607642824"><ele>462.0</ele><time>2026-04-25T04:45:35Z</time></trkpt><trkpt lat="41.605765101999296" lon="14.250043830876253"><ele>462.0</ele><time>2026-04-25T04:45:38Z</time></trkpt><trkpt lat="41.60584967698676" lon="14.250013965939859"><ele>462.0</ele><time>2026-04-25T04:45:41Z</time></trkpt><trkpt lat="41.6059324470985" lon="14.249991762693721"><ele>462.0</ele><time>2026-04-25T04:45:44Z</time></trkpt><trkpt lat="41.60601447910864" lon="14.249994393700876"><ele>462.0</ele><time>2026-04-25T04:45:47Z</time></trkpt><trkpt lat="41.60609562644298" lon="14.250046475399834"><ele>462.0</ele><time>2026-04-25T04:45:50Z</time></trkpt><trkpt lat="41.6061491845955" lon="14.250125098238966"><ele>462.0</ele><time>2026-04-25T04:45:53Z</time></trkpt><trkpt lat="41.60619121913685" lon="14.250217923941275"><ele>462.0</ele><time>2026-04-25T04:45:56Z</time></trkpt><trkpt lat="41.6062259669826" lon="14.250321528933934"><ele>462.0</ele><time>2026-04-25T04:45:59Z</time></trkpt><trkpt lat="41.60626854982232" lon="14.250418970503775"><ele>462.0</ele><time>2026-04-25T04:46:02Z</time></trkpt><trkpt lat="41.60630854688857" lon="14.250498324625111"><ele>462.0</ele><time>2026-04-25T04:46:05Z</time></trkpt><trkpt lat="41.606333686922994" lon="14.250597007195696"><ele>462.0</ele><time>2026-04-25T04:46:08Z</time></trkpt><trkpt lat="41.60636900254683" lon="14.250697229673726"><ele>462.0</ele><time>2026-04-25T04:46:11Z</time></trkpt><trkpt lat="41.60639982839693" lon="14.250808338573624"><ele>462.0</ele><time>2026-04-25T04:46:14Z</time></trkpt><trkpt lat="41.60641643129217" lon="14.250913717065618"><ele>462.0</ele><time>2026-04-25T04:46:17Z</time></trkpt><trkpt lat="41.60643593284576" lon="14.251016439580166"><ele>462.0</ele><time>2026-04-25T04:46:20Z</time></trkpt><trkpt lat="41.60646241379178" lon="14.251116758605122"><ele>462.0</ele><time>2026-04-25T04:46:23Z</time></trkpt><trkpt lat="41.606481564502786" lon="14.251215845624944"><ele>462.0</ele><time>2026-04-25T04:46:26Z</time></trkpt><trkpt lat="41.60649781035938" lon="14.251323756329139"><ele>462.0</ele><time>2026-04-25T04:46:29Z</time></trkpt><trkpt lat="41.60651392516987" lon="14.251435692263106"><ele>462.1666666666667</ele><time>2026-04-25T04:46:32Z</time></trkpt><trkpt lat="41.60655427307446" lon="14.251521530155907"><ele>462.33333333333337</ele><time>2026-04-25T04:46:35Z</time></trkpt><trkpt lat="41.60657105126352" lon="14.251634216258989"><ele>462.5</ele><time>2026-04-25T04:46:38Z</time></trkpt><trkpt lat="41.60659866247359" lon="14.25174245875057"><ele>462.6666666666667</ele><time>2026-04-25T04:46:41Z</time></trkpt><trkpt lat="41.606629279198245" lon="14.25183126005346"><ele>462.83333333333337</ele><time>2026-04-25T04:46:44Z</time></trkpt><trkpt lat="41.60665246807339" lon="14.251921881269759"><ele>463.0</ele><time>2026-04-25T04:46:47Z</time></trkpt><trkpt lat="41.6066574825076" lon="14.252006449579135"><ele>463.00000000000006</ele><time>2026-04-25T04:46:49Z</time></trkpt><trkpt lat="41.60667136153942" lon="14.252122773738574"><ele>463.0</ele><time>2026-04-25T04:46:52Z</time></trkpt><trkpt lat="41.60670572774366" lon="14.25219471804133"><ele>463.0</ele><time>2026-04-25T04:46:54Z</time></trkpt><trkpt lat="41.606766300019544" lon="14.252241735185574"><ele>463.0</ele><time>2026-04-25T04:46:56Z</time></trkpt><trkpt lat="41.60680890262177" lon="14.252334149199294"><ele>463.00000000000006</ele><time>2026-04-25T04:46:59Z</time></trkpt><trkpt lat="41.606862061876114" lon="14.252413237590996"><ele>463.0</ele><time>2026-04-25T04:47:02Z</time></trkpt><trkpt lat="41.606924335965445" lon="14.252490869872332"><ele>462.85714285714283</ele><time>2026-04-25T04:47:05Z</time></trkpt><trkpt lat="41.60696653598809" lon="14.25256475127624"><ele>462.71428571428567</ele><time>2026-04-25T04:47:08Z</time></trkpt><trkpt lat="41.60702146011184" lon="14.252638846025324"><ele>462.57142857142856</ele><time>2026-04-25T04:47:11Z</time></trkpt><trkpt lat="41.607083466144864" lon="14.252689692082956"><ele>462.42857142857144</ele><time>2026-04-25T04:47:14Z</time></trkpt><trkpt lat="41.60710679120197" lon="14.252777662557621"><ele>462.2857142857143</ele><time>2026-04-25T04:47:16Z</time></trkpt><trkpt lat="41.60714948409477" lon="14.252858797503839"><ele>462.1428571428571</ele><time>2026-04-25T04:47:19Z</time></trkpt><trkpt lat="41.60719306673744" lon="14.252952013112047"><ele>462.0</ele><time>2026-04-25T04:47:22Z</time></trkpt><trkpt lat="41.60720946201945" lon="14.253052550413996"><ele>462.6666666666667</ele><time>2026-04-25T04:47:25Z</time></trkpt><trkpt lat="41.6072540757049" lon="14.253140800202768"><ele>463.33333333333337</ele><time>2026-04-25T04:47:28Z</time></trkpt><trkpt lat="41.60730881115073" lon="14.253190554889947"><ele>464.0</ele><time>2026-04-25T04:47:30Z</time></trkpt><trkpt lat="41.60738293606464" lon="14.253263791402215"><ele>464.6666666666667</ele><time>2026-04-25T04:47:33Z</time></trkpt><trkpt lat="41.60743500956365" lon="14.253356134626554"><ele>465.33333333333337</ele><time>2026-04-25T04:47:36Z</time></trkpt><trkpt lat="41.607473202714075" lon="14.253448815451467"><ele>466.0</ele><time>2026-04-25T04:47:39Z</time></trkpt><trkpt lat="41.60750229733493" lon="14.253553374757567"><ele>466.00000000000006</ele><time>2026-04-25T04:47:42Z</time></trkpt><trkpt lat="41.60750114959672" lon="14.253645697973301"><ele>466.0</ele><time>2026-04-25T04:47:44Z</time></trkpt><trkpt lat="41.60755050732009" lon="14.253736148030338"><ele>466.0</ele><time>2026-04-25T04:47:47Z</time></trkpt><trkpt lat="41.60759879518695" lon="14.253824442187943"><ele>466.0</ele><time>2026-04-25T04:47:50Z</time></trkpt><trkpt lat="41.60762994870167" lon="14.253937427049195"><ele>466.00000000000006</ele><time>2026-04-25T04:47:53Z</time></trkpt><trkpt lat="41.60769056062003" lon="14.254002603249234"><ele>466.0</ele><time>2026-04-25T04:47:56Z</time></trkpt><trkpt lat="41.607733606392145" lon="14.254085134408342"><ele>466.50000000000006</ele><time>2026-04-25T04:47:59Z</time></trkpt><trkpt lat="41.60777388147627" lon="14.254173834276665"><ele>467.0</ele><time>2026-04-25T04:48:02Z</time></trkpt><trkpt lat="41.60775714080437" lon="14.254298944641667"><ele>467.5</ele><time>2026-04-25T04:48:05Z</time></trkpt><trkpt lat="41.60778070362618" lon="14.25439801723053"><ele>468.0</ele><time>2026-04-25T04:48:08Z</time></trkpt><trkpt lat="41.60781800986429" lon="14.254497449621166"><ele>468.50000000000006</ele><time>2026-04-25T04:48:11Z</time></trkpt><trkpt lat="41.607840373348246" lon="14.254599064146909"><ele>469.0</ele><time>2026-04-25T04:48:14Z</time></trkpt><trkpt lat="41.60786023802554" lon="14.254698630219337"><ele>469.50000000000006</ele><time>2026-04-25T04:48:17Z</time></trkpt><trkpt lat="41.60787123585935" lon="14.254811903143974"><ele>470.0</ele><time>2026-04-25T04:48:20Z</time></trkpt><trkpt lat="41.60788974574586" lon="14.254921133185043"><ele>470.5</ele><time>2026-04-25T04:48:23Z</time></trkpt><trkpt lat="41.60791861887806" lon="14.25502185300479"><ele>471.0</ele><time>2026-04-25T04:48:26Z</time></trkpt><trkpt lat="41.6079069220645" lon="14.255151578239488"><ele>471.50000000000006</ele><time>2026-04-25T04:48:29Z</time></trkpt><trkpt lat="41.607940751506895" lon="14.255263648610493"><ele>472.0</ele><time>2026-04-25T04:48:32Z</time></trkpt><trkpt lat="41.60795355295265" lon="14.255361350486147"><ele>472.00000000000006</ele><time>2026-04-25T04:48:35Z</time></trkpt><trkpt lat="41.6079858799597" lon="14.255452772872882"><ele>472.0</ele><time>2026-04-25T04:48:38Z</time></trkpt><trkpt lat="41.608032254585865" lon="14.255536305169999"><ele>472.0</ele><time>2026-04-25T04:48:41Z</time></trkpt><trkpt lat="41.60810900270765" lon="14.255591714294948"><ele>472.0</ele><time>2026-04-25T04:48:44Z</time></trkpt><trkpt lat="41.60819789819041" lon="14.255588535300697"><ele>472.00000000000006</ele><time>2026-04-25T04:48:47Z</time></trkpt><trkpt lat="41.60826911499102" lon="14.255576918649986"><ele>472.0</ele><time>2026-04-25T04:48:50Z</time></trkpt><trkpt lat="41.608364735673746" lon="14.255557014714434"><ele>472.00000000000006</ele><time>2026-04-25T04:48:53Z</time></trkpt><trkpt lat="41.608432940088534" lon="14.25552473472338"><ele>472.0</ele><time>2026-04-25T04:48:56Z</time></trkpt><trkpt lat="41.6085108527571" lon="14.255489791383608"><ele>472.0</ele><time>2026-04-25T04:48:59Z</time></trkpt><trkpt lat="41.60858979785635" lon="14.255428799630488"><ele>472.0</ele><time>2026-04-25T04:49:02Z</time></trkpt><trkpt lat="41.60867262799216" lon="14.255377429506153"><ele>472.00000000000006</ele><time>2026-04-25T04:49:05Z</time></trkpt><trkpt lat="41.608745750479045" lon="14.25531649296386"><ele>472.0</ele><time>2026-04-25T04:49:08Z</time></trkpt><trkpt lat="41.60882821167631" lon="14.255262966209862"><ele>472.00000000000006</ele><time>2026-04-25T04:49:11Z</time></trkpt><trkpt lat="41.60890259240813" lon="14.255216860556697"><ele>472.0</ele><time>2026-04-25T04:49:14Z</time></trkpt><trkpt lat="41.608979970840885" lon="14.255170398708795"><ele>472.0</ele><time>2026-04-25T04:49:17Z</time></trkpt><trkpt lat="41.60903816252901" lon="14.255130025092235"><ele>472.0</ele><time>2026-04-25T04:49:19Z</time></trkpt><trkpt lat="41.609113288804274" lon="14.255083518114432"><ele>472.00000000000006</ele><time>2026-04-25T04:49:22Z</time></trkpt><trkpt lat="41.60917763982279" lon="14.2550442761598"><ele>472.0</ele><time>2026-04-25T04:49:25Z</time></trkpt><trkpt lat="41.60925525730663" lon="14.255007819592757"><ele>472.00000000000006</ele><time>2026-04-25T04:49:28Z</time></trkpt><trkpt lat="41.60933424139625" lon="14.254956917182955"><ele>472.0</ele><time>2026-04-25T04:49:31Z</time></trkpt><trkpt lat="41.609413769226975" lon="14.254928567291781"><ele>472.0</ele><time>2026-04-25T04:49:34Z</time></trkpt><trkpt lat="41.6094956669985" lon="14.254885378470389"><ele>472.0</ele><time>2026-04-25T04:49:37Z</time></trkpt><trkpt lat="41.60956910058894" lon="14.254832430565004"><ele>472.00000000000006</ele><time>2026-04-25T04:49:40Z</time></trkpt><trkpt lat="41.609632605761945" lon="14.254796845336699"><ele>472.0</ele><time>2026-04-25T04:49:43Z</time></trkpt><trkpt lat="41.6097170209053" lon="14.254760056391133"><ele>471.1666666666667</ele><time>2026-04-25T04:49:46Z</time></trkpt><trkpt lat="41.60979199102465" lon="14.254715284542021"><ele>470.33333333333337</ele><time>2026-04-25T04:49:49Z</time></trkpt><trkpt lat="41.60986870600344" lon="14.254652478003873"><ele>469.5</ele><time>2026-04-25T04:49:52Z</time></trkpt><trkpt lat="41.609942517965635" lon="14.254600682922112"><ele>468.66666666666663</ele><time>2026-04-25T04:49:55Z</time></trkpt><trkpt lat="41.61000468000589" lon="14.25456155584498"><ele>467.8333333333333</ele><time>2026-04-25T04:49:57Z</time></trkpt><trkpt lat="41.610073156993295" lon="14.254495444131956"><ele>467.0</ele><time>2026-04-25T04:50:00Z</time></trkpt><trkpt lat="41.61015110281951" lon="14.254457408444278"><ele>466.99999999999994</ele><time>2026-04-25T04:50:03Z</time></trkpt><trkpt lat="41.61021850389756" lon="14.25441015710752"><ele>467.0</ele><time>2026-04-25T04:50:06Z</time></trkpt><trkpt lat="41.61030603059168" lon="14.254362961981414"><ele>467.0</ele><time>2026-04-25T04:50:09Z</time></trkpt><trkpt lat="41.61039619426234" lon="14.254350352893002"><ele>467.0</ele><time>2026-04-25T04:50:12Z</time></trkpt><trkpt lat="41.610472443363804" lon="14.254349721682926"><ele>466.99999999999994</ele><time>2026-04-25T04:50:15Z</time></trkpt><trkpt lat="41.61054050413429" lon="14.254389435732037"><ele>467.0</ele><time>2026-04-25T04:50:18Z</time></trkpt><trkpt lat="41.61060828218202" lon="14.254462419175805"><ele>466.8333333333333</ele><time>2026-04-25T04:50:21Z</time></trkpt><trkpt lat="41.6106494355463" lon="14.254550032575345"><ele>466.66666666666663</ele><time>2026-04-25T04:50:24Z</time></trkpt><trkpt lat="41.61069339165496" lon="14.254635588901577"><ele>466.5</ele><time>2026-04-25T04:50:27Z</time></trkpt><trkpt lat="41.61072797616003" lon="14.254713381245521"><ele>466.33333333333337</ele><time>2026-04-25T04:50:29Z</time></trkpt><trkpt lat="41.610776459742944" lon="14.25479523652763"><ele>466.1666666666667</ele><time>2026-04-25T04:50:32Z</time></trkpt><trkpt lat="41.610824248793755" lon="14.254891167601425"><ele>466.0</ele><time>2026-04-25T04:50:35Z</time></trkpt><trkpt lat="41.61086289489547" lon="14.25496794948465"><ele>466.50000000000006</ele><time>2026-04-25T04:50:37Z</time></trkpt><trkpt lat="41.61092985738399" lon="14.255042461089081"><ele>467.0</ele><time>2026-04-25T04:50:40Z</time></trkpt><trkpt lat="41.61100538059538" lon="14.255088241421117"><ele>467.5</ele><time>2026-04-25T04:50:43Z</time></trkpt><trkpt lat="41.611084434169655" lon="14.25510757981718"><ele>468.0</ele><time>2026-04-25T04:50:46Z</time></trkpt><trkpt lat="41.611164817329026" lon="14.255076870139092"><ele>468.50000000000006</ele><time>2026-04-25T04:50:49Z</time></trkpt><trkpt lat="41.61123573516054" lon="14.255021019312093"><ele>469.0</ele><time>2026-04-25T04:50:52Z</time></trkpt><trkpt lat="41.61130399144844" lon="14.254953914863249"><ele>468.6666666666667</ele><time>2026-04-25T04:50:55Z</time></trkpt><trkpt lat="41.611375281765106" lon="14.254884031891596"><ele>468.33333333333337</ele><time>2026-04-25T04:50:58Z</time></trkpt><trkpt lat="41.61144430518095" lon="14.254820445568035"><ele>468.0</ele><time>2026-04-25T04:51:01Z</time></trkpt><trkpt lat="41.61149820583157" lon="14.254772663283966"><ele>467.66666666666663</ele><time>2026-04-25T04:51:03Z</time></trkpt><trkpt lat="41.6115604406335" lon="14.254718427159755"><ele>467.3333333333333</ele><time>2026-04-25T04:51:06Z</time></trkpt><trkpt lat="41.61162800588257" lon="14.254646887673912"><ele>467.0</ele><time>2026-04-25T04:51:09Z</time></trkpt><trkpt lat="41.611686305237285" lon="14.254612511269608"><ele>466.99999999999994</ele><time>2026-04-25T04:51:11Z</time></trkpt><trkpt lat="41.61177509840417" lon="14.254586363889596"><ele>467.0</ele><time>2026-04-25T04:51:14Z</time></trkpt><trkpt lat="41.61184919015752" lon="14.254539306367894"><ele>467.0</ele><time>2026-04-25T04:51:17Z</time></trkpt><trkpt lat="41.611932141638384" lon="14.25452937732781"><ele>467.0</ele><time>2026-04-25T04:51:20Z</time></trkpt><trkpt lat="41.61200963916103" lon="14.254522212439744"><ele>466.99999999999994</ele><time>2026-04-25T04:51:23Z</time></trkpt><trkpt lat="41.61207417759652" lon="14.25454490265872"><ele>467.0</ele><time>2026-04-25T04:51:25Z</time></trkpt><trkpt lat="41.61215900157061" lon="14.254508216513411"><ele>466.99999999999994</ele><time>2026-04-25T04:51:28Z</time></trkpt><trkpt lat="41.61222076641502" lon="14.254481589371473"><ele>467.0</ele><time>2026-04-25T04:51:30Z</time></trkpt><trkpt lat="41.61230966447099" lon="14.25446824194304"><ele>467.0</ele><time>2026-04-25T04:51:33Z</time></trkpt><trkpt lat="41.6123984865431" lon="14.254476381840814"><ele>467.0</ele><time>2026-04-25T04:51:36Z</time></trkpt><trkpt lat="41.61246393123444" lon="14.254478752849458"><ele>466.99999999999994</ele><time>2026-04-25T04:51:38Z</time></trkpt><trkpt lat="41.61254383305324" lon="14.25448241764173"><ele>467.0</ele><time>2026-04-25T04:51:41Z</time></trkpt><trkpt lat="41.612622532050125" lon="14.254494145239175"><ele>467.0</ele><time>2026-04-25T04:51:44Z</time></trkpt><trkpt lat="41.61270478593652" lon="14.25453629282375"><ele>467.00000000000006</ele><time>2026-04-25T04:51:47Z</time></trkpt><trkpt lat="41.61278749621244" lon="14.254573109899173"><ele>467.00000000000006</ele><time>2026-04-25T04:51:50Z</time></trkpt><trkpt lat="41.612876667825944" lon="14.254581718688785"><ele>467.0</ele><time>2026-04-25T04:51:53Z</time></trkpt><trkpt lat="41.612961190063295" lon="14.254583331310759"><ele>467.0</ele><time>2026-04-25T04:51:56Z</time></trkpt><trkpt lat="41.61320182756702" lon="14.254637330363577"><ele>466.3333333333333</ele><time>2026-04-25T04:52:05Z</time></trkpt><trkpt lat="41.61322992938663" lon="14.254714496307454"><ele>465.66666666666663</ele><time>2026-04-25T04:52:06Z</time></trkpt><trkpt lat="41.61330991058889" lon="14.254749621092559"><ele>465.0</ele><time>2026-04-25T04:52:09Z</time></trkpt><trkpt lat="41.613394204185695" lon="14.25476998069661"><ele>464.33333333333337</ele><time>2026-04-25T04:52:12Z</time></trkpt><trkpt lat="41.61347093359479" lon="14.25485414944118"><ele>463.6666666666667</ele><time>2026-04-25T04:52:15Z</time></trkpt><trkpt lat="41.6135412533995" lon="14.2548936850888"><ele>463.0</ele><time>2026-04-25T04:52:18Z</time></trkpt><trkpt lat="41.61362629675005" lon="14.254913952917018"><ele>463.1666666666667</ele><time>2026-04-25T04:52:21Z</time></trkpt><trkpt lat="41.61371224298608" lon="14.254838747998727"><ele>463.33333333333337</ele><time>2026-04-25T04:52:24Z</time></trkpt><trkpt lat="41.61377211483812" lon="14.254797884758464"><ele>463.5</ele><time>2026-04-25T04:52:27Z</time></trkpt><trkpt lat="41.613796274350925" lon="14.25468624040213"><ele>463.66666666666663</ele><time>2026-04-25T04:52:30Z</time></trkpt><trkpt lat="41.61378928648401" lon="14.254571961603252"><ele>463.8333333333333</ele><time>2026-04-25T04:52:33Z</time></trkpt><trkpt lat="41.6137304234221" lon="14.25453967500827"><ele>464.0</ele><time>2026-04-25T04:52:35Z</time></trkpt><trkpt lat="41.61366839499759" lon="14.254473486800652"><ele>463.8333333333333</ele><time>2026-04-25T04:52:38Z</time></trkpt><trkpt lat="41.613609044854236" lon="14.254402410828874"><ele>463.66666666666663</ele><time>2026-04-25T04:52:41Z</time></trkpt><trkpt lat="41.61355073059247" lon="14.254341469585512"><ele>463.5</ele><time>2026-04-25T04:52:44Z</time></trkpt><trkpt lat="41.61350668738023" lon="14.25427649831432"><ele>463.33333333333337</ele><time>2026-04-25T04:52:46Z</time></trkpt><trkpt lat="41.61346538860368" lon="14.254174400361698"><ele>463.1666666666667</ele><time>2026-04-25T04:52:49Z</time></trkpt><trkpt lat="41.613436443254194" lon="14.254058041031442"><ele>463.0</ele><time>2026-04-25T04:52:52Z</time></trkpt><trkpt lat="41.613405566051995" lon="14.253940096982838"><ele>463.00000000000006</ele><time>2026-04-25T04:52:55Z</time></trkpt><trkpt lat="41.61335813597249" lon="14.25384212089084"><ele>463.0</ele><time>2026-04-25T04:52:58Z</time></trkpt><trkpt lat="41.61333155406922" lon="14.253739072114907"><ele>463.0</ele><time>2026-04-25T04:53:01Z</time></trkpt><trkpt lat="41.61331619608994" lon="14.253656569036178"><ele>463.0</ele><time>2026-04-25T04:53:03Z</time></trkpt><trkpt lat="41.61329856350044" lon="14.253540845554049"><ele>463.00000000000006</ele><time>2026-04-25T04:53:06Z</time></trkpt><trkpt lat="41.613248811269266" lon="14.253431748330534"><ele>463.0</ele><time>2026-04-25T04:53:09Z</time></trkpt><trkpt lat="41.613197112707184" lon="14.253339266790118"><ele>463.00000000000006</ele><time>2026-04-25T04:53:12Z</time></trkpt><trkpt lat="41.61315077511037" lon="14.25325563405805"><ele>463.0</ele><time>2026-04-25T04:53:15Z</time></trkpt><trkpt lat="41.61309784038474" lon="14.25315753955871"><ele>463.0</ele><time>2026-04-25T04:53:18Z</time></trkpt><trkpt lat="41.61307644724204" lon="14.253077759129217"><ele>463.0</ele><time>2026-04-25T04:53:20Z</time></trkpt><trkpt lat="41.61304635457054" lon="14.252973939101064"><ele>463.00000000000006</ele><time>2026-04-25T04:53:23Z</time></trkpt><trkpt lat="41.61300708038504" lon="14.252872786256583"><ele>463.0</ele><time>2026-04-25T04:53:26Z</time></trkpt><trkpt lat="41.61299758834822" lon="14.252753367388445"><ele>463.1666666666667</ele><time>2026-04-25T04:53:29Z</time></trkpt><trkpt lat="41.6129823313053" lon="14.252639647305015"><ele>463.33333333333337</ele><time>2026-04-25T04:53:32Z</time></trkpt><trkpt lat="41.61295957263663" lon="14.252541327139152"><ele>463.5</ele><time>2026-04-25T04:53:35Z</time></trkpt><trkpt lat="41.612920460607874" lon="14.252435614135864"><ele>463.66666666666663</ele><time>2026-04-25T04:53:38Z</time></trkpt><trkpt lat="41.61290770279504" lon="14.25233075499594"><ele>463.8333333333333</ele><time>2026-04-25T04:53:41Z</time></trkpt><trkpt lat="41.61290104235472" lon="14.25220626758151"><ele>464.0</ele><time>2026-04-25T04:53:44Z</time></trkpt><trkpt lat="41.61288381016828" lon="14.252116207708022"><ele>463.99999999999994</ele><time>2026-04-25T04:53:46Z</time></trkpt><trkpt lat="41.61285063022147" lon="14.252015418121681"><ele>464.0</ele><time>2026-04-25T04:53:49Z</time></trkpt><trkpt lat="41.61283289124769" lon="14.25190540380089"><ele>464.0</ele><time>2026-04-25T04:53:52Z</time></trkpt><trkpt lat="41.61280379001183" lon="14.25179450011059"><ele>464.0</ele><time>2026-04-25T04:53:55Z</time></trkpt><trkpt lat="41.61276762435396" lon="14.25169574682281"><ele>463.99999999999994</ele><time>2026-04-25T04:53:58Z</time></trkpt><trkpt lat="41.61271122265216" lon="14.251606858746161"><ele>464.0</ele><time>2026-04-25T04:54:01Z</time></trkpt><trkpt lat="41.61266573963849" lon="14.251541376929634"><ele>463.66666666666663</ele><time>2026-04-25T04:54:03Z</time></trkpt><trkpt lat="41.61264090556009" lon="14.251440397719529"><ele>463.3333333333333</ele><time>2026-04-25T04:54:06Z</time></trkpt><trkpt lat="41.6125961133033" lon="14.251338627250348"><ele>463.0</ele><time>2026-04-25T04:54:09Z</time></trkpt><trkpt lat="41.61254880796312" lon="14.251263525417649"><ele>462.66666666666663</ele><time>2026-04-25T04:54:12Z</time></trkpt><trkpt lat="41.61249641562014" lon="14.251159580019294"><ele>462.3333333333333</ele><time>2026-04-25T04:54:15Z</time></trkpt><trkpt lat="41.612469304544604" lon="14.25108295211589"><ele>462.0</ele><time>2026-04-25T04:54:17Z</time></trkpt><trkpt lat="41.612410663786925" lon="14.250983892868707"><ele>462.0</ele><time>2026-04-25T04:54:20Z</time></trkpt><trkpt lat="41.61234512874447" lon="14.25090185519016"><ele>462.0</ele><time>2026-04-25T04:54:23Z</time></trkpt><trkpt lat="41.61228544267869" lon="14.250822720515016"><ele>462.0</ele><time>2026-04-25T04:54:26Z</time></trkpt><trkpt lat="41.61224067990491" lon="14.250733812579021"><ele>462.0</ele><time>2026-04-25T04:54:29Z</time></trkpt><trkpt lat="41.61218867422157" lon="14.250681765875031"><ele>462.0</ele><time>2026-04-25T04:54:31Z</time></trkpt><trkpt lat="41.612115612844974" lon="14.250624955065163"><ele>462.0</ele><time>2026-04-25T04:54:34Z</time></trkpt><trkpt lat="41.6120377306346" lon="14.250568393962737"><ele>462.3333333333333</ele><time>2026-04-25T04:54:37Z</time></trkpt><trkpt lat="41.611955515647786" lon="14.250539868192377"><ele>462.66666666666663</ele><time>2026-04-25T04:54:40Z</time></trkpt><trkpt lat="41.61187862000584" lon="14.25049608771656"><ele>463.0</ele><time>2026-04-25T04:54:43Z</time></trkpt><trkpt lat="41.61179456206219" lon="14.250460656077845"><ele>463.3333333333333</ele><time>2026-04-25T04:54:46Z</time></trkpt><trkpt lat="41.61171642462095" lon="14.250413259217966"><ele>463.66666666666663</ele><time>2026-04-25T04:54:49Z</time></trkpt><trkpt lat="41.61164028211947" lon="14.250344516001489"><ele>464.0</ele><time>2026-04-25T04:54:52Z</time></trkpt><trkpt lat="41.611570853640096" lon="14.250262385476596"><ele>463.99999999999994</ele><time>2026-04-25T04:54:55Z</time></trkpt><trkpt lat="41.61152694252312" lon="14.250184619645859"><ele>464.0</ele><time>2026-04-25T04:54:58Z</time></trkpt><trkpt lat="41.61150178290004" lon="14.25010696537734"><ele>464.0</ele><time>2026-04-25T04:55:00Z</time></trkpt><trkpt lat="41.611476135860435" lon="14.249997010269645"><ele>464.0</ele><time>2026-04-25T04:55:03Z</time></trkpt><trkpt lat="41.61145312998508" lon="14.249891583924407"><ele>463.99999999999994</ele><time>2026-04-25T04:55:06Z</time></trkpt><trkpt lat="41.61141913516335" lon="14.249786730913998"><ele>464.0</ele><time>2026-04-25T04:55:09Z</time></trkpt><trkpt lat="41.6113982284099" lon="14.2496873925681"><ele>463.8333333333333</ele><time>2026-04-25T04:55:12Z</time></trkpt><trkpt lat="41.61143983377667" lon="14.249583333830653"><ele>463.66666666666663</ele><time>2026-04-25T04:55:15Z</time></trkpt><trkpt lat="41.611491446666335" lon="14.249531990088773"><ele>463.5</ele><time>2026-04-25T04:55:17Z</time></trkpt><trkpt lat="41.611546720533084" lon="14.249455019705664"><ele>463.33333333333337</ele><time>2026-04-25T04:55:20Z</time></trkpt><trkpt lat="41.61157537776072" lon="14.249349626407405"><ele>463.1666666666667</ele><time>2026-04-25T04:55:23Z</time></trkpt><trkpt lat="41.611637863171715" lon="14.24926608089117"><ele>463.0</ele><time>2026-04-25T04:55:26Z</time></trkpt><trkpt lat="41.61167039932566" lon="14.249159904605976"><ele>463.00000000000006</ele><time>2026-04-25T04:55:29Z</time></trkpt><trkpt lat="41.61170255230984" lon="14.249058367738828"><ele>463.0</ele><time>2026-04-25T04:55:32Z</time></trkpt><trkpt lat="41.611741889686996" lon="14.248948010469148"><ele>463.0</ele><time>2026-04-25T04:55:35Z</time></trkpt><trkpt lat="41.611796160470675" lon="14.24885847750908"><ele>463.0</ele><time>2026-04-25T04:55:38Z</time></trkpt><trkpt lat="41.61184548612599" lon="14.248766323392584"><ele>463.00000000000006</ele><time>2026-04-25T04:55:41Z</time></trkpt><trkpt lat="41.61190271655947" lon="14.248679942716436"><ele>463.0</ele><time>2026-04-25T04:55:44Z</time></trkpt><trkpt lat="41.61196513876301" lon="14.248582196557534"><ele>463.1666666666667</ele><time>2026-04-25T04:55:47Z</time></trkpt><trkpt lat="41.61202095314513" lon="14.248501777399603"><ele>463.33333333333337</ele><time>2026-04-25T04:55:50Z</time></trkpt><trkpt lat="41.61207498757243" lon="14.248412578548535"><ele>463.5</ele><time>2026-04-25T04:55:53Z</time></trkpt><trkpt lat="41.612130714884536" lon="14.248368191781992"><ele>463.66666666666663</ele><time>2026-04-25T04:55:55Z</time></trkpt><trkpt lat="41.61217653399714" lon="14.24828060548466"><ele>463.8333333333333</ele><time>2026-04-25T04:55:58Z</time></trkpt><trkpt lat="41.61224603250054" lon="14.248217133230796"><ele>464.0</ele><time>2026-04-25T04:56:01Z</time></trkpt><trkpt lat="41.61231311186453" lon="14.248231961809738"><ele>463.99999999999994</ele><time>2026-04-25T04:56:03Z</time></trkpt><trkpt lat="41.6123894134881" lon="14.248305275063261"><ele>464.0</ele><time>2026-04-25T04:56:06Z</time></trkpt><trkpt lat="41.61245526220684" lon="14.2483708993447"><ele>464.0</ele><time>2026-04-25T04:56:09Z</time></trkpt><trkpt lat="41.61253787718438" lon="14.24841676852528"><ele>464.0</ele><time>2026-04-25T04:56:12Z</time></trkpt><trkpt lat="41.61261124367088" lon="14.248449592352614"><ele>463.99999999999994</ele><time>2026-04-25T04:56:15Z</time></trkpt><trkpt lat="41.612704073037236" lon="14.248453952980894"><ele>464.0</ele><time>2026-04-25T04:56:18Z</time></trkpt><trkpt lat="41.612776994515265" lon="14.248503502103283"><ele>463.66666666666663</ele><time>2026-04-25T04:56:21Z</time></trkpt><trkpt lat="41.61284848477433" lon="14.248562187723879"><ele>463.3333333333333</ele><time>2026-04-25T04:56:24Z</time></trkpt><trkpt lat="41.612918895220574" lon="14.24863737775377"><ele>463.0</ele><time>2026-04-25T04:56:27Z</time></trkpt><trkpt lat="41.612988168660905" lon="14.248703371866673"><ele>462.66666666666663</ele><time>2026-04-25T04:56:30Z</time></trkpt><trkpt lat="41.613073363738515" lon="14.248724860775337"><ele>462.3333333333333</ele><time>2026-04-25T04:56:33Z</time></trkpt><trkpt lat="41.613125364971964" lon="14.248660001228266"><ele>462.0</ele><time>2026-04-25T04:56:35Z</time></trkpt><trkpt lat="41.6131902850549" lon="14.248592550452164"><ele>462.0</ele><time>2026-04-25T04:56:38Z</time></trkpt><trkpt lat="41.61325686933597" lon="14.24851831058742"><ele>462.0</ele><time>2026-04-25T04:56:41Z</time></trkpt><trkpt lat="41.613317905136505" lon="14.248445445248157"><ele>462.0</ele><time>2026-04-25T04:56:44Z</time></trkpt><trkpt lat="41.61337833661189" lon="14.248366352402309"><ele>462.0</ele><time>2026-04-25T04:56:47Z</time></trkpt><trkpt lat="41.613424787047464" lon="14.248309426339684"><ele>462.0</ele><time>2026-04-25T04:56:49Z</time></trkpt><trkpt lat="41.61349054660934" lon="14.248243469004084"><ele>462.0</ele><time>2026-04-25T04:56:52Z</time></trkpt><trkpt lat="41.6135606878617" lon="14.248168465086767"><ele>462.0</ele><time>2026-04-25T04:56:55Z</time></trkpt><trkpt lat="41.613616992527334" lon="14.248079632494955"><ele>462.0</ele><time>2026-04-25T04:56:58Z</time></trkpt><trkpt lat="41.61367706268573" lon="14.248008568435356"><ele>462.0</ele><time>2026-04-25T04:57:01Z</time></trkpt><trkpt lat="41.613741638484505" lon="14.247940922340701"><ele>462.0</ele><time>2026-04-25T04:57:04Z</time></trkpt><trkpt lat="41.613797029029904" lon="14.24789584113353"><ele>462.0</ele><time>2026-04-25T04:57:06Z</time></trkpt><trkpt lat="41.61385539054675" lon="14.247860454410983"><ele>462.0</ele><time>2026-04-25T04:57:08Z</time></trkpt><trkpt lat="41.613927369620036" lon="14.247781694071582"><ele>462.0</ele><time>2026-04-25T04:57:11Z</time></trkpt><trkpt lat="41.61398217083647" lon="14.247711311773793"><ele>462.0</ele><time>2026-04-25T04:57:14Z</time></trkpt><trkpt lat="41.61404695299877" lon="14.247664396118036"><ele>462.0</ele><time>2026-04-25T04:57:17Z</time></trkpt><trkpt lat="41.61409993085443" lon="14.247610713572026"><ele>462.0</ele><time>2026-04-25T04:57:19Z</time></trkpt><trkpt lat="41.6141643920483" lon="14.247541652552489"><ele>462.0</ele><time>2026-04-25T04:57:22Z</time></trkpt><trkpt lat="41.614223835916" lon="14.247455643664654"><ele>462.0</ele><time>2026-04-25T04:57:26Z</time></trkpt><trkpt lat="41.614242135743815" lon="14.247371908487162"><ele>462.0</ele><time>2026-04-25T04:57:28Z</time></trkpt><trkpt lat="41.614242181043416" lon="14.247253676704203"><ele>462.0</ele><time>2026-04-25T04:57:31Z</time></trkpt><trkpt lat="41.61420020301115" lon="14.247147139426948"><ele>462.0</ele><time>2026-04-25T04:57:34Z</time></trkpt><trkpt lat="41.61417275546859" lon="14.247045049127623"><ele>462.0</ele><time>2026-04-25T04:57:37Z</time></trkpt><trkpt lat="41.61415684820689" lon="14.246961895192591"><ele>462.0</ele><time>2026-04-25T04:57:39Z</time></trkpt><trkpt lat="41.614122932967774" lon="14.246876324057139"><ele>462.0</ele><time>2026-04-25T04:57:42Z</time></trkpt><trkpt lat="41.61408823558997" lon="14.246775107231176"><ele>462.0</ele><time>2026-04-25T04:57:45Z</time></trkpt><trkpt lat="41.61406213881488" lon="14.246676275335792"><ele>462.0</ele><time>2026-04-25T04:57:48Z</time></trkpt><trkpt lat="41.614034934364206" lon="14.246564327334063"><ele>462.0</ele><time>2026-04-25T04:57:51Z</time></trkpt><trkpt lat="41.61400135618094" lon="14.24645244665147"><ele>462.0</ele><time>2026-04-25T04:57:54Z</time></trkpt><trkpt lat="41.613977119986224" lon="14.246353558124019"><ele>462.0</ele><time>2026-04-25T04:57:57Z</time></trkpt><trkpt lat="41.613894755599276" lon="14.246296498948693"><ele>462.0</ele><time>2026-04-25T04:58:00Z</time></trkpt><trkpt lat="41.613814116821004" lon="14.246264142723783"><ele>462.3333333333333</ele><time>2026-04-25T04:58:03Z</time></trkpt><trkpt lat="41.613756841629254" lon="14.246197866581339"><ele>462.66666666666663</ele><time>2026-04-25T04:58:06Z</time></trkpt><trkpt lat="41.613692114389416" lon="14.246120853651904"><ele>463.0</ele><time>2026-04-25T04:58:09Z</time></trkpt><trkpt lat="41.613643717873266" lon="14.24601946826986"><ele>463.3333333333333</ele><time>2026-04-25T04:58:12Z</time></trkpt><trkpt lat="41.61356858891522" lon="14.24596161229754"><ele>463.66666666666663</ele><time>2026-04-25T04:58:15Z</time></trkpt><trkpt lat="41.61349097059944" lon="14.245950611207512"><ele>464.0</ele><time>2026-04-25T04:58:18Z</time></trkpt><trkpt lat="41.6134109744528" lon="14.245946484819807"><ele>463.99999999999994</ele><time>2026-04-25T04:58:21Z</time></trkpt><trkpt lat="41.6133588252669" lon="14.245889862607877"><ele>464.0</ele><time>2026-04-25T04:58:23Z</time></trkpt><trkpt lat="41.61327320036991" lon="14.245828212971352"><ele>464.0</ele><time>2026-04-25T04:58:26Z</time></trkpt><trkpt lat="41.613208015175196" lon="14.245790358408339"><ele>464.0</ele><time>2026-04-25T04:58:29Z</time></trkpt><trkpt lat="41.61313782000948" lon="14.245736199462725"><ele>463.99999999999994</ele><time>2026-04-25T04:58:32Z</time></trkpt><trkpt lat="41.61306059234693" lon="14.245688579132192"><ele>464.0</ele><time>2026-04-25T04:58:35Z</time></trkpt><trkpt lat="41.612987086106195" lon="14.24564378988212"><ele>463.99999999999994</ele><time>2026-04-25T04:58:38Z</time></trkpt><trkpt lat="41.61290134630395" lon="14.24561636365354"><ele>464.0</ele><time>2026-04-25T04:58:41Z</time></trkpt><trkpt lat="41.61281765599999" lon="14.245617291660269"><ele>464.0</ele><time>2026-04-25T04:58:44Z</time></trkpt><trkpt lat="41.61273283698636" lon="14.245629363615357"><ele>464.0</ele><time>2026-04-25T04:58:47Z</time></trkpt><trkpt lat="41.612651685774125" lon="14.245641952542334"><ele>463.99999999999994</ele><time>2026-04-25T04:58:50Z</time></trkpt><trkpt lat="41.61257828705633" lon="14.245658646650007"><ele>464.0</ele><time>2026-04-25T04:58:53Z</time></trkpt><trkpt lat="41.61249973312824" lon="14.245667494112496"><ele>463.99999999999994</ele><time>2026-04-25T04:58:56Z</time></trkpt><trkpt lat="41.61241369214357" lon="14.245679873388656"><ele>464.0</ele><time>2026-04-25T04:58:59Z</time></trkpt><trkpt lat="41.61232124391105" lon="14.245677393208217"><ele>464.0</ele><time>2026-04-25T04:59:02Z</time></trkpt><trkpt lat="41.61224058440378" lon="14.24566152490313"><ele>464.0</ele><time>2026-04-25T04:59:05Z</time></trkpt><trkpt lat="41.61215800691668" lon="14.245642416350284"><ele>463.99999999999994</ele><time>2026-04-25T04:59:08Z</time></trkpt><trkpt lat="41.61208828468379" lon="14.245668936065874"><ele>464.0</ele><time>2026-04-25T04:59:10Z</time></trkpt><trkpt lat="41.61200509958631" lon="14.245681077315071"><ele>463.99999999999994</ele><time>2026-04-25T04:59:13Z</time></trkpt><trkpt lat="41.61194211594654" lon="14.245698958748081"><ele>464.0</ele><time>2026-04-25T04:59:15Z</time></trkpt><trkpt lat="41.611859091379635" lon="14.245725409840093"><ele>464.0</ele><time>2026-04-25T04:59:18Z</time></trkpt><trkpt lat="41.61177058896435" lon="14.245760814682352"><ele>464.0</ele><time>2026-04-25T04:59:21Z</time></trkpt><trkpt lat="41.611695266003906" lon="14.245798184990548"><ele>463.99999999999994</ele><time>2026-04-25T04:59:24Z</time></trkpt><trkpt lat="41.611621457883984" lon="14.245832252455104"><ele>464.0</ele><time>2026-04-25T04:59:27Z</time></trkpt><trkpt lat="41.61153269769562" lon="14.245821504164654"><ele>463.99999999999994</ele><time>2026-04-25T04:59:30Z</time></trkpt><trkpt lat="41.611481042062124" lon="14.245759812338456"><ele>464.0</ele><time>2026-04-25T04:59:32Z</time></trkpt><trkpt lat="41.611435758019354" lon="14.245655136944416"><ele>464.0</ele><time>2026-04-25T04:59:35Z</time></trkpt><trkpt lat="41.61139973468398" lon="14.245549379535772"><ele>464.0</ele><time>2026-04-25T04:59:38Z</time></trkpt><trkpt lat="41.611367016202166" lon="14.245475070547664"><ele>463.99999999999994</ele><time>2026-04-25T04:59:40Z</time></trkpt><trkpt lat="41.61133276900534" lon="14.245381773133886"><ele>464.0</ele><time>2026-04-25T04:59:43Z</time></trkpt><trkpt lat="41.611275671018845" lon="14.245292381694464"><ele>463.99999999999994</ele><time>2026-04-25T04:59:46Z</time></trkpt><trkpt lat="41.61123818044742" lon="14.245189250002728"><ele>464.0</ele><time>2026-04-25T04:59:49Z</time></trkpt><trkpt lat="41.61119521638778" lon="14.245097322321202"><ele>464.0</ele><time>2026-04-25T04:59:52Z</time></trkpt><trkpt lat="41.611150750520096" lon="14.245001526497983"><ele>464.0</ele><time>2026-04-25T04:59:55Z</time></trkpt><trkpt lat="41.61106447089194" lon="14.244953884531558"><ele>463.99999999999994</ele><time>2026-04-25T04:59:58Z</time></trkpt><trkpt lat="41.61099010426649" lon="14.245005773359726"><ele>464.0</ele><time>2026-04-25T05:00:01Z</time></trkpt><trkpt lat="41.61092439407166" lon="14.24507392967453"><ele>463.99999999999994</ele><time>2026-04-25T05:00:04Z</time></trkpt><trkpt lat="41.610858870351315" lon="14.245127902064999"><ele>464.0</ele><time>2026-04-25T05:00:07Z</time></trkpt><trkpt lat="41.610783797310184" lon="14.245193532073323"><ele>464.0</ele><time>2026-04-25T05:00:10Z</time></trkpt><trkpt lat="41.61071488273631" lon="14.245249526377359"><ele>464.0</ele><time>2026-04-25T05:00:13Z</time></trkpt><trkpt lat="41.61065266440311" lon="14.24531789321396"><ele>463.99999999999994</ele><time>2026-04-25T05:00:16Z</time></trkpt><trkpt lat="41.61059599361025" lon="14.24540009160879"><ele>464.0</ele><time>2026-04-25T05:00:19Z</time></trkpt><trkpt lat="41.6105302844758" lon="14.245474321619731"><ele>463.99999999999994</ele><time>2026-04-25T05:00:22Z</time></trkpt><trkpt lat="41.610467278419335" lon="14.245558968945687"><ele>464.0</ele><time>2026-04-25T05:00:25Z</time></trkpt><trkpt lat="41.610400816405196" lon="14.245624821376634"><ele>464.0</ele><time>2026-04-25T05:00:28Z</time></trkpt><trkpt lat="41.61033434953638" lon="14.245705355347573"><ele>464.0</ele><time>2026-04-25T05:00:31Z</time></trkpt><trkpt lat="41.61025730856312" lon="14.245763129601418"><ele>463.99999999999994</ele><time>2026-04-25T05:00:34Z</time></trkpt><trkpt lat="41.61020690613284" lon="14.245819000805099"><ele>464.0</ele><time>2026-04-25T05:00:36Z</time></trkpt><trkpt lat="41.61012942079372" lon="14.24586648044104"><ele>464.16666666666663</ele><time>2026-04-25T05:00:39Z</time></trkpt><trkpt lat="41.61006980218468" lon="14.245920967933392"><ele>464.3333333333333</ele><time>2026-04-25T05:00:42Z</time></trkpt><trkpt lat="41.610008472168154" lon="14.245998640989347"><ele>464.5</ele><time>2026-04-25T05:00:45Z</time></trkpt><trkpt lat="41.6099502566529" lon="14.246071684463153"><ele>464.66666666666663</ele><time>2026-04-25T05:00:48Z</time></trkpt><trkpt lat="41.60988652728159" lon="14.24609785971366"><ele>464.8333333333333</ele><time>2026-04-25T05:00:50Z</time></trkpt><trkpt lat="41.60983592141015" lon="14.246149910699502"><ele>465.0</ele><time>2026-04-25T05:00:52Z</time></trkpt><trkpt lat="41.609768209760034" lon="14.24621511057281"><ele>465.0</ele><time>2026-04-25T05:00:55Z</time></trkpt><trkpt lat="41.60969314133579" lon="14.246277617919302"><ele>465.0</ele><time>2026-04-25T05:00:58Z</time></trkpt><trkpt lat="41.609641885875305" lon="14.246331394961702"><ele>465.0</ele><time>2026-04-25T05:01:00Z</time></trkpt><trkpt lat="41.609591559948804" lon="14.246386253514776"><ele>465.0</ele><time>2026-04-25T05:01:02Z</time></trkpt><trkpt lat="41.60952722874028" lon="14.246458135519312"><ele>465.0</ele><time>2026-04-25T05:01:05Z</time></trkpt><trkpt lat="41.60946761316921" lon="14.246522583635372"><ele>465.0</ele><time>2026-04-25T05:01:08Z</time></trkpt><trkpt lat="41.60941705764992" lon="14.246607689852334"><ele>464.6666666666667</ele><time>2026-04-25T05:01:11Z</time></trkpt><trkpt lat="41.60934891379923" lon="14.246694698583108"><ele>464.33333333333337</ele><time>2026-04-25T05:01:14Z</time></trkpt><trkpt lat="41.60928484924922" lon="14.246781661413996"><ele>464.0</ele><time>2026-04-25T05:01:17Z</time></trkpt><trkpt lat="41.609231773567586" lon="14.246855659349183"><ele>463.6666666666667</ele><time>2026-04-25T05:01:20Z</time></trkpt><trkpt lat="41.60917014930762" lon="14.24693522348639"><ele>463.33333333333337</ele><time>2026-04-25T05:01:23Z</time></trkpt><trkpt lat="41.60911727024853" lon="14.246986907173909"><ele>463.0</ele><time>2026-04-25T05:01:25Z</time></trkpt><trkpt lat="41.60905962922695" lon="14.247077578349636"><ele>463.00000000000006</ele><time>2026-04-25T05:01:28Z</time></trkpt><trkpt lat="41.609007041526375" lon="14.247146043237871"><ele>463.0</ele><time>2026-04-25T05:01:31Z</time></trkpt><trkpt lat="41.60897583995127" lon="14.247223734816648"><ele>463.0</ele><time>2026-04-25T05:01:33Z</time></trkpt><trkpt lat="41.6089114035695" lon="14.247297304908479"><ele>463.0</ele><time>2026-04-25T05:01:36Z</time></trkpt><trkpt lat="41.608855046872854" lon="14.247401969073326"><ele>463.00000000000006</ele><time>2026-04-25T05:01:39Z</time></trkpt><trkpt lat="41.60879877561858" lon="14.247492093805782"><ele>463.0</ele><time>2026-04-25T05:01:42Z</time></trkpt><trkpt lat="41.60876151828787" lon="14.247590900843164"><ele>462.83333333333337</ele><time>2026-04-25T05:01:45Z</time></trkpt><trkpt lat="41.608703337862536" lon="14.247683607819626"><ele>462.6666666666667</ele><time>2026-04-25T05:01:48Z</time></trkpt><trkpt lat="41.60864389370252" lon="14.247773515693819"><ele>462.5</ele><time>2026-04-25T05:01:51Z</time></trkpt><trkpt lat="41.60859552807664" lon="14.247858284178484"><ele>462.33333333333337</ele><time>2026-04-25T05:01:54Z</time></trkpt><trkpt lat="41.6085486597196" lon="14.24794793073334"><ele>462.1666666666667</ele><time>2026-04-25T05:01:57Z</time></trkpt><trkpt lat="41.60848704013642" lon="14.248013445317984"><ele>462.0</ele><time>2026-04-25T05:02:00Z</time></trkpt><trkpt lat="41.60840367614838" lon="14.247976267441485"><ele>462.0</ele><time>2026-04-25T05:02:03Z</time></trkpt><trkpt lat="41.60835669609976" lon="14.247915973701968"><ele>462.0</ele><time>2026-04-25T05:02:05Z</time></trkpt><trkpt lat="41.60828626065124" lon="14.247836168860923"><ele>462.0</ele><time>2026-04-25T05:02:08Z</time></trkpt><trkpt lat="41.608213877920335" lon="14.247780039704661"><ele>462.0</ele><time>2026-04-25T05:02:11Z</time></trkpt><trkpt lat="41.60814213880828" lon="14.247706714349333"><ele>462.0</ele><time>2026-04-25T05:02:14Z</time></trkpt><trkpt lat="41.608067053591064" lon="14.247642153564396"><ele>462.0</ele><time>2026-04-25T05:02:17Z</time></trkpt><trkpt lat="41.60799025309903" lon="14.247598698326595"><ele>462.0</ele><time>2026-04-25T05:02:20Z</time></trkpt><trkpt lat="41.60789995636987" lon="14.247565404430595"><ele>462.0</ele><time>2026-04-25T05:02:23Z</time></trkpt><trkpt lat="41.60782510702232" lon="14.247528283581136"><ele>462.0</ele><time>2026-04-25T05:02:26Z</time></trkpt><trkpt lat="41.60775284543688" lon="14.247459469330872"><ele>462.0</ele><time>2026-04-25T05:02:29Z</time></trkpt><trkpt lat="41.60769173284719" lon="14.24739917452829"><ele>462.0</ele><time>2026-04-25T05:02:31Z</time></trkpt><trkpt lat="41.607632936771374" lon="14.247328438164075"><ele>462.0</ele><time>2026-04-25T05:02:34Z</time></trkpt><trkpt lat="41.607567119118336" lon="14.247253422274653"><ele>462.0</ele><time>2026-04-25T05:02:37Z</time></trkpt><trkpt lat="41.60750782535841" lon="14.247163601881573"><ele>462.0</ele><time>2026-04-25T05:02:40Z</time></trkpt><trkpt lat="41.60743929229253" lon="14.247101351449297"><ele>462.0</ele><time>2026-04-25T05:02:43Z</time></trkpt><trkpt lat="41.607379906140395" lon="14.247058024134265"><ele>462.0</ele><time>2026-04-25T05:02:45Z</time></trkpt><trkpt lat="41.60729999811155" lon="14.247006287201405"><ele>462.0</ele><time>2026-04-25T05:02:48Z</time></trkpt><trkpt lat="41.607234126162815" lon="14.246954951646266"><ele>462.0</ele><time>2026-04-25T05:02:51Z</time></trkpt><trkpt lat="41.607148661144436" lon="14.246923110441323"><ele>462.0</ele><time>2026-04-25T05:02:54Z</time></trkpt><trkpt lat="41.60707914796351" lon="14.246931024387305"><ele>462.0</ele><time>2026-04-25T05:02:56Z</time></trkpt><trkpt lat="41.60700872225217" lon="14.246888586981047"><ele>462.0</ele><time>2026-04-25T05:02:59Z</time></trkpt><trkpt lat="41.60692099354411" lon="14.24687299194599"><ele>462.0</ele><time>2026-04-25T05:03:02Z</time></trkpt><trkpt lat="41.60686362726459" lon="14.24683600806552"><ele>462.0</ele><time>2026-04-25T05:03:05Z</time></trkpt><trkpt lat="41.606794804914976" lon="14.246765947342805"><ele>462.0</ele><time>2026-04-25T05:03:08Z</time></trkpt><trkpt lat="41.606751766621024" lon="14.246701908612804"><ele>462.0</ele><time>2026-04-25T05:03:10Z</time></trkpt><trkpt lat="41.606686708763796" lon="14.246616975453136"><ele>462.0</ele><time>2026-04-25T05:03:13Z</time></trkpt><trkpt lat="41.606628405063496" lon="14.246542435117362"><ele>462.0</ele><time>2026-04-25T05:03:16Z</time></trkpt><trkpt lat="41.60657241467726" lon="14.246486035510223"><ele>462.0</ele><time>2026-04-25T05:03:18Z</time></trkpt><trkpt lat="41.60654198398433" lon="14.246403445904715"><ele>462.0</ele><time>2026-04-25T05:03:20Z</time></trkpt><trkpt lat="41.606478640900185" lon="14.246325211280853"><ele>462.0</ele><time>2026-04-25T05:03:23Z</time></trkpt><trkpt lat="41.60643149229612" lon="14.246225688906105"><ele>462.1666666666667</ele><time>2026-04-25T05:03:27Z</time></trkpt><trkpt lat="41.606369961836656" lon="14.246155101186412"><ele>462.33333333333337</ele><time>2026-04-25T05:03:30Z</time></trkpt><trkpt lat="41.60634146000409" lon="14.24607945889742"><ele>462.5</ele><time>2026-04-25T05:03:32Z</time></trkpt><trkpt lat="41.606297498792685" lon="14.245995496945943"><ele>462.6666666666667</ele><time>2026-04-25T05:03:35Z</time></trkpt><trkpt lat="41.606241539167776" lon="14.245915762090634"><ele>462.83333333333337</ele><time>2026-04-25T05:03:38Z</time></trkpt><trkpt lat="41.606182546433615" lon="14.24581843573927"><ele>463.0</ele><time>2026-04-25T05:03:41Z</time></trkpt><trkpt lat="41.60613721390389" lon="14.245733342990295"><ele>463.00000000000006</ele><time>2026-04-25T05:03:44Z</time></trkpt><trkpt lat="41.606078779196324" lon="14.245649297041199"><ele>463.0</ele><time>2026-04-25T05:03:47Z</time></trkpt><trkpt lat="41.60603354141145" lon="14.245556438897028"><ele>463.0</ele><time>2026-04-25T05:03:50Z</time></trkpt><trkpt lat="41.60598521146155" lon="14.245474534643698"><ele>463.0</ele><time>2026-04-25T05:03:53Z</time></trkpt><trkpt lat="41.60593126128395" lon="14.245426810256518"><ele>463.00000000000006</ele><time>2026-04-25T05:03:55Z</time></trkpt><trkpt lat="41.60586096769083" lon="14.245354067324739"><ele>463.0</ele><time>2026-04-25T05:03:58Z</time></trkpt><trkpt lat="41.60578645584403" lon="14.245291398517091"><ele>462.83333333333337</ele><time>2026-04-25T05:04:01Z</time></trkpt><trkpt lat="41.60571490268127" lon="14.245240258149531"><ele>462.6666666666667</ele><time>2026-04-25T05:04:04Z</time></trkpt><trkpt lat="41.60564679576053" lon="14.24517444150679"><ele>462.5</ele><time>2026-04-25T05:04:07Z</time></trkpt><trkpt lat="41.605587139431414" lon="14.245088733397603"><ele>462.33333333333337</ele><time>2026-04-25T05:04:10Z</time></trkpt><trkpt lat="41.605539240944296" lon="14.244981160561112"><ele>462.1666666666667</ele><time>2026-04-25T05:04:13Z</time></trkpt><trkpt lat="41.605506773711554" lon="14.24490600803173"><ele>462.0</ele><time>2026-04-25T05:04:15Z</time></trkpt><trkpt lat="41.60546000543806" lon="14.244803627607425"><ele>461.8333333333333</ele><time>2026-04-25T05:04:18Z</time></trkpt><trkpt lat="41.60543756677317" lon="14.244719700198663"><ele>461.66666666666663</ele><time>2026-04-25T05:04:20Z</time></trkpt><trkpt lat="41.60538534902907" lon="14.244629901620014"><ele>461.5</ele><time>2026-04-25T05:04:23Z</time></trkpt><trkpt lat="41.60533449739455" lon="14.244550423605084"><ele>461.3333333333333</ele><time>2026-04-25T05:04:26Z</time></trkpt><trkpt lat="41.60529283728326" lon="14.244455667478016"><ele>461.16666666666663</ele><time>2026-04-25T05:04:29Z</time></trkpt><trkpt lat="41.60524349393009" lon="14.244362387841587"><ele>461.0</ele><time>2026-04-25T05:04:32Z</time></trkpt><trkpt lat="41.605205293356846" lon="14.244263395382047"><ele>461.0</ele><time>2026-04-25T05:04:35Z</time></trkpt><trkpt lat="41.60517864002292" lon="14.244185489435033"><ele>461.00000000000006</ele><time>2026-04-25T05:04:37Z</time></trkpt><trkpt lat="41.605134247524454" lon="14.244094839763328"><ele>461.0</ele><time>2026-04-25T05:04:40Z</time></trkpt><trkpt lat="41.605087546960775" lon="14.24402590741196"><ele>461.0</ele><time>2026-04-25T05:04:42Z</time></trkpt><trkpt lat="41.605036984778685" lon="14.243972817246283"><ele>461.00000000000006</ele><time>2026-04-25T05:04:44Z</time></trkpt><trkpt lat="41.60496264351201" lon="14.243916509766954"><ele>461.0</ele><time>2026-04-25T05:04:47Z</time></trkpt><trkpt lat="41.604898877943874" lon="14.243872291437027"><ele>461.0</ele><time>2026-04-25T05:04:49Z</time></trkpt><trkpt lat="41.60482714673011" lon="14.243805420311455"><ele>460.99999999999994</ele><time>2026-04-25T05:04:52Z</time></trkpt><trkpt lat="41.60475917099248" lon="14.243725899694555"><ele>461.0</ele><time>2026-04-25T05:04:55Z</time></trkpt><trkpt lat="41.60469976753522" lon="14.243635988722295"><ele>461.0</ele><time>2026-04-25T05:04:58Z</time></trkpt><trkpt lat="41.60463826902396" lon="14.243555595768926"><ele>461.0</ele><time>2026-04-25T05:05:01Z</time></trkpt><trkpt lat="41.60458734465526" lon="14.243453400929416"><ele>460.99999999999994</ele><time>2026-04-25T05:05:04Z</time></trkpt><trkpt lat="41.60455200429707" lon="14.243352548157773"><ele>461.0</ele><time>2026-04-25T05:05:07Z</time></trkpt><trkpt lat="41.604511081820135" lon="14.243252473288644"><ele>461.16666666666663</ele><time>2026-04-25T05:05:10Z</time></trkpt><trkpt lat="41.604442744665384" lon="14.243169574061241"><ele>461.3333333333333</ele><time>2026-04-25T05:05:13Z</time></trkpt><trkpt lat="41.60437550177302" lon="14.24309924397441"><ele>461.5</ele><time>2026-04-25T05:05:16Z</time></trkpt><trkpt lat="41.604306114983046" lon="14.243023636226095"><ele>461.66666666666663</ele><time>2026-04-25T05:05:19Z</time></trkpt><trkpt lat="41.6042539275825" lon="14.242937401826845"><ele>461.8333333333333</ele><time>2026-04-25T05:05:22Z</time></trkpt><trkpt lat="41.60421478395619" lon="14.242831519738528"><ele>462.0</ele><time>2026-04-25T05:05:25Z</time></trkpt><trkpt lat="41.6041694942442" lon="14.242740850218691"><ele>462.3333333333333</ele><time>2026-04-25T05:05:28Z</time></trkpt><trkpt lat="41.60411140109471" lon="14.242648530091955"><ele>462.66666666666663</ele><time>2026-04-25T05:05:31Z</time></trkpt><trkpt lat="41.60404427419901" lon="14.242587097626394"><ele>463.0</ele><time>2026-04-25T05:05:34Z</time></trkpt><trkpt lat="41.603999718960324" lon="14.242520537807748"><ele>463.3333333333333</ele><time>2026-04-25T05:05:36Z</time></trkpt><trkpt lat="41.603941167863105" lon="14.242451048232423"><ele>463.66666666666663</ele><time>2026-04-25T05:05:39Z</time></trkpt><trkpt lat="41.60389497406998" lon="14.242393713023395"><ele>464.0</ele><time>2026-04-25T05:05:41Z</time></trkpt><trkpt lat="41.60383379229305" lon="14.24233424629431"><ele>463.66666666666663</ele><time>2026-04-25T05:05:44Z</time></trkpt><trkpt lat="41.603762023174234" lon="14.242262702359179"><ele>463.3333333333333</ele><time>2026-04-25T05:05:47Z</time></trkpt><trkpt lat="41.603679293415546" lon="14.242278920962157"><ele>463.0</ele><time>2026-04-25T05:05:50Z</time></trkpt><trkpt lat="41.60361420110174" lon="14.242346406027643"><ele>462.66666666666663</ele><time>2026-04-25T05:05:53Z</time></trkpt><trkpt lat="41.60355504069212" lon="14.242439862206751"><ele>462.3333333333333</ele><time>2026-04-25T05:05:56Z</time></trkpt><trkpt lat="41.603492178797836" lon="14.24251121970463"><ele>462.0</ele><time>2026-04-25T05:05:59Z</time></trkpt><trkpt lat="41.60340055406724" lon="14.242547760267902"><ele>462.0</ele><time>2026-04-25T05:06:02Z</time></trkpt><trkpt lat="41.60333760640847" lon="14.242550373882903"><ele>462.0</ele><time>2026-04-25T05:06:04Z</time></trkpt><trkpt lat="41.60327290498544" lon="14.242574792561248"><ele>462.0</ele><time>2026-04-25T05:06:06Z</time></trkpt><trkpt lat="41.60320637571617" lon="14.242550575724648"><ele>462.0</ele><time>2026-04-25T05:06:08Z</time></trkpt><trkpt lat="41.60314029622662" lon="14.242598400671412"><ele>462.0</ele><time>2026-04-25T05:06:11Z</time></trkpt><trkpt lat="41.60308933979156" lon="14.242651286975413"><ele>462.0</ele><time>2026-04-25T05:06:13Z</time></trkpt><trkpt lat="41.60302475654599" lon="14.242685414028859"><ele>462.0</ele><time>2026-04-25T05:06:16Z</time></trkpt><trkpt lat="41.60295477226593" lon="14.242734786517484"><ele>462.0</ele><time>2026-04-25T05:06:19Z</time></trkpt><trkpt lat="41.602869801585356" lon="14.242782678142907"><ele>462.00000000000006</ele><time>2026-04-25T05:06:22Z</time></trkpt><trkpt lat="41.60278944891435" lon="14.242833252335343"><ele>462.00000000000006</ele><time>2026-04-25T05:06:25Z</time></trkpt><trkpt lat="41.60271017699718" lon="14.24288656147277"><ele>462.0</ele><time>2026-04-25T05:06:28Z</time></trkpt><trkpt lat="41.60262911672485" lon="14.242937224303713"><ele>462.0</ele><time>2026-04-25T05:06:31Z</time></trkpt><trkpt lat="41.60254953075566" lon="14.243004185391133"><ele>462.0</ele><time>2026-04-25T05:06:34Z</time></trkpt><trkpt lat="41.602471445350524" lon="14.243060604002446"><ele>462.0</ele><time>2026-04-25T05:06:37Z</time></trkpt><trkpt lat="41.6024180735544" lon="14.243118586870928"><ele>462.0</ele><time>2026-04-25T05:06:39Z</time></trkpt><trkpt lat="41.60235271338087" lon="14.243205437046162"><ele>462.0</ele><time>2026-04-25T05:06:42Z</time></trkpt><trkpt lat="41.602319956081054" lon="14.243316346098434"><ele>462.0</ele><time>2026-04-25T05:06:45Z</time></trkpt><trkpt lat="41.60229897098869" lon="14.243432960500746"><ele>462.0</ele><time>2026-04-25T05:06:48Z</time></trkpt><trkpt lat="41.602285722144934" lon="14.243558886660889"><ele>462.0</ele><time>2026-04-25T05:06:52Z</time></trkpt><trkpt lat="41.60227121975862" lon="14.243651293469211"><ele>462.0</ele><time>2026-04-25T05:06:55Z</time></trkpt><trkpt lat="41.60226886447666" lon="14.243770736921228"><ele>462.0</ele><time>2026-04-25T05:06:58Z</time></trkpt><trkpt lat="41.6022720167622" lon="14.24385756037406"><ele>462.0</ele><time>2026-04-25T05:07:00Z</time></trkpt><trkpt lat="41.60227547169952" lon="14.24395302079834"><ele>462.0</ele><time>2026-04-25T05:07:03Z</time></trkpt><trkpt lat="41.602281647111674" lon="14.244054541922171"><ele>462.0</ele><time>2026-04-25T05:07:06Z</time></trkpt><trkpt lat="41.60228776848667" lon="14.244146957777447"><ele>462.0</ele><time>2026-04-25T05:07:08Z</time></trkpt><trkpt lat="41.6022812207114" lon="14.244237149108475"><ele>461.8571428571429</ele><time>2026-04-25T05:07:10Z</time></trkpt><trkpt lat="41.60228217589332" lon="14.244350624370831"><ele>461.7142857142857</ele><time>2026-04-25T05:07:13Z</time></trkpt><trkpt lat="41.602288181623884" lon="14.244450292313461"><ele>461.57142857142856</ele><time>2026-04-25T05:07:16Z</time></trkpt><trkpt lat="41.60230613950269" lon="14.244535960151994"><ele>461.42857142857144</ele><time>2026-04-25T05:07:19Z</time></trkpt><trkpt lat="41.60230541330434" lon="14.244621161412885"><ele>461.28571428571433</ele><time>2026-04-25T05:07:22Z</time></trkpt><trkpt lat="41.60231603672155" lon="14.244705844038327"><ele>461.14285714285717</ele><time>2026-04-25T05:07:24Z</time></trkpt><trkpt lat="41.602322694260664" lon="14.244824770478393"><ele>461.0</ele><time>2026-04-25T05:07:26Z</time></trkpt><trkpt lat="41.60231907005747" lon="14.24492612291233"><ele>461.49999999999994</ele><time>2026-04-25T05:07:28Z</time></trkpt><trkpt lat="41.60230929890651" lon="14.245029035003109"><ele>462.0</ele><time>2026-04-25T05:07:30Z</time></trkpt><trkpt lat="41.60229177397446" lon="14.245121943579356"><ele>462.5</ele><time>2026-04-25T05:07:32Z</time></trkpt><trkpt lat="41.602278447900886" lon="14.245207512930193"><ele>463.0</ele><time>2026-04-25T05:07:34Z</time></trkpt><trkpt lat="41.60225734297782" lon="14.245293290015985"><ele>463.49999999999994</ele><time>2026-04-25T05:07:36Z</time></trkpt><trkpt lat="41.6022289543565" lon="14.245413323342294"><ele>464.0</ele><time>2026-04-25T05:07:39Z</time></trkpt><trkpt lat="41.60218915096966" lon="14.245522817035665"><ele>463.99999999999994</ele><time>2026-04-25T05:07:42Z</time></trkpt><trkpt lat="41.60215065944435" lon="14.24561440866541"><ele>464.0</ele><time>2026-04-25T05:07:45Z</time></trkpt><trkpt lat="41.602125164720654" lon="14.24572693776555"><ele>464.0</ele><time>2026-04-25T05:07:48Z</time></trkpt><trkpt lat="41.602123453835155" lon="14.24585305053273"><ele>464.0</ele><time>2026-04-25T05:07:51Z</time></trkpt><trkpt lat="41.602132154388066" lon="14.245969619829054"><ele>463.99999999999994</ele><time>2026-04-25T05:07:54Z</time></trkpt><trkpt lat="41.60213907215582" lon="14.246064989713927"><ele>464.0</ele><time>2026-04-25T05:07:56Z</time></trkpt><trkpt lat="41.60217379669376" lon="14.246173644563031"><ele>463.66666666666663</ele><time>2026-04-25T05:07:59Z</time></trkpt><trkpt lat="41.602215570269394" lon="14.246264512418785"><ele>463.3333333333333</ele><time>2026-04-25T05:08:02Z</time></trkpt><trkpt lat="41.60225234629472" lon="14.2463750299086"><ele>463.0</ele><time>2026-04-25T05:08:05Z</time></trkpt><trkpt lat="41.60230079586753" lon="14.246466135193089"><ele>462.66666666666663</ele><time>2026-04-25T05:08:08Z</time></trkpt><trkpt lat="41.60234749660049" lon="14.246569115346803"><ele>462.3333333333333</ele><time>2026-04-25T05:08:11Z</time></trkpt><trkpt lat="41.60239719236276" lon="14.246666857071764"><ele>462.0</ele><time>2026-04-25T05:08:14Z</time></trkpt><trkpt lat="41.602441698545626" lon="14.246759714986354"><ele>462.1666666666667</ele><time>2026-04-25T05:08:17Z</time></trkpt><trkpt lat="41.60249438383832" lon="14.246851787761681"><ele>462.33333333333337</ele><time>2026-04-25T05:08:20Z</time></trkpt><trkpt lat="41.6025456773724" lon="14.246950912717937"><ele>462.5</ele><time>2026-04-25T05:08:23Z</time></trkpt><trkpt lat="41.60258915299618" lon="14.247050238941119"><ele>462.6666666666667</ele><time>2026-04-25T05:08:26Z</time></trkpt><trkpt lat="41.60262961067561" lon="14.24714913882515"><ele>462.83333333333337</ele><time>2026-04-25T05:08:29Z</time></trkpt><trkpt lat="41.602658238573156" lon="14.247262394793538"><ele>463.0</ele><time>2026-04-25T05:08:32Z</time></trkpt><trkpt lat="41.60269404302762" lon="14.247363746849642"><ele>463.00000000000006</ele><time>2026-04-25T05:08:35Z</time></trkpt><trkpt lat="41.60272659516211" lon="14.247465740233261"><ele>463.0</ele><time>2026-04-25T05:08:38Z</time></trkpt><trkpt lat="41.60276004801006" lon="14.24756206227288"><ele>463.0</ele><time>2026-04-25T05:08:41Z</time></trkpt><trkpt lat="41.60279848143031" lon="14.247668873440446"><ele>463.0</ele><time>2026-04-25T05:08:44Z</time></trkpt><trkpt lat="41.60286772086313" lon="14.247748728142653"><ele>463.00000000000006</ele><time>2026-04-25T05:08:47Z</time></trkpt><trkpt lat="41.60292126668418" lon="14.247793059425582"><ele>463.0</ele><time>2026-04-25T05:08:49Z</time></trkpt><trkpt lat="41.6030103703061" lon="14.247822755071523"><ele>462.6666666666667</ele><time>2026-04-25T05:08:52Z</time></trkpt><trkpt lat="41.603099732916796" lon="14.247837343405193"><ele>462.33333333333337</ele><time>2026-04-25T05:08:55Z</time></trkpt><trkpt lat="41.60318860082493" lon="14.247853160600018"><ele>462.0</ele><time>2026-04-25T05:08:58Z</time></trkpt><trkpt lat="41.6032729069123" lon="14.247880016617186"><ele>461.66666666666663</ele><time>2026-04-25T05:09:01Z</time></trkpt><trkpt lat="41.603355245009205" lon="14.247913885611927"><ele>461.3333333333333</ele><time>2026-04-25T05:09:04Z</time></trkpt><trkpt lat="41.60341801130423" lon="14.247988308191006"><ele>461.0</ele><time>2026-04-25T05:09:07Z</time></trkpt><trkpt lat="41.60349298376725" lon="14.2480388653768"><ele>460.99999999999994</ele><time>2026-04-25T05:09:10Z</time></trkpt><trkpt lat="41.60357147864004" lon="14.248096267316402"><ele>461.0</ele><time>2026-04-25T05:09:13Z</time></trkpt><trkpt lat="41.60363420866504" lon="14.248160188105429"><ele>461.0</ele><time>2026-04-25T05:09:16Z</time></trkpt><trkpt lat="41.60369803724941" lon="14.248231014669837"><ele>461.0</ele><time>2026-04-25T05:09:19Z</time></trkpt><trkpt lat="41.60376307978923" lon="14.248320402799285"><ele>460.99999999999994</ele><time>2026-04-25T05:09:22Z</time></trkpt><trkpt lat="41.603822841807826" lon="14.248386556379723"><ele>461.0</ele><time>2026-04-25T05:09:25Z</time></trkpt><trkpt lat="41.60388815094375" lon="14.248466096086187"><ele>461.16666666666663</ele><time>2026-04-25T05:09:28Z</time></trkpt><trkpt lat="41.60395001482596" lon="14.24854061676743"><ele>461.3333333333333</ele><time>2026-04-25T05:09:31Z</time></trkpt><trkpt lat="41.60400540839345" lon="14.248621158532771"><ele>461.5</ele><time>2026-04-25T05:09:34Z</time></trkpt><trkpt lat="41.604048132532576" lon="14.248720977711464"><ele>461.66666666666663</ele><time>2026-04-25T05:09:37Z</time></trkpt><trkpt lat="41.60406788460471" lon="14.248832333862197"><ele>461.8333333333333</ele><time>2026-04-25T05:09:40Z</time></trkpt><trkpt lat="41.60409764396" lon="14.248934275219877"><ele>462.0</ele><time>2026-04-25T05:09:43Z</time></trkpt><trkpt lat="41.60412847615445" lon="14.249038651893239"><ele>462.3333333333333</ele><time>2026-04-25T05:09:46Z</time></trkpt><trkpt lat="41.604155134953054" lon="14.249132176433697"><ele>462.66666666666663</ele><time>2026-04-25T05:09:49Z</time></trkpt><trkpt lat="41.60417825068205" lon="14.249215947195783"><ele>463.0</ele><time>2026-04-25T05:09:51Z</time></trkpt><trkpt lat="41.604212537605235" lon="14.249313570530632"><ele>463.3333333333333</ele><time>2026-04-25T05:09:54Z</time></trkpt><trkpt lat="41.60424754582187" lon="14.249423347004637"><ele>463.66666666666663</ele><time>2026-04-25T05:09:57Z</time></trkpt><trkpt lat="41.60427998918154" lon="14.249528969328596"><ele>464.0</ele><time>2026-04-25T05:10:00Z</time></trkpt><trkpt lat="41.604322194214014" lon="14.24963024399857"><ele>463.99999999999994</ele><time>2026-04-25T05:10:03Z</time></trkpt><trkpt lat="41.60435467480233" lon="14.24973366924372"><ele>464.0</ele><time>2026-04-25T05:10:06Z</time></trkpt><trkpt lat="41.604397915150614" lon="14.249827755325496"><ele>464.0</ele><time>2026-04-25T05:10:09Z</time></trkpt><trkpt lat="41.604452327303385" lon="14.249922354333929"><ele>464.0</ele><time>2026-04-25T05:10:12Z</time></trkpt><trkpt lat="41.604505219565254" lon="14.250002607590966"><ele>463.99999999999994</ele><time>2026-04-25T05:10:15Z</time></trkpt><trkpt lat="41.60456049811468" lon="14.250089271369154"><ele>464.0</ele><time>2026-04-25T05:10:18Z</time></trkpt><trkpt lat="41.60462126014765" lon="14.250167711536958"><ele>463.49999999999994</ele><time>2026-04-25T05:10:21Z</time></trkpt><trkpt lat="41.60468940060965" lon="14.250245903897861"><ele>463.0</ele><time>2026-04-25T05:10:24Z</time></trkpt><trkpt lat="41.60475618605414" lon="14.250314099345184"><ele>462.5</ele><time>2026-04-25T05:10:27Z</time></trkpt><trkpt lat="41.60483245961162" lon="14.25036384468206"><ele>462.0</ele><time>2026-04-25T05:10:30Z</time></trkpt><trkpt lat="41.60492284524368" lon="14.250372724498646"><ele>461.49999999999994</ele><time>2026-04-25T05:10:33Z</time></trkpt><trkpt lat="41.60500998365863" lon="14.250381102953074"><ele>461.0</ele><time>2026-04-25T05:10:36Z</time></trkpt><trkpt lat="41.60509319351682" lon="14.250351050633029"><ele>460.99999999999994</ele><time>2026-04-25T05:10:39Z</time></trkpt><trkpt lat="41.60517719237992" lon="14.250313018720796"><ele>461.0</ele><time>2026-04-25T05:10:42Z</time></trkpt><trkpt lat="41.60526099638175" lon="14.25028099450494"><ele>461.0</ele><time>2026-04-25T05:10:45Z</time></trkpt><trkpt lat="41.60533632048947" lon="14.250245038385044"><ele>461.0</ele><time>2026-04-25T05:10:48Z</time></trkpt><trkpt lat="41.605417702793915" lon="14.25020914520089"><ele>460.99999999999994</ele><time>2026-04-25T05:10:51Z</time></trkpt><trkpt lat="41.60550523447562" lon="14.250177944655288"><ele>461.0</ele><time>2026-04-25T05:10:54Z</time></trkpt><trkpt lat="41.60558420480933" lon="14.250125452612155"><ele>461.16666666666663</ele><time>2026-04-25T05:10:57Z</time></trkpt><trkpt lat="41.60565813659533" lon="14.250081384235152"><ele>461.3333333333333</ele><time>2026-04-25T05:11:00Z</time></trkpt><trkpt lat="41.6057446152014" lon="14.250057822430179"><ele>461.5</ele><time>2026-04-25T05:11:03Z</time></trkpt><trkpt lat="41.60582142828965" lon="14.25001230201175"><ele>461.66666666666663</ele><time>2026-04-25T05:11:06Z</time></trkpt><trkpt lat="41.60590500655002" lon="14.249995106046814"><ele>461.8333333333333</ele><time>2026-04-25T05:11:09Z</time></trkpt><trkpt lat="41.60598658509194" lon="14.250004959822727"><ele>462.0</ele><time>2026-04-25T05:11:12Z</time></trkpt><trkpt lat="41.606062955425124" lon="14.250040405902567"><ele>462.0</ele><time>2026-04-25T05:11:15Z</time></trkpt><trkpt lat="41.60612044053771" lon="14.250084279633743"><ele>462.0</ele><time>2026-04-25T05:11:17Z</time></trkpt><trkpt lat="41.606178482918835" lon="14.250154152217606"><ele>462.0</ele><time>2026-04-25T05:11:20Z</time></trkpt><trkpt lat="41.60620739340928" lon="14.250266198167234"><ele>462.0</ele><time>2026-04-25T05:11:23Z</time></trkpt><trkpt lat="41.60625630982613" lon="14.2503611049598"><ele>462.0</ele><time>2026-04-25T05:11:26Z</time></trkpt><trkpt lat="41.60628976599638" lon="14.250467715621427"><ele>462.0</ele><time>2026-04-25T05:11:29Z</time></trkpt><trkpt lat="41.60632738240532" lon="14.250563460431238"><ele>462.0</ele><time>2026-04-25T05:11:32Z</time></trkpt><trkpt lat="41.60635905297004" lon="14.250672814559374"><ele>462.0</ele><time>2026-04-25T05:11:35Z</time></trkpt><trkpt lat="41.60638666913639" lon="14.25076575885164"><ele>462.0</ele><time>2026-04-25T05:11:38Z</time></trkpt><trkpt lat="41.606404968250146" lon="14.250887175861541"><ele>462.0</ele><time>2026-04-25T05:11:41Z</time></trkpt><trkpt lat="41.60642101242968" lon="14.25100845643493"><ele>462.0</ele><time>2026-04-25T05:11:44Z</time></trkpt><trkpt lat="41.60644023502657" lon="14.251122649162038"><ele>462.0</ele><time>2026-04-25T05:11:47Z</time></trkpt><trkpt lat="41.6064675952697" lon="14.251217051021095"><ele>462.0</ele><time>2026-04-25T05:11:50Z</time></trkpt><trkpt lat="41.6064835556447" lon="14.25130206979107"><ele>462.0</ele><time>2026-04-25T05:11:52Z</time></trkpt><trkpt lat="41.60651253651209" lon="14.251406990153631"><ele>462.0</ele><time>2026-04-25T05:11:55Z</time></trkpt><trkpt lat="41.606536213461524" lon="14.251520481357936"><ele>462.0</ele><time>2026-04-25T05:11:58Z</time></trkpt><trkpt lat="41.60654740157742" lon="14.251642604669119"><ele>462.0</ele><time>2026-04-25T05:12:01Z</time></trkpt><trkpt lat="41.60657266688705" lon="14.251746633145647"><ele>462.0</ele><time>2026-04-25T05:12:04Z</time></trkpt><trkpt lat="41.60659073226486" lon="14.251853992777187"><ele>462.1666666666667</ele><time>2026-04-25T05:12:07Z</time></trkpt><trkpt lat="41.60660840613162" lon="14.251939372074471"><ele>462.33333333333337</ele><time>2026-04-25T05:12:09Z</time></trkpt><trkpt lat="41.60663085933581" lon="14.25203687876459"><ele>462.5</ele><time>2026-04-25T05:12:12Z</time></trkpt><trkpt lat="41.60668196445553" lon="14.252122885961015"><ele>462.6666666666667</ele><time>2026-04-25T05:12:15Z</time></trkpt><trkpt lat="41.606734106444705" lon="14.25222379316188"><ele>462.83333333333337</ele><time>2026-04-25T05:12:18Z</time></trkpt><trkpt lat="41.60679380543382" lon="14.252302351335524"><ele>463.0</ele><time>2026-04-25T05:12:21Z</time></trkpt><trkpt lat="41.6068420916947" lon="14.25240010201567"><ele>462.83333333333337</ele><time>2026-04-25T05:12:24Z</time></trkpt><trkpt lat="41.60689291456289" lon="14.25248315095481"><ele>462.6666666666667</ele><time>2026-04-25T05:12:27Z</time></trkpt><trkpt lat="41.606955746890975" lon="14.252570263283257"><ele>462.5</ele><time>2026-04-25T05:12:30Z</time></trkpt><trkpt lat="41.60701422721365" lon="14.252654863261704"><ele>462.33333333333337</ele><time>2026-04-25T05:12:33Z</time></trkpt><trkpt lat="41.60706497554548" lon="14.25275210136789"><ele>462.1666666666667</ele><time>2026-04-25T05:12:36Z</time></trkpt><trkpt lat="41.60710917619302" lon="14.252830500274221"><ele>462.0</ele><time>2026-04-25T05:12:39Z</time></trkpt><trkpt lat="41.607153299892516" lon="14.252932641933334"><ele>462.0</ele><time>2026-04-25T05:12:42Z</time></trkpt><trkpt lat="41.607190829648566" lon="14.253038045163786"><ele>462.0</ele><time>2026-04-25T05:12:45Z</time></trkpt><trkpt lat="41.607241425771164" lon="14.253131270773723"><ele>462.0</ele><time>2026-04-25T05:12:48Z</time></trkpt><trkpt lat="41.60728701295923" lon="14.25323319570616"><ele>462.0</ele><time>2026-04-25T05:12:51Z</time></trkpt><trkpt lat="41.607348308995526" lon="14.25331105589426"><ele>462.0</ele><time>2026-04-25T05:12:54Z</time></trkpt><trkpt lat="41.607379120476914" lon="14.253387617771347"><ele>462.0</ele><time>2026-04-25T05:12:56Z</time></trkpt><trkpt lat="41.60742105204975" lon="14.25348986542478"><ele>462.6666666666667</ele><time>2026-04-25T05:12:59Z</time></trkpt><trkpt lat="41.60745898528262" lon="14.253581199924328"><ele>463.33333333333337</ele><time>2026-04-25T05:13:02Z</time></trkpt><trkpt lat="41.60750635709477" lon="14.253684260290242"><ele>464.0</ele><time>2026-04-25T05:13:05Z</time></trkpt><trkpt lat="41.6075539226956" lon="14.25378249509806"><ele>464.6666666666667</ele><time>2026-04-25T05:13:08Z</time></trkpt><trkpt lat="41.60761978230619" lon="14.253860517292326"><ele>465.33333333333337</ele><time>2026-04-25T05:13:11Z</time></trkpt><trkpt lat="41.60767281259478" lon="14.253944985633783"><ele>466.0</ele><time>2026-04-25T05:13:14Z</time></trkpt><trkpt lat="41.60770139376303" lon="14.254021503421761"><ele>466.50000000000006</ele><time>2026-04-25T05:13:16Z</time></trkpt><trkpt lat="41.60774403270558" lon="14.254105085393766"><ele>467.0</ele><time>2026-04-25T05:13:19Z</time></trkpt><trkpt lat="41.60776187472558" lon="14.254191933617244"><ele>467.5</ele><time>2026-04-25T05:13:21Z</time></trkpt><trkpt lat="41.607771346351235" lon="14.254300792661564"><ele>468.0</ele><time>2026-04-25T05:13:24Z</time></trkpt><trkpt lat="41.60781072927081" lon="14.25441431782664"><ele>468.50000000000006</ele><time>2026-04-25T05:13:27Z</time></trkpt><trkpt lat="41.60782360744926" lon="14.254522869057114"><ele>469.0</ele><time>2026-04-25T05:13:30Z</time></trkpt><trkpt lat="41.60783889584095" lon="14.254640097594665"><ele>469.00000000000006</ele><time>2026-04-25T05:13:33Z</time></trkpt><trkpt lat="41.60786813163486" lon="14.254758837230955"><ele>469.0</ele><time>2026-04-25T05:13:36Z</time></trkpt><trkpt lat="41.607874646754176" lon="14.254873493896996"><ele>469.0</ele><time>2026-04-25T05:13:39Z</time></trkpt><trkpt lat="41.60789273019106" lon="14.254988229071895"><ele>469.0</ele><time>2026-04-25T05:13:42Z</time></trkpt><trkpt lat="41.60790658435054" lon="14.255102709153718"><ele>469.00000000000006</ele><time>2026-04-25T05:13:45Z</time></trkpt><trkpt lat="41.607928893766854" lon="14.255216298053892"><ele>469.0</ele><time>2026-04-25T05:13:48Z</time></trkpt><trkpt lat="41.60793883426605" lon="14.255299486919748"><ele>469.50000000000006</ele><time>2026-04-25T05:13:50Z</time></trkpt><trkpt lat="41.60796037199796" lon="14.25540498070728"><ele>470.0</ele><time>2026-04-25T05:13:53Z</time></trkpt><trkpt lat="41.60798330034916" lon="14.25552052823153"><ele>470.5</ele><time>2026-04-25T05:13:56Z</time></trkpt><trkpt lat="41.60804928398597" lon="14.255584753696395"><ele>471.0</ele><time>2026-04-25T05:13:59Z</time></trkpt><trkpt lat="41.608110655532286" lon="14.255616580201753"><ele>471.50000000000006</ele><time>2026-04-25T05:14:01Z</time></trkpt><trkpt lat="41.608203490877756" lon="14.25562527688281"><ele>472.0</ele><time>2026-04-25T05:14:04Z</time></trkpt><trkpt lat="41.60827428622631" lon="14.25557568179201"><ele>472.00000000000006</ele><time>2026-04-25T05:14:07Z</time></trkpt><trkpt lat="41.60836386168058" lon="14.25555725423187"><ele>472.0</ele><time>2026-04-25T05:14:10Z</time></trkpt><trkpt lat="41.608446945801845" lon="14.25552053444515"><ele>472.0</ele><time>2026-04-25T05:14:13Z</time></trkpt><trkpt lat="41.60851966020836" lon="14.255465815859994"><ele>472.0</ele><time>2026-04-25T05:14:16Z</time></trkpt><trkpt lat="41.608582253176564" lon="14.25543951685188"><ele>472.00000000000006</ele><time>2026-04-25T05:14:18Z</time></trkpt><trkpt lat="41.60864387325951" lon="14.255403835458917"><ele>472.0</ele><time>2026-04-25T05:14:20Z</time></trkpt><trkpt lat="41.60871805471562" lon="14.25536833312944"><ele>472.00000000000006</ele><time>2026-04-25T05:14:23Z</time></trkpt><trkpt lat="41.60877723764276" lon="14.255318128565495"><ele>472.0</ele><time>2026-04-25T05:14:26Z</time></trkpt><trkpt lat="41.60886406684461" lon="14.255284816961446"><ele>472.0</ele><time>2026-04-25T05:14:29Z</time></trkpt><trkpt lat="41.60890598760589" lon="14.255216430079743"><ele>472.0</ele><time>2026-04-25T05:14:31Z</time></trkpt><trkpt lat="41.60898083811311" lon="14.255151231105625"><ele>472.00000000000006</ele><time>2026-04-25T05:14:34Z</time></trkpt><trkpt lat="41.60905700068609" lon="14.255094864161405"><ele>472.0</ele><time>2026-04-25T05:14:37Z</time></trkpt><trkpt lat="41.60913354182895" lon="14.255055103525216"><ele>472.0</ele><time>2026-04-25T05:14:40Z</time></trkpt><trkpt lat="41.609200828252334" lon="14.255042871947808"><ele>472.0</ele><time>2026-04-25T05:14:42Z</time></trkpt><trkpt lat="41.609277907156994" lon="14.25499907460184"><ele>472.0</ele><time>2026-04-25T05:14:45Z</time></trkpt><trkpt lat="41.60936644637869" lon="14.254968791349564"><ele>472.0</ele><time>2026-04-25T05:14:48Z</time></trkpt><trkpt lat="41.609436921780286" lon="14.254943428193645"><ele>472.0</ele><time>2026-04-25T05:14:51Z</time></trkpt><trkpt lat="41.609494891452215" lon="14.254903358084656"><ele>472.0</ele><time>2026-04-25T05:14:53Z</time></trkpt><trkpt lat="41.60955746283905" lon="14.254884047973487"><ele>472.0</ele><time>2026-04-25T05:14:55Z</time></trkpt><trkpt lat="41.60962216665249" lon="14.254836468805653"><ele>471.1666666666667</ele><time>2026-04-25T05:14:58Z</time></trkpt><trkpt lat="41.60970628450838" lon="14.254780465434635"><ele>470.33333333333337</ele><time>2026-04-25T05:15:01Z</time></trkpt><trkpt lat="41.60977708955705" lon="14.254721081743117"><ele>469.5</ele><time>2026-04-25T05:15:04Z</time></trkpt><trkpt lat="41.60986059620759" lon="14.254656259715208"><ele>468.66666666666663</ele><time>2026-04-25T05:15:07Z</time></trkpt><trkpt lat="41.6099361290475" lon="14.254617663943524"><ele>467.8333333333333</ele><time>2026-04-25T05:15:10Z</time></trkpt><trkpt lat="41.61001471690064" lon="14.254565922403762"><ele>467.0</ele><time>2026-04-25T05:15:13Z</time></trkpt><trkpt lat="41.610106772614415" lon="14.254521392564017"><ele>466.99999999999994</ele><time>2026-04-25T05:15:16Z</time></trkpt><trkpt lat="41.610177740690226" lon="14.254458585754987"><ele>467.0</ele><time>2026-04-25T05:15:19Z</time></trkpt><trkpt lat="41.61024312409652" lon="14.254401827266202"><ele>467.0</ele><time>2026-04-25T05:15:22Z</time></trkpt><trkpt lat="41.61030832663587" lon="14.254382087488109"><ele>467.0</ele><time>2026-04-25T05:15:24Z</time></trkpt><trkpt lat="41.61039271158934" lon="14.254345633201712"><ele>466.99999999999994</ele><time>2026-04-25T05:15:27Z</time></trkpt><trkpt lat="41.61046797069316" lon="14.254347890881922"><ele>467.0</ele><time>2026-04-25T05:15:30Z</time></trkpt><trkpt lat="41.6105340191391" lon="14.25439670653028"><ele>466.8333333333333</ele><time>2026-04-25T05:15:33Z</time></trkpt><trkpt lat="41.610598969199614" lon="14.254475629739863"><ele>466.66666666666663</ele><time>2026-04-25T05:15:36Z</time></trkpt><trkpt lat="41.61063439064403" lon="14.254549131708908"><ele>466.5</ele><time>2026-04-25T05:15:38Z</time></trkpt><trkpt lat="41.61068285710345" lon="14.25464124596031"><ele>466.33333333333337</ele><time>2026-04-25T05:15:41Z</time></trkpt><trkpt lat="41.610736087061696" lon="14.254742124941265"><ele>466.1666666666667</ele><time>2026-04-25T05:15:44Z</time></trkpt><trkpt lat="41.6107811179673" lon="14.254841100034799"><ele>466.0</ele><time>2026-04-25T05:15:47Z</time></trkpt><trkpt lat="41.61082994579448" lon="14.254926061619344"><ele>466.50000000000006</ele><time>2026-04-25T05:15:50Z</time></trkpt><trkpt lat="41.61086995316781" lon="14.254999150091813"><ele>467.0</ele><time>2026-04-25T05:15:52Z</time></trkpt><trkpt lat="41.610940280421595" lon="14.255076139162643"><ele>467.5</ele><time>2026-04-25T05:15:55Z</time></trkpt><trkpt lat="41.61101679900796" lon="14.255131896269274"><ele>468.0</ele><time>2026-04-25T05:15:58Z</time></trkpt><trkpt lat="41.61109425819865" lon="14.255131855759144"><ele>468.50000000000006</ele><time>2026-04-25T05:16:01Z</time></trkpt><trkpt lat="41.61117088260605" lon="14.255078355659705"><ele>469.0</ele><time>2026-04-25T05:16:04Z</time></trkpt><trkpt lat="41.61124523163915" lon="14.255014694473946"><ele>468.6666666666667</ele><time>2026-04-25T05:16:07Z</time></trkpt><trkpt lat="41.61131216185636" lon="14.254950617567658"><ele>468.33333333333337</ele><time>2026-04-25T05:16:10Z</time></trkpt><trkpt lat="41.611371304895584" lon="14.25488460313219"><ele>468.0</ele><time>2026-04-25T05:16:13Z</time></trkpt><trkpt lat="41.61143941426091" lon="14.254826346638522"><ele>467.66666666666663</ele><time>2026-04-25T05:16:16Z</time></trkpt><trkpt lat="41.61150926448764" lon="14.254761584284743"><ele>467.3333333333333</ele><time>2026-04-25T05:16:19Z</time></trkpt><trkpt lat="41.611565380701116" lon="14.254719209174304"><ele>467.0</ele><time>2026-04-25T05:16:21Z</time></trkpt><trkpt lat="41.611638275861836" lon="14.254659566385284"><ele>466.99999999999994</ele><time>2026-04-25T05:16:24Z</time></trkpt><trkpt lat="41.61170457302569" lon="14.254610318497779"><ele>467.0</ele><time>2026-04-25T05:16:27Z</time></trkpt><trkpt lat="41.611780925957746" lon="14.254587950127384"><ele>466.99999999999994</ele><time>2026-04-25T05:16:29Z</time></trkpt><trkpt lat="41.61182862605056" lon="14.254529597855733"><ele>466.99999999999994</ele><time>2026-04-25T05:16:31Z</time></trkpt><trkpt lat="41.61190836186447" lon="14.25451749960012"><ele>467.0</ele><time>2026-04-25T05:16:34Z</time></trkpt><trkpt lat="41.611971588437186" lon="14.254519235815506"><ele>466.99999999999994</ele><time>2026-04-25T05:16:36Z</time></trkpt><trkpt lat="41.61205620853776" lon="14.254534893185163"><ele>466.99999999999994</ele><time>2026-04-25T05:16:39Z</time></trkpt><trkpt lat="41.61214564552279" lon="14.25452446961748"><ele>466.99999999999994</ele><time>2026-04-25T05:16:42Z</time></trkpt><trkpt lat="41.6122353846549" lon="14.254510253554582"><ele>467.0</ele><time>2026-04-25T05:16:45Z</time></trkpt><trkpt lat="41.612324907525775" lon="14.254488128722315"><ele>467.0</ele><time>2026-04-25T05:16:48Z</time></trkpt><trkpt lat="41.612409881669414" lon="14.254525679075225"><ele>467.0</ele><time>2026-04-25T05:16:51Z</time></trkpt><trkpt lat="41.61249132245672" lon="14.254505257205958"><ele>466.99999999999994</ele><time>2026-04-25T05:16:54Z</time></trkpt><trkpt lat="41.61257645072581" lon="14.254545701414358"><ele>467.0</ele><time>2026-04-25T05:16:57Z</time></trkpt><trkpt lat="41.612656162109054" lon="14.254578802450363"><ele>466.99999999999994</ele><time>2026-04-25T05:17:00Z</time></trkpt><trkpt lat="41.6127377418884" lon="14.254612258048144"><ele>467.0</ele><time>2026-04-25T05:17:03Z</time></trkpt><trkpt lat="41.612811461855145" lon="14.254641429627569"><ele>467.0</ele><time>2026-04-25T05:17:06Z</time></trkpt><trkpt lat="41.61290091396539" lon="14.25467539907457"><ele>467.0</ele><time>2026-04-25T05:17:09Z</time></trkpt><trkpt lat="41.61298351157376" lon="14.254687874740965"><ele>466.99999999999994</ele><time>2026-04-25T05:17:12Z</time></trkpt><trkpt lat="41.61304982958112" lon="14.254715096911347"><ele>467.0</ele><time>2026-04-25T05:17:14Z</time></trkpt><trkpt lat="41.61311789358301" lon="14.254722276859978"><ele>466.3333333333333</ele><time>2026-04-25T05:17:16Z</time></trkpt><trkpt lat="41.6131840382436" lon="14.254744841899583"><ele>465.66666666666663</ele><time>2026-04-25T05:17:18Z</time></trkpt><trkpt lat="41.613265621505576" lon="14.254771916360786"><ele>465.0</ele><time>2026-04-25T05:17:21Z</time></trkpt><trkpt lat="41.61336572782132" lon="14.25479957810333"><ele>464.33333333333337</ele><time>2026-04-25T05:17:24Z</time></trkpt><trkpt lat="41.61344512918243" lon="14.254835063163585"><ele>463.6666666666667</ele><time>2026-04-25T05:17:27Z</time></trkpt><trkpt lat="41.613524711716614" lon="14.254893977587443"><ele>463.0</ele><time>2026-04-25T05:17:30Z</time></trkpt><trkpt lat="41.61359711613538" lon="14.254900155323943"><ele>463.1428571428571</ele><time>2026-04-25T05:17:33Z</time></trkpt><trkpt lat="41.61367247396654" lon="14.25490943985635"><ele>463.2857142857142</ele><time>2026-04-25T05:17:36Z</time></trkpt><trkpt lat="41.61373542155633" lon="14.254881395510719"><ele>463.42857142857144</ele><time>2026-04-25T05:17:38Z</time></trkpt><trkpt lat="41.6137954872115" lon="14.254830364446148"><ele>463.57142857142856</ele><time>2026-04-25T05:17:40Z</time></trkpt><trkpt lat="41.613835880054054" lon="14.25473911591392"><ele>463.7142857142857</ele><time>2026-04-25T05:17:43Z</time></trkpt><trkpt lat="41.613843077274396" lon="14.254637820115821"><ele>463.8571428571429</ele><time>2026-04-25T05:17:46Z</time></trkpt><trkpt lat="41.61379508887505" lon="14.254578839990304"><ele>464.00000000000006</ele><time>2026-04-25T05:17:48Z</time></trkpt><trkpt lat="41.61372595539085" lon="14.25451510346409"><ele>464.16666666666663</ele><time>2026-04-25T05:17:51Z</time></trkpt><trkpt lat="41.61366255982618" lon="14.254439873038743"><ele>464.3333333333333</ele><time>2026-04-25T05:17:54Z</time></trkpt><trkpt lat="41.61360698290575" lon="14.254393637789512"><ele>464.5</ele><time>2026-04-25T05:17:56Z</time></trkpt><trkpt lat="41.61354350214577" lon="14.254326054309574"><ele>464.66666666666663</ele><time>2026-04-25T05:17:59Z</time></trkpt><trkpt lat="41.61349422119633" lon="14.254233697886697"><ele>464.8333333333333</ele><time>2026-04-25T05:18:02Z</time></trkpt><trkpt lat="41.61346849294107" lon="14.254129599679088"><ele>465.0</ele><time>2026-04-25T05:18:05Z</time></trkpt><trkpt lat="41.61342505025064" lon="14.254030558193792"><ele>464.6666666666667</ele><time>2026-04-25T05:18:08Z</time></trkpt><trkpt lat="41.613400807989656" lon="14.253918423588594"><ele>464.33333333333337</ele><time>2026-04-25T05:18:11Z</time></trkpt><trkpt lat="41.61336948108375" lon="14.253812088239078"><ele>464.0</ele><time>2026-04-25T05:18:14Z</time></trkpt><trkpt lat="41.61334353940589" lon="14.253697450353203"><ele>463.6666666666667</ele><time>2026-04-25T05:18:17Z</time></trkpt><trkpt lat="41.61331487929949" lon="14.253587338233128"><ele>463.33333333333337</ele><time>2026-04-25T05:18:20Z</time></trkpt><trkpt lat="41.61326877071889" lon="14.253482288694427"><ele>463.0</ele><time>2026-04-25T05:18:23Z</time></trkpt><trkpt lat="41.613216251244594" lon="14.253390227709021"><ele>463.00000000000006</ele><time>2026-04-25T05:18:26Z</time></trkpt><trkpt lat="41.6131590804552" lon="14.253294445244181"><ele>463.0</ele><time>2026-04-25T05:18:29Z</time></trkpt><trkpt lat="41.613123677760456" lon="14.253187348248623"><ele>463.0</ele><time>2026-04-25T05:18:32Z</time></trkpt><trkpt lat="41.613082680857026" lon="14.253093593505039"><ele>463.0</ele><time>2026-04-25T05:18:35Z</time></trkpt><trkpt lat="41.6130454203262" lon="14.25298710027022"><ele>463.00000000000006</ele><time>2026-04-25T05:18:38Z</time></trkpt><trkpt lat="41.61302551088855" lon="14.252870794814518"><ele>463.0</ele><time>2026-04-25T05:18:41Z</time></trkpt><trkpt lat="41.61301878185902" lon="14.25278281572393"><ele>463.1666666666667</ele><time>2026-04-25T05:18:43Z</time></trkpt><trkpt lat="41.61298742654579" lon="14.252685105606949"><ele>463.33333333333337</ele><time>2026-04-25T05:18:46Z</time></trkpt><trkpt lat="41.612960668435655" lon="14.252570040967527"><ele>463.5</ele><time>2026-04-25T05:18:49Z</time></trkpt><trkpt lat="41.61292968866415" lon="14.252463345297695"><ele>463.66666666666663</ele><time>2026-04-25T05:18:52Z</time></trkpt><trkpt lat="41.61291370800763" lon="14.252352046142661"><ele>463.8333333333333</ele><time>2026-04-25T05:18:55Z</time></trkpt><trkpt lat="41.61288932492826" lon="14.252238544387877"><ele>464.0</ele><time>2026-04-25T05:18:58Z</time></trkpt><trkpt lat="41.612850747653944" lon="14.252130494254722"><ele>463.99999999999994</ele><time>2026-04-25T05:19:01Z</time></trkpt><trkpt lat="41.61283211168372" lon="14.252020505891243"><ele>464.0</ele><time>2026-04-25T05:19:04Z</time></trkpt><trkpt lat="41.61281754952814" lon="14.251907573880082"><ele>464.0</ele><time>2026-04-25T05:19:07Z</time></trkpt><trkpt lat="41.61278039743412" lon="14.251794946155172"><ele>464.0</ele><time>2026-04-25T05:19:10Z</time></trkpt><trkpt lat="41.612760452864975" lon="14.251715061034561"><ele>463.99999999999994</ele><time>2026-04-25T05:19:12Z</time></trkpt><trkpt lat="41.61269883722041" lon="14.25162046892905"><ele>464.0</ele><time>2026-04-25T05:19:15Z</time></trkpt><trkpt lat="41.612656563604865" lon="14.251533391039633"><ele>463.66666666666663</ele><time>2026-04-25T05:19:18Z</time></trkpt><trkpt lat="41.61261214023735" lon="14.251430400960043"><ele>463.3333333333333</ele><time>2026-04-25T05:19:21Z</time></trkpt><trkpt lat="41.61257833633102" lon="14.25133804988984"><ele>463.0</ele><time>2026-04-25T05:19:24Z</time></trkpt><trkpt lat="41.61253506064341" lon="14.251235896728689"><ele>462.66666666666663</ele><time>2026-04-25T05:19:27Z</time></trkpt><trkpt lat="41.61248560344671" lon="14.251141931593624"><ele>462.3333333333333</ele><time>2026-04-25T05:19:30Z</time></trkpt><trkpt lat="41.61243851692851" lon="14.251048573242175"><ele>462.0</ele><time>2026-04-25T05:19:33Z</time></trkpt><trkpt lat="41.612382882865965" lon="14.250964436461466"><ele>462.0</ele><time>2026-04-25T05:19:36Z</time></trkpt><trkpt lat="41.6123235171897" lon="14.250883703622378"><ele>462.0</ele><time>2026-04-25T05:19:39Z</time></trkpt><trkpt lat="41.61226558521361" lon="14.250801408606028"><ele>462.0</ele><time>2026-04-25T05:19:42Z</time></trkpt><trkpt lat="41.61221160717711" lon="14.250710748244254"><ele>462.0</ele><time>2026-04-25T05:19:45Z</time></trkpt><trkpt lat="41.612167706002936" lon="14.25064961256397"><ele>462.0</ele><time>2026-04-25T05:19:47Z</time></trkpt><trkpt lat="41.61209317187429" lon="14.250595106234801"><ele>462.0</ele><time>2026-04-25T05:19:50Z</time></trkpt><trkpt lat="41.61200897677386" lon="14.250567453744452"><ele>462.3333333333333</ele><time>2026-04-25T05:19:53Z</time></trkpt><trkpt lat="41.6119268033241" lon="14.250531206529446"><ele>462.66666666666663</ele><time>2026-04-25T05:19:56Z</time></trkpt><trkpt lat="41.61184559770091" lon="14.250493922184889"><ele>463.0</ele><time>2026-04-25T05:19:59Z</time></trkpt><trkpt lat="41.61176221079378" lon="14.25044848281687"><ele>463.3333333333333</ele><time>2026-04-25T05:20:02Z</time></trkpt><trkpt lat="41.611679216556695" lon="14.250390979907298"><ele>463.66666666666663</ele><time>2026-04-25T05:20:05Z</time></trkpt><trkpt lat="41.61161366474214" lon="14.250334403978965"><ele>464.0</ele><time>2026-04-25T05:20:08Z</time></trkpt><trkpt lat="41.61155366566213" lon="14.250256321739386"><ele>463.99999999999994</ele><time>2026-04-25T05:20:11Z</time></trkpt><trkpt lat="41.6115229840924" lon="14.250163880662091"><ele>464.0</ele><time>2026-04-25T05:20:14Z</time></trkpt><trkpt lat="41.61149290357835" lon="14.250045404332095"><ele>464.0</ele><time>2026-04-25T05:20:17Z</time></trkpt><trkpt lat="41.61147497014466" lon="14.249927769707645"><ele>464.0</ele><time>2026-04-25T05:20:20Z</time></trkpt><trkpt lat="41.61143918769582" lon="14.249823979148587"><ele>463.99999999999994</ele><time>2026-04-25T05:20:23Z</time></trkpt><trkpt lat="41.61140927496954" lon="14.24973162753444"><ele>464.0</ele><time>2026-04-25T05:20:26Z</time></trkpt><trkpt lat="41.611465537962985" lon="14.249645295587412"><ele>463.8333333333333</ele><time>2026-04-25T05:20:30Z</time></trkpt><trkpt lat="41.611510635873074" lon="14.249584675482655"><ele>463.66666666666663</ele><time>2026-04-25T05:20:32Z</time></trkpt><trkpt lat="41.61155904957158" lon="14.249494849446164"><ele>463.5</ele><time>2026-04-25T05:20:35Z</time></trkpt><trkpt lat="41.61159263186143" lon="14.249392458183744"><ele>463.33333333333337</ele><time>2026-04-25T05:20:38Z</time></trkpt><trkpt lat="41.61162475628075" lon="14.249288794125503"><ele>463.1666666666667</ele><time>2026-04-25T05:20:41Z</time></trkpt><trkpt lat="41.611661168843085" lon="14.249181027569119"><ele>463.0</ele><time>2026-04-25T05:20:44Z</time></trkpt><trkpt lat="41.61168880043724" lon="14.249076562628405"><ele>463.00000000000006</ele><time>2026-04-25T05:20:47Z</time></trkpt><trkpt lat="41.61174014589959" lon="14.248983309016268"><ele>463.0</ele><time>2026-04-25T05:20:50Z</time></trkpt><trkpt lat="41.611784132516924" lon="14.248878778459668"><ele>463.0</ele><time>2026-04-25T05:20:53Z</time></trkpt><trkpt lat="41.61183505963089" lon="14.248791550622538"><ele>463.0</ele><time>2026-04-25T05:20:56Z</time></trkpt><trkpt lat="41.611891215653614" lon="14.248704985582146"><ele>463.00000000000006</ele><time>2026-04-25T05:20:59Z</time></trkpt><trkpt lat="41.61193762589888" lon="14.248614515572697"><ele>463.0</ele><time>2026-04-25T05:21:02Z</time></trkpt><trkpt lat="41.612002052542486" lon="14.24852464807628"><ele>463.1666666666667</ele><time>2026-04-25T05:21:05Z</time></trkpt><trkpt lat="41.612037874640635" lon="14.248455103625993"><ele>463.33333333333337</ele><time>2026-04-25T05:21:07Z</time></trkpt><trkpt lat="41.61210150501637" lon="14.248375337544223"><ele>463.5</ele><time>2026-04-25T05:21:10Z</time></trkpt><trkpt lat="41.61215617943688" lon="14.248284496862972"><ele>463.66666666666663</ele><time>2026-04-25T05:21:13Z</time></trkpt><trkpt lat="41.61223150845767" lon="14.2482281766648"><ele>463.8333333333333</ele><time>2026-04-25T05:21:16Z</time></trkpt><trkpt lat="41.61232142147477" lon="14.2482583525328"><ele>464.0</ele><time>2026-04-25T05:21:19Z</time></trkpt><trkpt lat="41.61239021693906" lon="14.248311048758579"><ele>463.99999999999994</ele><time>2026-04-25T05:21:22Z</time></trkpt><trkpt lat="41.61246872997925" lon="14.248364394142946"><ele>464.0</ele><time>2026-04-25T05:21:25Z</time></trkpt><trkpt lat="41.61254612969775" lon="14.248397708263006"><ele>464.0</ele><time>2026-04-25T05:21:28Z</time></trkpt><trkpt lat="41.61263135751292" lon="14.248422661634343"><ele>464.0</ele><time>2026-04-25T05:21:31Z</time></trkpt><trkpt lat="41.612711500038635" lon="14.248447706807154"><ele>463.99999999999994</ele><time>2026-04-25T05:21:34Z</time></trkpt><trkpt lat="41.6127869131482" lon="14.248520616099867"><ele>464.0</ele><time>2026-04-25T05:21:37Z</time></trkpt><trkpt lat="41.61282524380157" lon="14.24858756296188"><ele>463.66666666666663</ele><time>2026-04-25T05:21:39Z</time></trkpt><trkpt lat="41.612901456836795" lon="14.24863689175834"><ele>463.3333333333333</ele><time>2026-04-25T05:21:42Z</time></trkpt><trkpt lat="41.612968561788136" lon="14.24870338128071"><ele>463.0</ele><time>2026-04-25T05:21:45Z</time></trkpt><trkpt lat="41.613058982736696" lon="14.248716317679552"><ele>462.66666666666663</ele><time>2026-04-25T05:21:48Z</time></trkpt><trkpt lat="41.61313085864019" lon="14.248649371968666"><ele>462.3333333333333</ele><time>2026-04-25T05:21:51Z</time></trkpt><trkpt lat="41.61319136188535" lon="14.248567115633112"><ele>462.0</ele><time>2026-04-25T05:21:54Z</time></trkpt><trkpt lat="41.61325052844963" lon="14.248499245389798"><ele>462.0</ele><time>2026-04-25T05:21:57Z</time></trkpt><trkpt lat="41.61330026037824" lon="14.248445057984382"><ele>462.0</ele><time>2026-04-25T05:21:59Z</time></trkpt><trkpt lat="41.61336617374859" lon="14.248384051016453"><ele>462.0</ele><time>2026-04-25T05:22:02Z</time></trkpt><trkpt lat="41.61343829356781" lon="14.24831259628752"><ele>462.0</ele><time>2026-04-25T05:22:05Z</time></trkpt><trkpt lat="41.613504872146805" lon="14.248239485398495"><ele>462.0</ele><time>2026-04-25T05:22:08Z</time></trkpt><trkpt lat="41.61356907795466" lon="14.248175852646137"><ele>462.0</ele><time>2026-04-25T05:22:11Z</time></trkpt><trkpt lat="41.613619785544984" lon="14.24808773420031"><ele>462.0</ele><time>2026-04-25T05:22:14Z</time></trkpt><trkpt lat="41.613680035279174" lon="14.248045616002209"><ele>462.0</ele><time>2026-04-25T05:22:16Z</time></trkpt><trkpt lat="41.61374020896014" lon="14.247969423768472"><ele>462.0</ele><time>2026-04-25T05:22:19Z</time></trkpt><trkpt lat="41.613817859769846" lon="14.247904563071819"><ele>462.0</ele><time>2026-04-25T05:22:22Z</time></trkpt><trkpt lat="41.61388019025887" lon="14.247831043591882"><ele>462.0</ele><time>2026-04-25T05:22:25Z</time></trkpt><trkpt lat="41.613932121236566" lon="14.24778095326864"><ele>462.0</ele><time>2026-04-25T05:22:27Z</time></trkpt><trkpt lat="41.613992870361486" lon="14.247717129608262"><ele>462.0</ele><time>2026-04-25T05:22:30Z</time></trkpt><trkpt lat="41.61406139282196" lon="14.247636963634845"><ele>462.0</ele><time>2026-04-25T05:22:33Z</time></trkpt><trkpt lat="41.614120875344916" lon="14.24757327052364"><ele>462.0</ele><time>2026-04-25T05:22:36Z</time></trkpt><trkpt lat="41.61418738527618" lon="14.247501694830543"><ele>462.0</ele><time>2026-04-25T05:22:39Z</time></trkpt><trkpt lat="41.61423984675476" lon="14.247412628255315"><ele>462.0</ele><time>2026-04-25T05:22:42Z</time></trkpt><trkpt lat="41.614233088797214" lon="14.2472932691651"><ele>462.0</ele><time>2026-04-25T05:22:45Z</time></trkpt><trkpt lat="41.61420044992363" lon="14.247198829741274"><ele>462.0</ele><time>2026-04-25T05:22:48Z</time></trkpt><trkpt lat="41.61417309419793" lon="14.247122054931262"><ele>462.0</ele><time>2026-04-25T05:22:50Z</time></trkpt><trkpt lat="41.614145181285785" lon="14.247015448804914"><ele>462.0</ele><time>2026-04-25T05:22:53Z</time></trkpt><trkpt lat="41.61412689538331" lon="14.246911225074307"><ele>462.0</ele><time>2026-04-25T05:22:56Z</time></trkpt><trkpt lat="41.61411290373994" lon="14.24680026321111"><ele>462.0</ele><time>2026-04-25T05:22:59Z</time></trkpt><trkpt lat="41.61407722972141" lon="14.246688872450418"><ele>462.0</ele><time>2026-04-25T05:23:02Z</time></trkpt><trkpt lat="41.61402517292862" lon="14.24660550781321"><ele>462.0</ele><time>2026-04-25T05:23:05Z</time></trkpt><trkpt lat="41.614017455308876" lon="14.246521327396765"><ele>462.0</ele><time>2026-04-25T05:23:07Z</time></trkpt><trkpt lat="41.61398763499006" lon="14.246409770897035"><ele>462.0</ele><time>2026-04-25T05:23:10Z</time></trkpt><trkpt lat="41.613927427518334" lon="14.246330387630552"><ele>462.0</ele><time>2026-04-25T05:23:13Z</time></trkpt><trkpt lat="41.61384477851609" lon="14.246304181364632"><ele>462.0</ele><time>2026-04-25T05:23:16Z</time></trkpt><trkpt lat="41.61376450082273" lon="14.246260586662071"><ele>462.0</ele><time>2026-04-25T05:23:19Z</time></trkpt><trkpt lat="41.61370568058128" lon="14.246180196869972"><ele>462.3333333333333</ele><time>2026-04-25T05:23:22Z</time></trkpt><trkpt lat="41.6136671182499" lon="14.246073471367731"><ele>462.66666666666663</ele><time>2026-04-25T05:23:25Z</time></trkpt><trkpt lat="41.61361645350823" lon="14.245980105685744"><ele>463.0</ele><time>2026-04-25T05:23:28Z</time></trkpt><trkpt lat="41.613542601098736" lon="14.245945508832925"><ele>463.3333333333333</ele><time>2026-04-25T05:23:31Z</time></trkpt><trkpt lat="41.61346207253648" lon="14.245933459336852"><ele>463.66666666666663</ele><time>2026-04-25T05:23:34Z</time></trkpt><trkpt lat="41.61336917851809" lon="14.2459012838206"><ele>464.0</ele><time>2026-04-25T05:23:37Z</time></trkpt><trkpt lat="41.613293945461194" lon="14.245848912151375"><ele>463.99999999999994</ele><time>2026-04-25T05:23:40Z</time></trkpt><trkpt lat="41.61321981008348" lon="14.245797409974971"><ele>464.0</ele><time>2026-04-25T05:23:43Z</time></trkpt><trkpt lat="41.61315349804603" lon="14.245753020098496"><ele>464.0</ele><time>2026-04-25T05:23:46Z</time></trkpt><trkpt lat="41.613079680937346" lon="14.245691819168607"><ele>464.0</ele><time>2026-04-25T05:23:49Z</time></trkpt><trkpt lat="41.613016288176595" lon="14.245674204357742"><ele>463.99999999999994</ele><time>2026-04-25T05:23:51Z</time></trkpt><trkpt lat="41.61293675078677" lon="14.245638855523834"><ele>464.0</ele><time>2026-04-25T05:23:54Z</time></trkpt><trkpt lat="41.61285558171552" lon="14.245621724292565"><ele>463.99999999999994</ele><time>2026-04-25T05:23:57Z</time></trkpt><trkpt lat="41.612764160775335" lon="14.245610901961925"><ele>464.0</ele><time>2026-04-25T05:24:00Z</time></trkpt><trkpt lat="41.61268318697853" lon="14.245629849372452"><ele>464.0</ele><time>2026-04-25T05:24:03Z</time></trkpt><trkpt lat="41.6125976884336" lon="14.245655564117762"><ele>464.0</ele><time>2026-04-25T05:24:06Z</time></trkpt><trkpt lat="41.6125132751617" lon="14.24567604203888"><ele>463.99999999999994</ele><time>2026-04-25T05:24:09Z</time></trkpt><trkpt lat="41.612432535918074" lon="14.245689130050284"><ele>464.0</ele><time>2026-04-25T05:24:12Z</time></trkpt><trkpt lat="41.612364581780994" lon="14.245676090054527"><ele>463.99999999999994</ele><time>2026-04-25T05:24:14Z</time></trkpt><trkpt lat="41.61228299224984" lon="14.24565481023054"><ele>464.0</ele><time>2026-04-25T05:24:17Z</time></trkpt><trkpt lat="41.612199186977854" lon="14.245629889082016"><ele>464.0</ele><time>2026-04-25T05:24:20Z</time></trkpt><trkpt lat="41.6121216444657" lon="14.245617340746787"><ele>464.0</ele><time>2026-04-25T05:24:23Z</time></trkpt><trkpt lat="41.61205463931655" lon="14.245627671090732"><ele>463.99999999999994</ele><time>2026-04-25T05:24:25Z</time></trkpt><trkpt lat="41.611979879098236" lon="14.245655904414342"><ele>464.0</ele><time>2026-04-25T05:24:28Z</time></trkpt><trkpt lat="41.61189086059832" lon="14.24569598582438"><ele>463.99999999999994</ele><time>2026-04-25T05:24:31Z</time></trkpt><trkpt lat="41.61182081600881" lon="14.24571542953181"><ele>464.0</ele><time>2026-04-25T05:24:34Z</time></trkpt><trkpt lat="41.611738136192" lon="14.245734341564571"><ele>464.0</ele><time>2026-04-25T05:24:37Z</time></trkpt><trkpt lat="41.61167134029741" lon="14.24577293105821"><ele>464.0</ele><time>2026-04-25T05:24:40Z</time></trkpt><trkpt lat="41.61158142040645" lon="14.245810241387447"><ele>463.99999999999994</ele><time>2026-04-25T05:24:43Z</time></trkpt><trkpt lat="41.611509458372225" lon="14.245766627498345"><ele>464.0</ele><time>2026-04-25T05:24:46Z</time></trkpt><trkpt lat="41.61146627601307" lon="14.245697323597408"><ele>464.16666666666663</ele><time>2026-04-25T05:24:49Z</time></trkpt><trkpt lat="41.611429320785376" lon="14.245610610350845"><ele>464.3333333333333</ele><time>2026-04-25T05:24:52Z</time></trkpt><trkpt lat="41.611385200528396" lon="14.245516720412434"><ele>464.5</ele><time>2026-04-25T05:24:55Z</time></trkpt><trkpt lat="41.61133368397135" lon="14.24541896614161"><ele>464.66666666666663</ele><time>2026-04-25T05:24:58Z</time></trkpt><trkpt lat="41.61129857526553" lon="14.245312346349152"><ele>464.8333333333333</ele><time>2026-04-25T05:25:01Z</time></trkpt><trkpt lat="41.61125417446038" lon="14.245212607265936"><ele>465.0</ele><time>2026-04-25T05:25:04Z</time></trkpt><trkpt lat="41.611211694608" lon="14.245104310056789"><ele>465.0</ele><time>2026-04-25T05:25:07Z</time></trkpt><trkpt lat="41.61116403578752" lon="14.24501704176679"><ele>465.0</ele><time>2026-04-25T05:25:10Z</time></trkpt><trkpt lat="41.61109895620661" lon="14.244942076806414"><ele>465.0</ele><time>2026-04-25T05:25:13Z</time></trkpt><trkpt lat="41.61103771254334" lon="14.244974552816325"><ele>465.0</ele><time>2026-04-25T05:25:15Z</time></trkpt><trkpt lat="41.610961958393546" lon="14.2450379378442"><ele>465.0</ele><time>2026-04-25T05:25:18Z</time></trkpt><trkpt lat="41.610893132659086" lon="14.245106926496824"><ele>465.0</ele><time>2026-04-25T05:25:21Z</time></trkpt><trkpt lat="41.610820958597344" lon="14.245157452067067"><ele>464.8333333333333</ele><time>2026-04-25T05:25:24Z</time></trkpt><trkpt lat="41.61074426869434" lon="14.24522249019335"><ele>464.66666666666663</ele><time>2026-04-25T05:25:27Z</time></trkpt><trkpt lat="41.61066258433596" lon="14.245280209770717"><ele>464.5</ele><time>2026-04-25T05:25:30Z</time></trkpt><trkpt lat="41.610615003092505" lon="14.245362489283915"><ele>464.3333333333333</ele><time>2026-04-25T05:25:33Z</time></trkpt><trkpt lat="41.610546169347145" lon="14.245440795979393"><ele>464.16666666666663</ele><time>2026-04-25T05:25:36Z</time></trkpt><trkpt lat="41.610480616810726" lon="14.245520908481666"><ele>464.0</ele><time>2026-04-25T05:25:39Z</time></trkpt><trkpt lat="41.610414674731935" lon="14.245597663886377"><ele>464.16666666666663</ele><time>2026-04-25T05:25:42Z</time></trkpt><trkpt lat="41.61034612092891" lon="14.245665653745494"><ele>464.3333333333333</ele><time>2026-04-25T05:25:45Z</time></trkpt><trkpt lat="41.61028751091228" lon="14.245729870207512"><ele>464.5</ele><time>2026-04-25T05:25:48Z</time></trkpt><trkpt lat="41.61022564304518" lon="14.245818870720875"><ele>464.66666666666663</ele><time>2026-04-25T05:25:51Z</time></trkpt><trkpt lat="41.610147560787965" lon="14.245865380777063"><ele>464.8333333333333</ele><time>2026-04-25T05:25:54Z</time></trkpt><trkpt lat="41.61008364959497" lon="14.245924222297615"><ele>465.0</ele><time>2026-04-25T05:25:57Z</time></trkpt><trkpt lat="41.61000860590219" lon="14.24598272074283"><ele>465.0</ele><time>2026-04-25T05:26:00Z</time></trkpt><trkpt lat="41.60993428184245" lon="14.246007371121745"><ele>465.0</ele><time>2026-04-25T05:26:02Z</time></trkpt><trkpt lat="41.60987688238979" lon="14.246064217077366"><ele>465.0</ele><time>2026-04-25T05:26:05Z</time></trkpt><trkpt lat="41.609812256227585" lon="14.246134589103965"><ele>465.0</ele><time>2026-04-25T05:26:08Z</time></trkpt><trkpt lat="41.609748840508686" lon="14.246209042372474"><ele>465.0</ele><time>2026-04-25T05:26:11Z</time></trkpt><trkpt lat="41.609671921742134" lon="14.246279397549003"><ele>465.0</ele><time>2026-04-25T05:26:14Z</time></trkpt><trkpt lat="41.609611624651556" lon="14.246357621097452"><ele>465.0</ele><time>2026-04-25T05:26:17Z</time></trkpt><trkpt lat="41.60953779444869" lon="14.246427986718873"><ele>465.0</ele><time>2026-04-25T05:26:20Z</time></trkpt><trkpt lat="41.60946900587286" lon="14.24649360543096"><ele>465.0</ele><time>2026-04-25T05:26:23Z</time></trkpt><trkpt lat="41.60941099136834" lon="14.246573592697708"><ele>465.0</ele><time>2026-04-25T05:26:26Z</time></trkpt><trkpt lat="41.609356133490294" lon="14.246650602967332"><ele>465.0</ele><time>2026-04-25T05:26:29Z</time></trkpt><trkpt lat="41.609299633237114" lon="14.246728758991217"><ele>465.0</ele><time>2026-04-25T05:26:32Z</time></trkpt><trkpt lat="41.60924377845826" lon="14.246821240319305"><ele>464.6666666666667</ele><time>2026-04-25T05:26:35Z</time></trkpt><trkpt lat="41.6091833837132" lon="14.246892655274992"><ele>464.33333333333337</ele><time>2026-04-25T05:26:38Z</time></trkpt><trkpt lat="41.60912166621298" lon="14.24697076687453"><ele>464.0</ele><time>2026-04-25T05:26:41Z</time></trkpt><trkpt lat="41.60905849918475" lon="14.24704260593009"><ele>463.6666666666667</ele><time>2026-04-25T05:26:44Z</time></trkpt><trkpt lat="41.608997579999404" lon="14.247120869490518"><ele>463.33333333333337</ele><time>2026-04-25T05:26:47Z</time></trkpt><trkpt lat="41.60894298634471" lon="14.247208274430458"><ele>463.0</ele><time>2026-04-25T05:26:50Z</time></trkpt><trkpt lat="41.60889072985176" lon="14.247293438554797"><ele>462.83333333333337</ele><time>2026-04-25T05:26:53Z</time></trkpt><trkpt lat="41.60883701265552" lon="14.247388096552484"><ele>462.6666666666667</ele><time>2026-04-25T05:26:56Z</time></trkpt><trkpt lat="41.608783533262866" lon="14.247483672526544"><ele>462.5</ele><time>2026-04-25T05:26:59Z</time></trkpt><trkpt lat="41.6087291739208" lon="14.247573323206316"><ele>462.33333333333337</ele><time>2026-04-25T05:27:02Z</time></trkpt><trkpt lat="41.6086809994457" lon="14.24766294734769"><ele>462.1666666666667</ele><time>2026-04-25T05:27:05Z</time></trkpt><trkpt lat="41.60862928233812" lon="14.24774941178252"><ele>462.0</ele><time>2026-04-25T05:27:08Z</time></trkpt><trkpt lat="41.60858221730951" lon="14.247838877852281"><ele>462.0</ele><time>2026-04-25T05:27:11Z</time></trkpt><trkpt lat="41.60852647433921" lon="14.247922495080102"><ele>462.0</ele><time>2026-04-25T05:27:14Z</time></trkpt><trkpt lat="41.60846734103389" lon="14.247985628282963"><ele>462.0</ele><time>2026-04-25T05:27:17Z</time></trkpt><trkpt lat="41.60839604567175" lon="14.247946346106591"><ele>462.0</ele><time>2026-04-25T05:27:20Z</time></trkpt><trkpt lat="41.6083303900919" lon="14.24788854701418"><ele>462.0</ele><time>2026-04-25T05:27:23Z</time></trkpt><trkpt lat="41.608260130729256" lon="14.247829538614004"><ele>462.0</ele><time>2026-04-25T05:27:26Z</time></trkpt><trkpt lat="41.6082048559277" lon="14.247777179829221"><ele>462.0</ele><time>2026-04-25T05:27:28Z</time></trkpt><trkpt lat="41.60813905530046" lon="14.247716827044247"><ele>462.0</ele><time>2026-04-25T05:27:31Z</time></trkpt><trkpt lat="41.60806796416073" lon="14.247655665258405"><ele>462.0</ele><time>2026-04-25T05:27:34Z</time></trkpt><trkpt lat="41.60797927910269" lon="14.247630647092931"><ele>462.0</ele><time>2026-04-25T05:27:37Z</time></trkpt><trkpt lat="41.60789684206747" lon="14.247587264751099"><ele>462.0</ele><time>2026-04-25T05:27:40Z</time></trkpt><trkpt lat="41.60781895827136" lon="14.247528762415072"><ele>462.0</ele><time>2026-04-25T05:27:43Z</time></trkpt><trkpt lat="41.60775152775219" lon="14.247463159571874"><ele>462.0</ele><time>2026-04-25T05:27:46Z</time></trkpt><trkpt lat="41.60768305543459" lon="14.24739340822818"><ele>462.0</ele><time>2026-04-25T05:27:49Z</time></trkpt><trkpt lat="41.607616458442095" lon="14.247319768778395"><ele>462.0</ele><time>2026-04-25T05:27:52Z</time></trkpt><trkpt lat="41.60755641627062" lon="14.247250320714375"><ele>462.0</ele><time>2026-04-25T05:27:55Z</time></trkpt><trkpt lat="41.60749910066421" lon="14.247167484100203"><ele>462.0</ele><time>2026-04-25T05:27:58Z</time></trkpt><trkpt lat="41.60743808221522" lon="14.247092369591005"><ele>462.0</ele><time>2026-04-25T05:28:01Z</time></trkpt><trkpt lat="41.60736727195478" lon="14.24702695918024"><ele>462.0</ele><time>2026-04-25T05:28:04Z</time></trkpt><trkpt lat="41.60729296062866" lon="14.247046733504158"><ele>462.0</ele><time>2026-04-25T05:28:06Z</time></trkpt><trkpt lat="41.60721747096137" lon="14.24700955627841"><ele>462.0</ele><time>2026-04-25T05:28:09Z</time></trkpt><trkpt lat="41.607130397759306" lon="14.246979656532895"><ele>462.0</ele><time>2026-04-25T05:28:12Z</time></trkpt><trkpt lat="41.607039609646925" lon="14.246943964247125"><ele>462.0</ele><time>2026-04-25T05:28:15Z</time></trkpt><trkpt lat="41.60698199357161" lon="14.246895737894908"><ele>462.0</ele><time>2026-04-25T05:28:17Z</time></trkpt><trkpt lat="41.606905165358164" lon="14.246857554655001"><ele>462.0</ele><time>2026-04-25T05:28:20Z</time></trkpt><trkpt lat="41.606833857691456" lon="14.246802304652677"><ele>462.0</ele><time>2026-04-25T05:28:23Z</time></trkpt><trkpt lat="41.606759418133144" lon="14.246738185014316"><ele>462.0</ele><time>2026-04-25T05:28:26Z</time></trkpt><trkpt lat="41.60669703384746" lon="14.24668236813228"><ele>462.0</ele><time>2026-04-25T05:28:29Z</time></trkpt><trkpt lat="41.606645240040464" lon="14.246593566883"><ele>462.0</ele><time>2026-04-25T05:28:32Z</time></trkpt><trkpt lat="41.60660207526809" lon="14.246531406350714"><ele>462.0</ele><time>2026-04-25T05:28:34Z</time></trkpt><trkpt lat="41.606555184724165" lon="14.246431480725064"><ele>462.1666666666667</ele><time>2026-04-25T05:28:37Z</time></trkpt><trkpt lat="41.60650716997201" lon="14.246357636000825"><ele>462.33333333333337</ele><time>2026-04-25T05:28:40Z</time></trkpt><trkpt lat="41.60644988060597" lon="14.246275892400197"><ele>462.5</ele><time>2026-04-25T05:28:43Z</time></trkpt><trkpt lat="41.60639249222491" lon="14.24617963504408"><ele>462.6666666666667</ele><time>2026-04-25T05:28:46Z</time></trkpt><trkpt lat="41.60633836800961" lon="14.246092079221295"><ele>462.83333333333337</ele><time>2026-04-25T05:28:49Z</time></trkpt><trkpt lat="41.60629054753472" lon="14.246010821546546"><ele>463.0</ele><time>2026-04-25T05:28:52Z</time></trkpt><trkpt lat="41.60623914707337" lon="14.245910451426157"><ele>463.00000000000006</ele><time>2026-04-25T05:28:55Z</time></trkpt><trkpt lat="41.60617933735449" lon="14.245831529896627"><ele>463.0</ele><time>2026-04-25T05:28:58Z</time></trkpt><trkpt lat="41.606133492736014" lon="14.24574064728355"><ele>463.0</ele><time>2026-04-25T05:29:01Z</time></trkpt><trkpt lat="41.60608027074859" lon="14.245672976020625"><ele>463.0</ele><time>2026-04-25T05:29:04Z</time></trkpt><trkpt lat="41.606029996063754" lon="14.245590094660889"><ele>463.00000000000006</ele><time>2026-04-25T05:29:07Z</time></trkpt><trkpt lat="41.60597211398515" lon="14.245511779106334"><ele>463.0</ele><time>2026-04-25T05:29:10Z</time></trkpt><trkpt lat="41.605896251991844" lon="14.24544149978241"><ele>462.83333333333337</ele><time>2026-04-25T05:29:13Z</time></trkpt><trkpt lat="41.60582811720085" lon="14.245371078791917"><ele>462.6666666666667</ele><time>2026-04-25T05:29:16Z</time></trkpt><trkpt lat="41.60575630964198" lon="14.245319294973157"><ele>462.5</ele><time>2026-04-25T05:29:19Z</time></trkpt><trkpt lat="41.605703628198526" lon="14.245267612806776"><ele>462.33333333333337</ele><time>2026-04-25T05:29:21Z</time></trkpt><trkpt lat="41.605632203159516" lon="14.245195785416653"><ele>462.1666666666667</ele><time>2026-04-25T05:29:24Z</time></trkpt><trkpt lat="41.60558394759679" lon="14.245110245091977"><ele>462.0</ele><time>2026-04-25T05:29:27Z</time></trkpt><trkpt lat="41.605542403869606" lon="14.245006361223735"><ele>462.0</ele><time>2026-04-25T05:29:30Z</time></trkpt><trkpt lat="41.60550119036528" lon="14.244910598346776"><ele>462.0</ele><time>2026-04-25T05:29:33Z</time></trkpt><trkpt lat="41.60546985520161" lon="14.244816331667094"><ele>462.0</ele><time>2026-04-25T05:29:36Z</time></trkpt><trkpt lat="41.60542332012718" lon="14.24472754664416"><ele>462.0</ele><time>2026-04-25T05:29:39Z</time></trkpt><trkpt lat="41.60537566197098" lon="14.244642800129302"><ele>462.0</ele><time>2026-04-25T05:29:42Z</time></trkpt><trkpt lat="41.605322810831275" lon="14.244556765869415"><ele>462.0</ele><time>2026-04-25T05:29:45Z</time></trkpt><trkpt lat="41.605282048565236" lon="14.244462178740921"><ele>461.8333333333333</ele><time>2026-04-25T05:29:48Z</time></trkpt><trkpt lat="41.60524873155315" lon="14.24436417062104"><ele>461.66666666666663</ele><time>2026-04-25T05:29:51Z</time></trkpt><trkpt lat="41.60522549330393" lon="14.244278484648417"><ele>461.5</ele><time>2026-04-25T05:29:53Z</time></trkpt><trkpt lat="41.60517767035426" lon="14.2441728757115"><ele>461.3333333333333</ele><time>2026-04-25T05:29:56Z</time></trkpt><trkpt lat="41.60512531305269" lon="14.244077832105898"><ele>461.16666666666663</ele><time>2026-04-25T05:29:59Z</time></trkpt><trkpt lat="41.605076473824234" lon="14.244018576899064"><ele>461.0</ele><time>2026-04-25T05:30:01Z</time></trkpt><trkpt lat="41.60499959231964" lon="14.243953789171247"><ele>460.99999999999994</ele><time>2026-04-25T05:30:04Z</time></trkpt><trkpt lat="41.60492365897259" lon="14.243894505605288"><ele>461.0</ele><time>2026-04-25T05:30:07Z</time></trkpt><trkpt lat="41.60486785286727" lon="14.24381028133926"><ele>461.0</ele><time>2026-04-25T05:30:10Z</time></trkpt><trkpt lat="41.60480529142028" lon="14.243734486901428"><ele>461.0</ele><time>2026-04-25T05:30:13Z</time></trkpt><trkpt lat="41.60474978185436" lon="14.24368796537352"><ele>460.99999999999994</ele><time>2026-04-25T05:30:15Z</time></trkpt><trkpt lat="41.604684201375015" lon="14.243618446098843"><ele>461.0</ele><time>2026-04-25T05:30:18Z</time></trkpt><trkpt lat="41.604629625948455" lon="14.24357455575857"><ele>460.99999999999994</ele><time>2026-04-25T05:30:20Z</time></trkpt><trkpt lat="41.604584908525744" lon="14.243476077762164"><ele>461.0</ele><time>2026-04-25T05:30:23Z</time></trkpt><trkpt lat="41.604537324818466" lon="14.243380366671094"><ele>461.0</ele><time>2026-04-25T05:30:26Z</time></trkpt><trkpt lat="41.60449094896802" lon="14.2432807440645"><ele>461.0</ele><time>2026-04-25T05:30:29Z</time></trkpt><trkpt lat="41.604441345127896" lon="14.243201720344763"><ele>460.99999999999994</ele><time>2026-04-25T05:30:32Z</time></trkpt><trkpt lat="41.604376724420845" lon="14.243125775013512"><ele>461.0</ele><time>2026-04-25T05:30:35Z</time></trkpt><trkpt lat="41.60431894293387" lon="14.243050795592739"><ele>461.49999999999994</ele><time>2026-04-25T05:30:38Z</time></trkpt><trkpt lat="41.60427948303241" lon="14.242978205785732"><ele>462.0</ele><time>2026-04-25T05:30:40Z</time></trkpt><trkpt lat="41.60423203287193" lon="14.242868733118677"><ele>462.5</ele><time>2026-04-25T05:30:43Z</time></trkpt><trkpt lat="41.60417681967506" lon="14.242790012778162"><ele>463.0</ele><time>2026-04-25T05:30:46Z</time></trkpt><trkpt lat="41.604106453881144" lon="14.242705526911182"><ele>463.49999999999994</ele><time>2026-04-25T05:30:49Z</time></trkpt><trkpt lat="41.60404635246164" lon="14.242628772516595"><ele>464.0</ele><time>2026-04-25T05:30:52Z</time></trkpt><trkpt lat="41.60399230987192" lon="14.24255418816507"><ele>463.99999999999994</ele><time>2026-04-25T05:30:54Z</time></trkpt><trkpt lat="41.603946813819" lon="14.24247496055459"><ele>464.0</ele><time>2026-04-25T05:30:57Z</time></trkpt><trkpt lat="41.603900975811996" lon="14.242387134166478"><ele>464.0</ele><time>2026-04-25T05:31:00Z</time></trkpt><trkpt lat="41.603838668118634" lon="14.242320836798855"><ele>464.0</ele><time>2026-04-25T05:31:03Z</time></trkpt><trkpt lat="41.603779051741704" lon="14.242271201857607"><ele>463.99999999999994</ele><time>2026-04-25T05:31:06Z</time></trkpt><trkpt lat="41.60371186917824" lon="14.242261500185158"><ele>464.0</ele><time>2026-04-25T05:31:08Z</time></trkpt><trkpt lat="41.60364058017332" lon="14.242302817562225"><ele>463.66666666666663</ele><time>2026-04-25T05:31:11Z</time></trkpt><trkpt lat="41.60357858852338" lon="14.242381419452888"><ele>463.3333333333333</ele><time>2026-04-25T05:31:14Z</time></trkpt><trkpt lat="41.603503943308645" lon="14.242458211227293"><ele>463.0</ele><time>2026-04-25T05:31:17Z</time></trkpt><trkpt lat="41.60342891025785" lon="14.242502506020589"><ele>462.66666666666663</ele><time>2026-04-25T05:31:20Z</time></trkpt><trkpt lat="41.60334256429624" lon="14.242525224905748"><ele>462.3333333333333</ele><time>2026-04-25T05:31:23Z</time></trkpt><trkpt lat="41.60326961887498" lon="14.242531651156837"><ele>462.0</ele><time>2026-04-25T05:31:25Z</time></trkpt><trkpt lat="41.60320278243081" lon="14.242530867187558"><ele>462.0</ele><time>2026-04-25T05:31:27Z</time></trkpt><trkpt lat="41.60313598786332" lon="14.242554368900109"><ele>462.0</ele><time>2026-04-25T05:31:29Z</time></trkpt><trkpt lat="41.60304763839943" lon="14.242575977448642"><ele>462.0</ele><time>2026-04-25T05:31:32Z</time></trkpt><trkpt lat="41.60297718044372" lon="14.242634263144481"><ele>462.0</ele><time>2026-04-25T05:31:35Z</time></trkpt><trkpt lat="41.60291223877625" lon="14.242690443360134"><ele>462.0</ele><time>2026-04-25T05:31:38Z</time></trkpt><trkpt lat="41.60285066487128" lon="14.24274356045678"><ele>462.0</ele><time>2026-04-25T05:31:41Z</time></trkpt><trkpt lat="41.60278308443084" lon="14.242801386252642"><ele>463.0</ele><time>2026-04-25T05:31:44Z</time></trkpt><trkpt lat="41.602706077012385" lon="14.24285094823851"><ele>464.0</ele><time>2026-04-25T05:31:47Z</time></trkpt><trkpt lat="41.60263223212274" lon="14.242895824247404"><ele>465.0</ele><time>2026-04-25T05:31:50Z</time></trkpt><trkpt lat="41.60254920255047" lon="14.242949092547285"><ele>466.0</ele><time>2026-04-25T05:31:53Z</time></trkpt><trkpt lat="41.60248239052316" lon="14.242998727321698"><ele>467.0</ele><time>2026-04-25T05:31:56Z</time></trkpt><trkpt lat="41.60241632068589" lon="14.243065787067167"><ele>468.0</ele><time>2026-04-25T05:31:59Z</time></trkpt><trkpt lat="41.60234574400874" lon="14.24312813965072"><ele>467.0</ele><time>2026-04-25T05:32:02Z</time></trkpt><trkpt lat="41.60229200264474" lon="14.243226622550244"><ele>466.0</ele><time>2026-04-25T05:32:05Z</time></trkpt><trkpt lat="41.60227834039595" lon="14.24333067459135"><ele>465.0</ele><time>2026-04-25T05:32:08Z</time></trkpt><trkpt lat="41.60225307478266" lon="14.243448413427945"><ele>464.0</ele><time>2026-04-25T05:32:11Z</time></trkpt><trkpt lat="41.60222326965581" lon="14.243551217656817"><ele>463.0</ele><time>2026-04-25T05:32:14Z</time></trkpt><trkpt lat="41.60222649076102" lon="14.24367083068338"><ele>462.0</ele><time>2026-04-25T05:32:17Z</time></trkpt><trkpt lat="41.602230659895696" lon="14.243778964761626"><ele>462.0</ele><time>2026-04-25T05:32:20Z</time></trkpt><trkpt lat="41.602238412299876" lon="14.243864606591242"><ele>462.0</ele><time>2026-04-25T05:32:22Z</time></trkpt><trkpt lat="41.602248331023944" lon="14.243974177605038"><ele>462.0</ele><time>2026-04-25T05:32:25Z</time></trkpt><trkpt lat="41.602257201194945" lon="14.244082261854448"><ele>462.0</ele><time>2026-04-25T05:32:28Z</time></trkpt><trkpt lat="41.602269222825235" lon="14.244190572776654"><ele>462.0</ele><time>2026-04-25T05:32:31Z</time></trkpt><trkpt lat="41.60227768160066" lon="14.244299130629745"><ele>462.0</ele><time>2026-04-25T05:32:34Z</time></trkpt><trkpt lat="41.60227387246637" lon="14.244419273496474"><ele>461.8333333333333</ele><time>2026-04-25T05:32:37Z</time></trkpt><trkpt lat="41.6022811792899" lon="14.244529868752993"><ele>461.66666666666663</ele><time>2026-04-25T05:32:40Z</time></trkpt><trkpt lat="41.60228092362799" lon="14.244634044548103"><ele>461.5</ele><time>2026-04-25T05:32:43Z</time></trkpt><trkpt lat="41.60228276583213" lon="14.244748282165048"><ele>461.3333333333333</ele><time>2026-04-25T05:32:46Z</time></trkpt><trkpt lat="41.60228558243374" lon="14.244846056823707"><ele>461.16666666666663</ele><time>2026-04-25T05:32:49Z</time></trkpt><trkpt lat="41.60230920753442" lon="14.244925344994543"><ele>461.0</ele><time>2026-04-25T05:32:51Z</time></trkpt><trkpt lat="41.60229358093384" lon="14.245033512729272"><ele>461.16666666666663</ele><time>2026-04-25T05:32:54Z</time></trkpt><trkpt lat="41.602299914714955" lon="14.245135713863863"><ele>461.3333333333333</ele><time>2026-04-25T05:32:57Z</time></trkpt><trkpt lat="41.602275919374335" lon="14.24524413618671"><ele>461.5</ele><time>2026-04-25T05:33:00Z</time></trkpt><trkpt lat="41.60223708774369" lon="14.245341887673408"><ele>461.66666666666663</ele><time>2026-04-25T05:33:03Z</time></trkpt><trkpt lat="41.60220805651154" lon="14.245442471966934"><ele>461.8333333333333</ele><time>2026-04-25T05:33:06Z</time></trkpt><trkpt lat="41.602173223218934" lon="14.24554434368653"><ele>462.0</ele><time>2026-04-25T05:33:09Z</time></trkpt><trkpt lat="41.60213330967076" lon="14.245635798478938"><ele>462.0</ele><time>2026-04-25T05:33:12Z</time></trkpt><trkpt lat="41.60212052283871" lon="14.245744317969285"><ele>462.0</ele><time>2026-04-25T05:33:15Z</time></trkpt><trkpt lat="41.602106654645404" lon="14.245868344183936"><ele>462.0</ele><time>2026-04-25T05:33:18Z</time></trkpt><trkpt lat="41.602112018866336" lon="14.245980096523073"><ele>462.0</ele><time>2026-04-25T05:33:21Z</time></trkpt><trkpt lat="41.60213994420123" lon="14.246093693636439"><ele>462.0</ele><time>2026-04-25T05:33:24Z</time></trkpt><trkpt lat="41.602176868797805" lon="14.246207072651655"><ele>462.0</ele><time>2026-04-25T05:33:27Z</time></trkpt><trkpt lat="41.602210659420315" lon="14.24630012209434"><ele>462.0</ele><time>2026-04-25T05:33:30Z</time></trkpt><trkpt lat="41.60225284393439" lon="14.246399983525881"><ele>462.0</ele><time>2026-04-25T05:33:33Z</time></trkpt><trkpt lat="41.602286615050495" lon="14.246506090274647"><ele>462.0</ele><time>2026-04-25T05:33:36Z</time></trkpt><trkpt lat="41.60231663851481" lon="14.246609362232554"><ele>462.0</ele><time>2026-04-25T05:33:39Z</time></trkpt><trkpt lat="41.60235949489105" lon="14.246677459888492"><ele>462.0</ele><time>2026-04-25T05:33:41Z</time></trkpt><trkpt lat="41.60241088460752" lon="14.246771117348844"><ele>462.0</ele><time>2026-04-25T05:33:44Z</time></trkpt><trkpt lat="41.60246301959877" lon="14.246851524450507"><ele>462.1666666666667</ele><time>2026-04-25T05:33:47Z</time></trkpt><trkpt lat="41.60250964973511" lon="14.2469467079269"><ele>462.33333333333337</ele><time>2026-04-25T05:33:50Z</time></trkpt><trkpt lat="41.6025566905404" lon="14.24703217532035"><ele>462.5</ele><time>2026-04-25T05:33:53Z</time></trkpt><trkpt lat="41.60259790625799" lon="14.247130556462796"><ele>462.6666666666667</ele><time>2026-04-25T05:33:56Z</time></trkpt><trkpt lat="41.60263664896318" lon="14.24722598111537"><ele>462.83333333333337</ele><time>2026-04-25T05:33:59Z</time></trkpt><trkpt lat="41.60267192621619" lon="14.247317227797113"><ele>463.0</ele><time>2026-04-25T05:34:02Z</time></trkpt><trkpt lat="41.60270185685691" lon="14.247417830164016"><ele>463.0</ele><time>2026-04-25T05:34:05Z</time></trkpt><trkpt lat="41.602731408538006" lon="14.247533011148635"><ele>462.99999999999994</ele><time>2026-04-25T05:34:08Z</time></trkpt><trkpt lat="41.60277956065551" lon="14.247637384545873"><ele>462.99999999999994</ele><time>2026-04-25T05:34:11Z</time></trkpt><trkpt lat="41.60284098059632" lon="14.247724529027748"><ele>463.0</ele><time>2026-04-25T05:34:14Z</time></trkpt><trkpt lat="41.60291834813892" lon="14.24778466940307"><ele>463.0</ele><time>2026-04-25T05:34:17Z</time></trkpt><trkpt lat="41.603006447387756" lon="14.247805199460746"><ele>462.6666666666667</ele><time>2026-04-25T05:34:20Z</time></trkpt><trkpt lat="41.603089365545976" lon="14.247824164695889"><ele>462.33333333333337</ele><time>2026-04-25T05:34:23Z</time></trkpt><trkpt lat="41.60317289505732" lon="14.247828563979027"><ele>462.0</ele><time>2026-04-25T05:34:26Z</time></trkpt><trkpt lat="41.60325709972086" lon="14.247858790257268"><ele>461.66666666666663</ele><time>2026-04-25T05:34:29Z</time></trkpt><trkpt lat="41.603332002312435" lon="14.247902094233199"><ele>461.3333333333333</ele><time>2026-04-25T05:34:32Z</time></trkpt><trkpt lat="41.6033971481353" lon="14.247984556568055"><ele>461.0</ele><time>2026-04-25T05:34:35Z</time></trkpt><trkpt lat="41.60347322069955" lon="14.248025751320565"><ele>460.99999999999994</ele><time>2026-04-25T05:34:38Z</time></trkpt><trkpt lat="41.6035445163177" lon="14.24808433668428"><ele>461.0</ele><time>2026-04-25T05:34:41Z</time></trkpt><trkpt lat="41.603616583602204" lon="14.248148861965099"><ele>461.0</ele><time>2026-04-25T05:34:44Z</time></trkpt><trkpt lat="41.603681201308646" lon="14.248215267779688"><ele>461.0</ele><time>2026-04-25T05:34:47Z</time></trkpt><trkpt lat="41.603751393863625" lon="14.248270634206506"><ele>460.99999999999994</ele><time>2026-04-25T05:34:50Z</time></trkpt><trkpt lat="41.603813000614714" lon="14.24835474848788"><ele>461.0</ele><time>2026-04-25T05:34:53Z</time></trkpt><trkpt lat="41.60385235865532" lon="14.248422488099274"><ele>461.16666666666663</ele><time>2026-04-25T05:34:55Z</time></trkpt><trkpt lat="41.60392126893106" lon="14.248496635514256"><ele>461.3333333333333</ele><time>2026-04-25T05:34:58Z</time></trkpt><trkpt lat="41.60398141982349" lon="14.248571238922645"><ele>461.5</ele><time>2026-04-25T05:35:01Z</time></trkpt><trkpt lat="41.6040256349981" lon="14.24868043326391"><ele>461.66666666666663</ele><time>2026-04-25T05:35:04Z</time></trkpt><trkpt lat="41.604051247675166" lon="14.248788689603675"><ele>461.8333333333333</ele><time>2026-04-25T05:35:08Z</time></trkpt><trkpt lat="41.604076833160384" lon="14.248887387462997"><ele>462.0</ele><time>2026-04-25T05:35:11Z</time></trkpt><trkpt lat="41.60410030896511" lon="14.248995458871791"><ele>462.3333333333333</ele><time>2026-04-25T05:35:14Z</time></trkpt><trkpt lat="41.60412831205366" lon="14.24908069755078"><ele>462.66666666666663</ele><time>2026-04-25T05:35:17Z</time></trkpt><trkpt lat="41.604152449928016" lon="14.249168013396693"><ele>463.0</ele><time>2026-04-25T05:35:20Z</time></trkpt><trkpt lat="41.60419804372131" lon="14.24924828963772"><ele>463.3333333333333</ele><time>2026-04-25T05:35:23Z</time></trkpt><trkpt lat="41.604235291984004" lon="14.249337624001912"><ele>463.66666666666663</ele><time>2026-04-25T05:35:26Z</time></trkpt><trkpt lat="41.60426907488996" lon="14.249459498886253"><ele>464.0</ele><time>2026-04-25T05:35:29Z</time></trkpt><trkpt lat="41.60430661671744" lon="14.249595490549334"><ele>463.99999999999994</ele><time>2026-04-25T05:35:32Z</time></trkpt><trkpt lat="41.60435111448048" lon="14.249711409357653"><ele>464.0</ele><time>2026-04-25T05:35:35Z</time></trkpt><trkpt lat="41.6044005749542" lon="14.249805760380323"><ele>464.0</ele><time>2026-04-25T05:35:38Z</time></trkpt><trkpt lat="41.604459912338754" lon="14.249889913599473"><ele>464.0</ele><time>2026-04-25T05:35:41Z</time></trkpt><trkpt lat="41.60450003893453" lon="14.249963152806549"><ele>463.99999999999994</ele><time>2026-04-25T05:35:43Z</time></trkpt><trkpt lat="41.604556533089905" lon="14.250048205250433"><ele>464.0</ele><time>2026-04-25T05:35:46Z</time></trkpt><trkpt lat="41.604603668759545" lon="14.250104652073057"><ele>463.49999999999994</ele><time>2026-04-25T05:35:48Z</time></trkpt><trkpt lat="41.604651053694305" lon="14.250193282195555"><ele>463.0</ele><time>2026-04-25T05:35:51Z</time></trkpt><trkpt lat="41.60472035266148" lon="14.250260143927628"><ele>462.5</ele><time>2026-04-25T05:35:54Z</time></trkpt><trkpt lat="41.60479657448339" lon="14.250320511027395"><ele>462.0</ele><time>2026-04-25T05:35:57Z</time></trkpt><trkpt lat="41.60488638032662" lon="14.250358460652862"><ele>461.49999999999994</ele><time>2026-04-25T05:36:00Z</time></trkpt><trkpt lat="41.60497404169194" lon="14.250363731667147"><ele>461.0</ele><time>2026-04-25T05:36:03Z</time></trkpt><trkpt lat="41.605060729425325" lon="14.25034885881107"><ele>460.99999999999994</ele><time>2026-04-25T05:36:06Z</time></trkpt><trkpt lat="41.60514686356076" lon="14.250328554690192"><ele>461.0</ele><time>2026-04-25T05:36:09Z</time></trkpt><trkpt lat="41.60522586826127" lon="14.250294641155483"><ele>461.0</ele><time>2026-04-25T05:36:12Z</time></trkpt><trkpt lat="41.605314283219634" lon="14.250258801241507"><ele>461.0</ele><time>2026-04-25T05:36:15Z</time></trkpt><trkpt lat="41.60539406362121" lon="14.250222722679881"><ele>460.99999999999994</ele><time>2026-04-25T05:36:18Z</time></trkpt><trkpt lat="41.60547615397138" lon="14.250170331828757"><ele>461.0</ele><time>2026-04-25T05:36:21Z</time></trkpt><trkpt lat="41.60555095223186" lon="14.250145545280732"><ele>461.16666666666663</ele><time>2026-04-25T05:36:24Z</time></trkpt><trkpt lat="41.60562216650681" lon="14.25011257584862"><ele>461.3333333333333</ele><time>2026-04-25T05:36:27Z</time></trkpt><trkpt lat="41.60569095089311" lon="14.250072563198456"><ele>461.5</ele><time>2026-04-25T05:36:30Z</time></trkpt><trkpt lat="41.60576674010131" lon="14.25003733753486"><ele>461.66666666666663</ele><time>2026-04-25T05:36:33Z</time></trkpt><trkpt lat="41.605844014975325" lon="14.250007701882696"><ele>461.8333333333333</ele><time>2026-04-25T05:36:36Z</time></trkpt><trkpt lat="41.605914374766826" lon="14.249991572441838"><ele>462.0</ele><time>2026-04-25T05:36:39Z</time></trkpt><trkpt lat="41.60600239926757" lon="14.25000925773847"><ele>462.0</ele><time>2026-04-25T05:36:42Z</time></trkpt><trkpt lat="41.60607832482025" lon="14.250051200765036"><ele>462.0</ele><time>2026-04-25T05:36:45Z</time></trkpt><trkpt lat="41.606137619296554" lon="14.250111638118176"><ele>462.0</ele><time>2026-04-25T05:36:48Z</time></trkpt><trkpt lat="41.606193394935765" lon="14.250203695259575"><ele>462.0</ele><time>2026-04-25T05:36:51Z</time></trkpt><trkpt lat="41.606236438652395" lon="14.250302896914617"><ele>462.0</ele><time>2026-04-25T05:36:54Z</time></trkpt><trkpt lat="41.6062606653727" lon="14.250382341158755"><ele>462.0</ele><time>2026-04-25T05:36:56Z</time></trkpt><trkpt lat="41.60628879055454" lon="14.250479788969523"><ele>462.0</ele><time>2026-04-25T05:36:59Z</time></trkpt><trkpt lat="41.60632095561175" lon="14.250583263839065"><ele>462.0</ele><time>2026-04-25T05:37:02Z</time></trkpt><trkpt lat="41.606348463055845" lon="14.250669522208335"><ele>462.0</ele><time>2026-04-25T05:37:05Z</time></trkpt><trkpt lat="41.606382791475546" lon="14.250764030757805"><ele>462.0</ele><time>2026-04-25T05:37:08Z</time></trkpt><trkpt lat="41.60639387927497" lon="14.250876136429714"><ele>462.0</ele><time>2026-04-25T05:37:11Z</time></trkpt><trkpt lat="41.60640658838003" lon="14.25099213236909"><ele>462.0</ele><time>2026-04-25T05:37:14Z</time></trkpt><trkpt lat="41.60643743205474" lon="14.251090017064632"><ele>462.0</ele><time>2026-04-25T05:37:17Z</time></trkpt><trkpt lat="41.60645852774626" lon="14.251204356002585"><ele>462.0</ele><time>2026-04-25T05:37:20Z</time></trkpt><trkpt lat="41.60648340088695" lon="14.251311263896246"><ele>462.0</ele><time>2026-04-25T05:37:23Z</time></trkpt><trkpt lat="41.60650741319481" lon="14.251398202178324"><ele>462.0</ele><time>2026-04-25T05:37:26Z</time></trkpt><trkpt lat="41.606525449437335" lon="14.25148415715015"><ele>462.0</ele><time>2026-04-25T05:37:28Z</time></trkpt><trkpt lat="41.60654684582993" lon="14.251593999609684"><ele>462.0</ele><time>2026-04-25T05:37:31Z</time></trkpt><trkpt lat="41.60656458850792" lon="14.251706898565606"><ele>462.1666666666667</ele><time>2026-04-25T05:37:34Z</time></trkpt><trkpt lat="41.60658421203765" lon="14.251829878830787"><ele>462.33333333333337</ele><time>2026-04-25T05:37:37Z</time></trkpt><trkpt lat="41.60660537083559" lon="14.251926217092723"><ele>462.5</ele><time>2026-04-25T05:37:40Z</time></trkpt><trkpt lat="41.60664162505827" lon="14.252028334105455"><ele>462.6666666666667</ele><time>2026-04-25T05:37:43Z</time></trkpt><trkpt lat="41.60668100306981" lon="14.252125322685982"><ele>462.83333333333337</ele><time>2026-04-25T05:37:46Z</time></trkpt><trkpt lat="41.60672933761964" lon="14.252208888382699"><ele>463.0</ele><time>2026-04-25T05:37:49Z</time></trkpt><trkpt lat="41.60678141551954" lon="14.252292298162905"><ele>462.83333333333337</ele><time>2026-04-25T05:37:52Z</time></trkpt><trkpt lat="41.606836557532546" lon="14.252362128789143"><ele>462.6666666666667</ele><time>2026-04-25T05:37:55Z</time></trkpt><trkpt lat="41.60689311626828" lon="14.252445020692937"><ele>462.5</ele><time>2026-04-25T05:37:58Z</time></trkpt><trkpt lat="41.606941523087535" lon="14.252538025758044"><ele>462.33333333333337</ele><time>2026-04-25T05:38:01Z</time></trkpt><trkpt lat="41.60698902358454" lon="14.252615137888005"><ele>462.1666666666667</ele><time>2026-04-25T05:38:04Z</time></trkpt><trkpt lat="41.6070411392455" lon="14.25270383681972"><ele>462.0</ele><time>2026-04-25T05:38:07Z</time></trkpt><trkpt lat="41.6070853975105" lon="14.252790012598004"><ele>462.0</ele><time>2026-04-25T05:38:10Z</time></trkpt><trkpt lat="41.60712441677882" lon="14.252878100493557"><ele>462.0</ele><time>2026-04-25T05:38:13Z</time></trkpt><trkpt lat="41.60716876790371" lon="14.252953449731088"><ele>462.0</ele><time>2026-04-25T05:38:16Z</time></trkpt><trkpt lat="41.60722103438683" lon="14.25304101175986"><ele>462.0</ele><time>2026-04-25T05:38:19Z</time></trkpt><trkpt lat="41.60726144638227" lon="14.25313293596765"><ele>462.0</ele><time>2026-04-25T05:38:22Z</time></trkpt><trkpt lat="41.6073140548293" lon="14.25324535294951"><ele>462.0</ele><time>2026-04-25T05:38:25Z</time></trkpt><trkpt lat="41.607351148287904" lon="14.25331508364449"><ele>462.6666666666667</ele><time>2026-04-25T05:38:28Z</time></trkpt><trkpt lat="41.60739522644335" lon="14.25341047099772"><ele>463.33333333333337</ele><time>2026-04-25T05:38:31Z</time></trkpt><trkpt lat="41.60744017769902" lon="14.253504749173258"><ele>464.0</ele><time>2026-04-25T05:38:34Z</time></trkpt><trkpt lat="41.60747464251507" lon="14.253589817908402"><ele>464.6666666666667</ele><time>2026-04-25T05:38:37Z</time></trkpt><trkpt lat="41.60751003652753" lon="14.253693296260463"><ele>465.33333333333337</ele><time>2026-04-25T05:38:40Z</time></trkpt><trkpt lat="41.60755009578243" lon="14.253764778960303"><ele>466.0</ele><time>2026-04-25T05:38:42Z</time></trkpt><trkpt lat="41.607600051712815" lon="14.253839190923706"><ele>466.00000000000006</ele><time>2026-04-25T05:38:45Z</time></trkpt><trkpt lat="41.607649740621724" lon="14.253929523791683"><ele>466.0</ele><time>2026-04-25T05:38:48Z</time></trkpt><trkpt lat="41.60769309301622" lon="14.254016715533412"><ele>466.0</ele><time>2026-04-25T05:38:51Z</time></trkpt><trkpt lat="41.60772518042592" lon="14.25412142739126"><ele>466.0</ele><time>2026-04-25T05:38:54Z</time></trkpt><trkpt lat="41.60774761499395" lon="14.254203112963305"><ele>466.00000000000006</ele><time>2026-04-25T05:38:57Z</time></trkpt><trkpt lat="41.60776805724232" lon="14.25431375887835"><ele>466.0</ele><time>2026-04-25T05:39:00Z</time></trkpt><trkpt lat="41.607794075997504" lon="14.254419178128677"><ele>466.50000000000006</ele><time>2026-04-25T05:39:03Z</time></trkpt><trkpt lat="41.60781326353695" lon="14.254512945897655"><ele>467.0</ele><time>2026-04-25T05:39:06Z</time></trkpt><trkpt lat="41.60783342011849" lon="14.254611296388731"><ele>467.5</ele><time>2026-04-25T05:39:09Z</time></trkpt><trkpt lat="41.60784820033972" lon="14.254724610337176"><ele>468.0</ele><time>2026-04-25T05:39:12Z</time></trkpt><trkpt lat="41.607877373389286" lon="14.25483389916186"><ele>468.50000000000006</ele><time>2026-04-25T05:39:15Z</time></trkpt><trkpt lat="41.60787538095444" lon="14.254939686885423"><ele>469.0</ele><time>2026-04-25T05:39:17Z</time></trkpt><trkpt lat="41.60789112971645" lon="14.255032384326897"><ele>469.50000000000006</ele><time>2026-04-25T05:39:20Z</time></trkpt><trkpt lat="41.60791039602254" lon="14.255142380145461"><ele>470.0</ele><time>2026-04-25T05:39:23Z</time></trkpt><trkpt lat="41.60792292608948" lon="14.255255085513744"><ele>470.5</ele><time>2026-04-25T05:39:26Z</time></trkpt><trkpt lat="41.60793731940423" lon="14.255357508881925"><ele>471.0</ele><time>2026-04-25T05:39:29Z</time></trkpt><trkpt lat="41.60795962539782" lon="14.255455523002299"><ele>471.50000000000006</ele><time>2026-04-25T05:39:32Z</time></trkpt><trkpt lat="41.60801437378383" lon="14.25553238575637"><ele>472.0</ele><time>2026-04-25T05:39:35Z</time></trkpt><trkpt lat="41.60808181894432" lon="14.255578675482981"><ele>472.00000000000006</ele><time>2026-04-25T05:39:38Z</time></trkpt><trkpt lat="41.608156039982795" lon="14.255584243494875"><ele>472.0</ele><time>2026-04-25T05:39:40Z</time></trkpt><trkpt lat="41.608229211162765" lon="14.255571621758758"><ele>472.0</ele><time>2026-04-25T05:39:43Z</time></trkpt><trkpt lat="41.608293245958265" lon="14.255544647266273"><ele>472.0</ele><time>2026-04-25T05:39:46Z</time></trkpt><trkpt lat="41.60837143675647" lon="14.255513038135673"><ele>472.00000000000006</ele><time>2026-04-25T05:39:49Z</time></trkpt><trkpt lat="41.6084543597848" lon="14.255476521288665"><ele>472.0</ele><time>2026-04-25T05:39:52Z</time></trkpt><trkpt lat="41.608529945786124" lon="14.255428974196095"><ele>472.00000000000006</ele><time>2026-04-25T05:39:55Z</time></trkpt><trkpt lat="41.60861773187841" lon="14.25537831427299"><ele>472.0</ele><time>2026-04-25T05:39:58Z</time></trkpt><trkpt lat="41.60869889323256" lon="14.255338396807302"><ele>472.0</ele><time>2026-04-25T05:40:01Z</time></trkpt><trkpt lat="41.608777874981044" lon="14.255285489890326"><ele>472.0</ele><time>2026-04-25T05:40:04Z</time></trkpt><trkpt lat="41.608857480568155" lon="14.255229565594508"><ele>472.00000000000006</ele><time>2026-04-25T05:40:07Z</time></trkpt><trkpt lat="41.6089267892301" lon="14.255176445601867"><ele>472.0</ele><time>2026-04-25T05:40:10Z</time></trkpt><trkpt lat="41.609004019303235" lon="14.255123475628904"><ele>472.00000000000006</ele><time>2026-04-25T05:40:13Z</time></trkpt><trkpt lat="41.609070685360116" lon="14.255074622137679"><ele>472.0</ele><time>2026-04-25T05:40:16Z</time></trkpt><trkpt lat="41.6091524454695" lon="14.25502791445793"><ele>472.0</ele><time>2026-04-25T05:40:19Z</time></trkpt><trkpt lat="41.60922196929796" lon="14.254983988931487"><ele>472.0</ele><time>2026-04-25T05:40:22Z</time></trkpt><trkpt lat="41.60930183572408" lon="14.254952544496087"><ele>472.00000000000006</ele><time>2026-04-25T05:40:25Z</time></trkpt><trkpt lat="41.60936305146329" lon="14.254915180272267"><ele>472.0</ele><time>2026-04-25T05:40:27Z</time></trkpt><trkpt lat="41.60943939108519" lon="14.254880428919487"><ele>471.1666666666667</ele><time>2026-04-25T05:40:30Z</time></trkpt><trkpt lat="41.60950197951602" lon="14.254835569055103"><ele>470.33333333333337</ele><time>2026-04-25T05:40:33Z</time></trkpt><trkpt lat="41.60958787803098" lon="14.254811117892016"><ele>469.5</ele><time>2026-04-25T05:40:35Z</time></trkpt><trkpt lat="41.609667292895566" lon="14.2547654407158"><ele>468.66666666666663</ele><time>2026-04-25T05:40:38Z</time></trkpt><trkpt lat="41.609728681665075" lon="14.254717702226248"><ele>467.8333333333333</ele><time>2026-04-25T05:40:41Z</time></trkpt><trkpt lat="41.609789985192876" lon="14.25469210652981"><ele>467.0</ele><time>2026-04-25T05:40:43Z</time></trkpt><trkpt lat="41.60986216293136" lon="14.254632750705598"><ele>466.99999999999994</ele><time>2026-04-25T05:40:46Z</time></trkpt><trkpt lat="41.609935644071605" lon="14.254588538954671"><ele>467.0</ele><time>2026-04-25T05:40:49Z</time></trkpt><trkpt lat="41.61000396877339" lon="14.25452680659732"><ele>467.0</ele><time>2026-04-25T05:40:52Z</time></trkpt><trkpt lat="41.61009736918128" lon="14.254484900078786"><ele>467.0</ele><time>2026-04-25T05:40:55Z</time></trkpt><trkpt lat="41.61016892819967" lon="14.25442382935445"><ele>466.99999999999994</ele><time>2026-04-25T05:40:58Z</time></trkpt><trkpt lat="41.61026010049212" lon="14.254371712243604"><ele>467.0</ele><time>2026-04-25T05:41:01Z</time></trkpt><trkpt lat="41.610340399241686" lon="14.254335953348274"><ele>466.8333333333333</ele><time>2026-04-25T05:41:04Z</time></trkpt><trkpt lat="41.61042600803452" lon="14.254333143093357"><ele>466.66666666666663</ele><time>2026-04-25T05:41:07Z</time></trkpt><trkpt lat="41.61051590566534" lon="14.254349808037741"><ele>466.5</ele><time>2026-04-25T05:41:10Z</time></trkpt><trkpt lat="41.61056425087729" lon="14.25443848388947"><ele>466.33333333333337</ele><time>2026-04-25T05:41:13Z</time></trkpt><trkpt lat="41.610612964794136" lon="14.254498003485972"><ele>466.1666666666667</ele><time>2026-04-25T05:41:15Z</time></trkpt><trkpt lat="41.610668227162" lon="14.254588114916068"><ele>466.0</ele><time>2026-04-25T05:41:18Z</time></trkpt><trkpt lat="41.61070236345626" lon="14.254674708941591"><ele>466.00000000000006</ele><time>2026-04-25T05:41:20Z</time></trkpt><trkpt lat="41.61074728164519" lon="14.254765322183856"><ele>466.0</ele><time>2026-04-25T05:41:23Z</time></trkpt><trkpt lat="41.61079691766559" lon="14.25486102054415"><ele>466.0</ele><time>2026-04-25T05:41:26Z</time></trkpt><trkpt lat="41.61083724172509" lon="14.254968381388627"><ele>466.0</ele><time>2026-04-25T05:41:29Z</time></trkpt><trkpt lat="41.61090161655479" lon="14.255047533642712"><ele>466.00000000000006</ele><time>2026-04-25T05:41:32Z</time></trkpt><trkpt lat="41.610973733702984" lon="14.255111158416542"><ele>466.0</ele><time>2026-04-25T05:41:35Z</time></trkpt><trkpt lat="41.61105958871613" lon="14.255110796675005"><ele>466.1666666666667</ele><time>2026-04-25T05:41:38Z</time></trkpt><trkpt lat="41.61114050121494" lon="14.255072230713731"><ele>466.33333333333337</ele><time>2026-04-25T05:41:41Z</time></trkpt><trkpt lat="41.611197881099415" lon="14.255033389787954"><ele>466.5</ele><time>2026-04-25T05:41:43Z</time></trkpt><trkpt lat="41.611265200798165" lon="14.254959000929006"><ele>466.66666666666663</ele><time>2026-04-25T05:41:46Z</time></trkpt><trkpt lat="41.611333841095636" lon="14.254898181215458"><ele>466.8333333333333</ele><time>2026-04-25T05:41:49Z</time></trkpt><trkpt lat="41.611403201327434" lon="14.25484537386656"><ele>467.0</ele><time>2026-04-25T05:41:52Z</time></trkpt><trkpt lat="41.6114659173836" lon="14.254774058705705"><ele>466.99999999999994</ele><time>2026-04-25T05:41:55Z</time></trkpt><trkpt lat="41.61153535450198" lon="14.254713175843282"><ele>467.0</ele><time>2026-04-25T05:41:58Z</time></trkpt><trkpt lat="41.61160627297624" lon="14.25466699993641"><ele>467.0</ele><time>2026-04-25T05:42:01Z</time></trkpt><trkpt lat="41.611694641754426" lon="14.254632783415682"><ele>467.0</ele><time>2026-04-25T05:42:04Z</time></trkpt><trkpt lat="41.611778370405794" lon="14.25458619425174"><ele>466.99999999999994</ele><time>2026-04-25T05:42:07Z</time></trkpt><trkpt lat="41.611849048082014" lon="14.254560188160454"><ele>467.0</ele><time>2026-04-25T05:42:10Z</time></trkpt><trkpt lat="41.61193048203505" lon="14.25454931453323"><ele>466.99999999999994</ele><time>2026-04-25T05:42:13Z</time></trkpt><trkpt lat="41.61199833286103" lon="14.254548831622353"><ele>467.0</ele><time>2026-04-25T05:42:15Z</time></trkpt><trkpt lat="41.612076745168395" lon="14.254545939087556"><ele>467.0</ele><time>2026-04-25T05:42:18Z</time></trkpt><trkpt lat="41.61215700644887" lon="14.254530243745041"><ele>467.0</ele><time>2026-04-25T05:42:21Z</time></trkpt><trkpt lat="41.612237330896434" lon="14.254506563995168"><ele>466.99999999999994</ele><time>2026-04-25T05:42:24Z</time></trkpt><trkpt lat="41.61232820145332" lon="14.25449773360594"><ele>467.0</ele><time>2026-04-25T05:42:27Z</time></trkpt><trkpt lat="41.61240357373942" lon="14.254510191532281"><ele>466.99999999999994</ele><time>2026-04-25T05:42:30Z</time></trkpt><trkpt lat="41.61248557059736" lon="14.254533223961323"><ele>467.0</ele><time>2026-04-25T05:42:33Z</time></trkpt><trkpt lat="41.6125659922548" lon="14.254551471365259"><ele>466.99999999999994</ele><time>2026-04-25T05:42:36Z</time></trkpt><trkpt lat="41.61263832425767" lon="14.25456918959914"><ele>466.99999999999994</ele><time>2026-04-25T05:42:39Z</time></trkpt><trkpt lat="41.612711472195976" lon="14.254610562439924"><ele>467.0</ele><time>2026-04-25T05:42:42Z</time></trkpt><trkpt lat="41.612774590790806" lon="14.254618706484752"><ele>466.99999999999994</ele><time>2026-04-25T05:42:44Z</time></trkpt><trkpt lat="41.61283531973959" lon="14.254641459166793"><ele>466.99999999999994</ele><time>2026-04-25T05:42:46Z</time></trkpt><trkpt lat="41.61289302656014" lon="14.254680005556875"><ele>466.3333333333333</ele><time>2026-04-25T05:42:48Z</time></trkpt><trkpt lat="41.61296430974864" lon="14.254704403866588"><ele>465.66666666666663</ele><time>2026-04-25T05:42:51Z</time></trkpt><trkpt lat="41.61304858339388" lon="14.254729418411578"><ele>465.0</ele><time>2026-04-25T05:42:54Z</time></trkpt><trkpt lat="41.61313409932021" lon="14.254737855929958"><ele>464.33333333333337</ele><time>2026-04-25T05:42:57Z</time></trkpt><trkpt lat="41.613220069723916" lon="14.254745906219759"><ele>463.6666666666667</ele><time>2026-04-25T05:43:00Z</time></trkpt><trkpt lat="41.6132966467013" lon="14.25480013491293"><ele>463.0</ele><time>2026-04-25T05:43:03Z</time></trkpt><trkpt lat="41.61338485901066" lon="14.254824571702704"><ele>463.1666666666667</ele><time>2026-04-25T05:43:06Z</time></trkpt><trkpt lat="41.61344637159082" lon="14.254873077389904"><ele>463.33333333333337</ele><time>2026-04-25T05:43:09Z</time></trkpt><trkpt lat="41.61353301337874" lon="14.25490438265079"><ele>463.5</ele><time>2026-04-25T05:43:12Z</time></trkpt><trkpt lat="41.61363211122979" lon="14.25492411787985"><ele>463.66666666666663</ele><time>2026-04-25T05:43:15Z</time></trkpt><trkpt lat="41.61370681140457" lon="14.25490896184856"><ele>463.8333333333333</ele><time>2026-04-25T05:43:18Z</time></trkpt><trkpt lat="41.61376523190023" lon="14.254848392367093"><ele>464.0</ele><time>2026-04-25T05:43:20Z</time></trkpt><trkpt lat="41.61381107976107" lon="14.254755255789325"><ele>464.16666666666663</ele><time>2026-04-25T05:43:23Z</time></trkpt><trkpt lat="41.61383509233651" lon="14.254649676298163"><ele>464.3333333333333</ele><time>2026-04-25T05:43:26Z</time></trkpt><trkpt lat="41.61377755492721" lon="14.254561396120977"><ele>464.5</ele><time>2026-04-25T05:43:29Z</time></trkpt><trkpt lat="41.613706113473796" lon="14.254498527374627"><ele>464.66666666666663</ele><time>2026-04-25T05:43:32Z</time></trkpt><trkpt lat="41.613636943673995" lon="14.254429761907664"><ele>464.8333333333333</ele><time>2026-04-25T05:43:35Z</time></trkpt><trkpt lat="41.613571403077906" lon="14.254355493425392"><ele>465.0</ele><time>2026-04-25T05:43:38Z</time></trkpt><trkpt lat="41.6135175481902" lon="14.254261259439408"><ele>464.6666666666667</ele><time>2026-04-25T05:43:41Z</time></trkpt><trkpt lat="41.61346433583234" lon="14.254161625394492"><ele>464.33333333333337</ele><time>2026-04-25T05:43:44Z</time></trkpt><trkpt lat="41.61343747530883" lon="14.254065668649483"><ele>464.0</ele><time>2026-04-25T05:43:47Z</time></trkpt><trkpt lat="41.61340262185582" lon="14.253961047328213"><ele>463.6666666666667</ele><time>2026-04-25T05:43:50Z</time></trkpt><trkpt lat="41.613365810915106" lon="14.253850639011535"><ele>463.33333333333337</ele><time>2026-04-25T05:43:53Z</time></trkpt><trkpt lat="41.61333619936246" lon="14.253737702151765"><ele>463.0</ele><time>2026-04-25T05:43:56Z</time></trkpt><trkpt lat="41.61331805754619" lon="14.253626281476835"><ele>463.00000000000006</ele><time>2026-04-25T05:43:59Z</time></trkpt><trkpt lat="41.613283981296114" lon="14.253519491118032"><ele>463.0</ele><time>2026-04-25T05:44:02Z</time></trkpt><trkpt lat="41.61323419404675" lon="14.253422056748311"><ele>463.0</ele><time>2026-04-25T05:44:05Z</time></trkpt><trkpt lat="41.61318179001286" lon="14.253337123855982"><ele>463.0</ele><time>2026-04-25T05:44:08Z</time></trkpt><trkpt lat="41.61314868550829" lon="14.253223167750322"><ele>463.00000000000006</ele><time>2026-04-25T05:44:11Z</time></trkpt><trkpt lat="41.613108264223285" lon="14.253139939039702"><ele>463.0</ele><time>2026-04-25T05:44:14Z</time></trkpt><trkpt lat="41.61307317982325" lon="14.253039203086153"><ele>462.6666666666667</ele><time>2026-04-25T05:44:17Z</time></trkpt><trkpt lat="41.61304201780666" lon="14.252922727067768"><ele>462.33333333333337</ele><time>2026-04-25T05:44:20Z</time></trkpt><trkpt lat="41.61303149254412" lon="14.252819363136364"><ele>462.0</ele><time>2026-04-25T05:44:23Z</time></trkpt><trkpt lat="41.61301460197892" lon="14.252735594760145"><ele>461.66666666666663</ele><time>2026-04-25T05:44:25Z</time></trkpt><trkpt lat="41.61299603758666" lon="14.252631609945334"><ele>461.3333333333333</ele><time>2026-04-25T05:44:28Z</time></trkpt><trkpt lat="41.61296969329914" lon="14.252528894584307"><ele>461.0</ele><time>2026-04-25T05:44:31Z</time></trkpt><trkpt lat="41.61294594292727" lon="14.252423935506734"><ele>460.99999999999994</ele><time>2026-04-25T05:44:34Z</time></trkpt><trkpt lat="41.612919620820605" lon="14.252315155687995"><ele>461.0</ele><time>2026-04-25T05:44:37Z</time></trkpt><trkpt lat="41.61288190004618" lon="14.252202095892997"><ele>461.0</ele><time>2026-04-25T05:44:40Z</time></trkpt><trkpt lat="41.61285923176087" lon="14.252095544714674"><ele>461.0</ele><time>2026-04-25T05:44:43Z</time></trkpt><trkpt lat="41.61282662662477" lon="14.25199675411215"><ele>460.99999999999994</ele><time>2026-04-25T05:44:46Z</time></trkpt><trkpt lat="41.61281101433437" lon="14.251913469774754"><ele>461.0</ele><time>2026-04-25T05:44:48Z</time></trkpt><trkpt lat="41.61278719033194" lon="14.251798965477402"><ele>461.16666666666663</ele><time>2026-04-25T05:44:51Z</time></trkpt><trkpt lat="41.6127656406142" lon="14.251716983418628"><ele>461.3333333333333</ele><time>2026-04-25T05:44:53Z</time></trkpt><trkpt lat="41.612711229260434" lon="14.251629718898053"><ele>461.5</ele><time>2026-04-25T05:44:56Z</time></trkpt><trkpt lat="41.61266629950509" lon="14.251544617450415"><ele>461.66666666666663</ele><time>2026-04-25T05:44:59Z</time></trkpt><trkpt lat="41.61262931400235" lon="14.251449832645147"><ele>461.8333333333333</ele><time>2026-04-25T05:45:02Z</time></trkpt><trkpt lat="41.612586632959406" lon="14.251342538387544"><ele>462.0</ele><time>2026-04-25T05:45:05Z</time></trkpt><trkpt lat="41.612542597425566" lon="14.251248293197806"><ele>462.0</ele><time>2026-04-25T05:45:08Z</time></trkpt><trkpt lat="41.61249868782281" lon="14.25114638786139"><ele>462.0</ele><time>2026-04-25T05:45:11Z</time></trkpt><trkpt lat="41.61244899632328" lon="14.251051018983027"><ele>462.0</ele><time>2026-04-25T05:45:14Z</time></trkpt><trkpt lat="41.61239259549287" lon="14.250962720517421"><ele>462.0</ele><time>2026-04-25T05:45:17Z</time></trkpt><trkpt lat="41.61234930819764" lon="14.250899131852814"><ele>462.0</ele><time>2026-04-25T05:45:19Z</time></trkpt><trkpt lat="41.61229668220941" lon="14.25081475256828"><ele>462.0</ele><time>2026-04-25T05:45:22Z</time></trkpt><trkpt lat="41.61223060088298" lon="14.250734833347698"><ele>462.0</ele><time>2026-04-25T05:45:25Z</time></trkpt><trkpt lat="41.612166601575765" lon="14.250657088915368"><ele>462.0</ele><time>2026-04-25T05:45:28Z</time></trkpt><trkpt lat="41.612092954720644" lon="14.250608472911159"><ele>462.0</ele><time>2026-04-25T05:45:31Z</time></trkpt><trkpt lat="41.61200417293121" lon="14.250571980918131"><ele>462.0</ele><time>2026-04-25T05:45:34Z</time></trkpt><trkpt lat="41.61192241309515" lon="14.250531161812424"><ele>462.0</ele><time>2026-04-25T05:45:37Z</time></trkpt><trkpt lat="41.611840938242516" lon="14.250500565936473"><ele>462.0</ele><time>2026-04-25T05:45:40Z</time></trkpt><trkpt lat="41.61176040712144" lon="14.250450476522978"><ele>462.3333333333333</ele><time>2026-04-25T05:45:43Z</time></trkpt><trkpt lat="41.611686974519934" lon="14.250386417773168"><ele>462.66666666666663</ele><time>2026-04-25T05:45:46Z</time></trkpt><trkpt lat="41.61161672316954" lon="14.25032321065157"><ele>463.0</ele><time>2026-04-25T05:45:49Z</time></trkpt><trkpt lat="41.61155688695664" lon="14.250241763540187"><ele>463.3333333333333</ele><time>2026-04-25T05:45:52Z</time></trkpt><trkpt lat="41.61151758371059" lon="14.25014298357154"><ele>463.66666666666663</ele><time>2026-04-25T05:45:55Z</time></trkpt><trkpt lat="41.61150437078416" lon="14.250041446854823"><ele>464.0</ele><time>2026-04-25T05:45:58Z</time></trkpt><trkpt lat="41.611478781517114" lon="14.249928192374883"><ele>463.99999999999994</ele><time>2026-04-25T05:46:01Z</time></trkpt><trkpt lat="41.6114433262401" lon="14.249820398901164"><ele>464.0</ele><time>2026-04-25T05:46:04Z</time></trkpt><trkpt lat="41.61141476747846" lon="14.24972894763748"><ele>464.0</ele><time>2026-04-25T05:46:07Z</time></trkpt><trkpt lat="41.611424651590454" lon="14.24964414447376"><ele>464.0</ele><time>2026-04-25T05:46:10Z</time></trkpt><trkpt lat="41.61150402550159" lon="14.2495857592535"><ele>463.99999999999994</ele><time>2026-04-25T05:46:13Z</time></trkpt><trkpt lat="41.61156550142634" lon="14.249501343680464"><ele>464.0</ele><time>2026-04-25T05:46:16Z</time></trkpt><trkpt lat="41.61161131648035" lon="14.249409214221364"><ele>463.99999999999994</ele><time>2026-04-25T05:46:19Z</time></trkpt><trkpt lat="41.61163775352135" lon="14.249301304327695"><ele>464.0</ele><time>2026-04-25T05:46:22Z</time></trkpt><trkpt lat="41.61166498100365" lon="14.249197117593084"><ele>464.0</ele><time>2026-04-25T05:46:25Z</time></trkpt><trkpt lat="41.61168790845406" lon="14.249094090167274"><ele>464.0</ele><time>2026-04-25T05:46:28Z</time></trkpt><trkpt lat="41.61172348539181" lon="14.249018937256714"><ele>463.99999999999994</ele><time>2026-04-25T05:46:30Z</time></trkpt><trkpt lat="41.61176410249912" lon="14.248926345254915"><ele>464.0</ele><time>2026-04-25T05:46:33Z</time></trkpt><trkpt lat="41.61181079918986" lon="14.248844806226847"><ele>463.99999999999994</ele><time>2026-04-25T05:46:36Z</time></trkpt><trkpt lat="41.61185845241036" lon="14.248757459356716"><ele>464.0</ele><time>2026-04-25T05:46:39Z</time></trkpt><trkpt lat="41.61190987110271" lon="14.248673673141177"><ele>464.0</ele><time>2026-04-25T05:46:42Z</time></trkpt><trkpt lat="41.611958125182134" lon="14.248590756997302"><ele>464.0</ele><time>2026-04-25T05:46:45Z</time></trkpt><trkpt lat="41.612008220916486" lon="14.24850097966396"><ele>463.99999999999994</ele><time>2026-04-25T05:46:48Z</time></trkpt><trkpt lat="41.61205014632284" lon="14.248437736547354"><ele>464.0</ele><time>2026-04-25T05:46:50Z</time></trkpt><trkpt lat="41.612103174209814" lon="14.248357909902321"><ele>463.99999999999994</ele><time>2026-04-25T05:46:53Z</time></trkpt><trkpt lat="41.61216025848284" lon="14.24827635295356"><ele>464.0</ele><time>2026-04-25T05:46:56Z</time></trkpt><trkpt lat="41.61222618968853" lon="14.248224145136035"><ele>464.0</ele><time>2026-04-25T05:46:59Z</time></trkpt><trkpt lat="41.61230458522458" lon="14.248257657015625"><ele>464.0</ele><time>2026-04-25T05:47:02Z</time></trkpt><trkpt lat="41.61236696216058" lon="14.248306202529973"><ele>463.99999999999994</ele><time>2026-04-25T05:47:05Z</time></trkpt><trkpt lat="41.61244634497931" lon="14.248361945773103"><ele>464.0</ele><time>2026-04-25T05:47:08Z</time></trkpt><trkpt lat="41.61252187426401" lon="14.248388698878967"><ele>463.99999999999994</ele><time>2026-04-25T05:47:11Z</time></trkpt><trkpt lat="41.61260410360844" lon="14.248417683661447"><ele>464.0</ele><time>2026-04-25T05:47:14Z</time></trkpt><trkpt lat="41.61268296474623" lon="14.248447139597294"><ele>464.0</ele><time>2026-04-25T05:47:17Z</time></trkpt><trkpt lat="41.61275675231685" lon="14.24849354058236"><ele>464.0</ele><time>2026-04-25T05:47:20Z</time></trkpt><trkpt lat="41.61282022264441" lon="14.248569858345581"><ele>463.99999999999994</ele><time>2026-04-25T05:47:23Z</time></trkpt><trkpt lat="41.612884431398136" lon="14.248643028618938"><ele>464.0</ele><time>2026-04-25T05:47:26Z</time></trkpt><trkpt lat="41.61295218980055" lon="14.248705530288884"><ele>463.66666666666663</ele><time>2026-04-25T05:47:29Z</time></trkpt><trkpt lat="41.61303716831733" lon="14.248717237335418"><ele>463.3333333333333</ele><time>2026-04-25T05:47:32Z</time></trkpt><trkpt lat="41.613094787488926" lon="14.248666233439712"><ele>463.0</ele><time>2026-04-25T05:47:34Z</time></trkpt><trkpt lat="41.61314800080362" lon="14.248617070319277"><ele>462.66666666666663</ele><time>2026-04-25T05:47:36Z</time></trkpt><trkpt lat="41.61321167588597" lon="14.248542514475545"><ele>462.3333333333333</ele><time>2026-04-25T05:47:39Z</time></trkpt><trkpt lat="41.61327940074865" lon="14.248473118407908"><ele>462.0</ele><time>2026-04-25T05:47:42Z</time></trkpt><trkpt lat="41.61333094112393" lon="14.248399382138075"><ele>462.0</ele><time>2026-04-25T05:47:45Z</time></trkpt><trkpt lat="41.61338255666497" lon="14.248343842511533"><ele>462.0</ele><time>2026-04-25T05:47:47Z</time></trkpt><trkpt lat="41.61344615406557" lon="14.248277354972481"><ele>462.0</ele><time>2026-04-25T05:47:50Z</time></trkpt><trkpt lat="41.61349869693258" lon="14.248228782293415"><ele>462.0</ele><time>2026-04-25T05:47:52Z</time></trkpt><trkpt lat="41.613567816418744" lon="14.24815650422116"><ele>462.0</ele><time>2026-04-25T05:47:55Z</time></trkpt><trkpt lat="41.61363270134759" lon="14.248087965461353"><ele>462.0</ele><time>2026-04-25T05:47:58Z</time></trkpt><trkpt lat="41.61370298424557" lon="14.248016833477385"><ele>462.0</ele><time>2026-04-25T05:48:01Z</time></trkpt><trkpt lat="41.61376359354663" lon="14.247944634293281"><ele>462.0</ele><time>2026-04-25T05:48:04Z</time></trkpt><trkpt lat="41.61383511716351" lon="14.247877174181346"><ele>462.0</ele><time>2026-04-25T05:48:07Z</time></trkpt><trkpt lat="41.61389617333853" lon="14.247806816760976"><ele>462.0</ele><time>2026-04-25T05:48:10Z</time></trkpt><trkpt lat="41.613973348847175" lon="14.24773278607249"><ele>462.0</ele><time>2026-04-25T05:48:13Z</time></trkpt><trkpt lat="41.61404198361914" lon="14.24766585395158"><ele>462.0</ele><time>2026-04-25T05:48:16Z</time></trkpt><trkpt lat="41.614111129465" lon="14.247611261951246"><ele>462.0</ele><time>2026-04-25T05:48:19Z</time></trkpt><trkpt lat="41.61416652946734" lon="14.247566614632948"><ele>462.0</ele><time>2026-04-25T05:48:21Z</time></trkpt><trkpt lat="41.61421518883582" lon="14.247486399193368"><ele>462.0</ele><time>2026-04-25T05:48:24Z</time></trkpt><trkpt lat="41.614255237450585" lon="14.247379611177845"><ele>462.0</ele><time>2026-04-25T05:48:27Z</time></trkpt><trkpt lat="41.614232363311025" lon="14.24726610132235"><ele>462.0</ele><time>2026-04-25T05:48:30Z</time></trkpt><trkpt lat="41.614209334598684" lon="14.247185939871244"><ele>462.0</ele><time>2026-04-25T05:48:32Z</time></trkpt><trkpt lat="41.61416169906576" lon="14.247086852519164"><ele>462.0</ele><time>2026-04-25T05:48:35Z</time></trkpt><trkpt lat="41.614133404449774" lon="14.24698440471462"><ele>462.0</ele><time>2026-04-25T05:48:38Z</time></trkpt><trkpt lat="41.61411832284584" lon="14.246874739503463"><ele>462.0</ele><time>2026-04-25T05:48:41Z</time></trkpt><trkpt lat="41.61408034152863" lon="14.246780682873224"><ele>462.0</ele><time>2026-04-25T05:48:44Z</time></trkpt><trkpt lat="41.61407054455646" lon="14.246692536067748"><ele>462.0</ele><time>2026-04-25T05:48:46Z</time></trkpt><trkpt lat="41.614031079342986" lon="14.246591967593092"><ele>462.0</ele><time>2026-04-25T05:48:49Z</time></trkpt><trkpt lat="41.61400952637434" lon="14.246485562532804"><ele>462.3333333333333</ele><time>2026-04-25T05:48:52Z</time></trkpt><trkpt lat="41.61397245611575" lon="14.246376944709587"><ele>462.66666666666663</ele><time>2026-04-25T05:48:55Z</time></trkpt><trkpt lat="41.61389750163282" lon="14.246311725021782"><ele>463.0</ele><time>2026-04-25T05:48:58Z</time></trkpt><trkpt lat="41.61380644276932" lon="14.24629221965159"><ele>463.3333333333333</ele><time>2026-04-25T05:49:01Z</time></trkpt><trkpt lat="41.6137347373275" lon="14.246250762509243"><ele>463.66666666666663</ele><time>2026-04-25T05:49:04Z</time></trkpt><trkpt lat="41.613688867684886" lon="14.246160417572897"><ele>464.0</ele><time>2026-04-25T05:49:07Z</time></trkpt><trkpt lat="41.6136558750298" lon="14.246086758581145"><ele>463.99999999999994</ele><time>2026-04-25T05:49:09Z</time></trkpt><trkpt lat="41.61362026647389" lon="14.245986267758285"><ele>464.0</ele><time>2026-04-25T05:49:12Z</time></trkpt><trkpt lat="41.613543084975" lon="14.245954835233718"><ele>464.0</ele><time>2026-04-25T05:49:15Z</time></trkpt><trkpt lat="41.61346086623224" lon="14.24595472395645"><ele>464.0</ele><time>2026-04-25T05:49:18Z</time></trkpt><trkpt lat="41.613377905808164" lon="14.245926607571747"><ele>463.99999999999994</ele><time>2026-04-25T05:49:21Z</time></trkpt><trkpt lat="41.61330192543834" lon="14.24587486226984"><ele>464.0</ele><time>2026-04-25T05:49:24Z</time></trkpt><trkpt lat="41.613250825053434" lon="14.245816373797169"><ele>463.99999999999994</ele><time>2026-04-25T05:49:26Z</time></trkpt><trkpt lat="41.61316863854763" lon="14.24575540612017"><ele>464.0</ele><time>2026-04-25T05:49:29Z</time></trkpt><trkpt lat="41.613095315960386" lon="14.24570928378836"><ele>464.0</ele><time>2026-04-25T05:49:32Z</time></trkpt><trkpt lat="41.613009339194164" lon="14.245670442926631"><ele>464.0</ele><time>2026-04-25T05:49:35Z</time></trkpt><trkpt lat="41.61292404794757" lon="14.245641552228543"><ele>463.99999999999994</ele><time>2026-04-25T05:49:38Z</time></trkpt><trkpt lat="41.6128493731269" lon="14.245616475824805"><ele>464.0</ele><time>2026-04-25T05:49:41Z</time></trkpt><trkpt lat="41.61278656662863" lon="14.245610030106944"><ele>463.99999999999994</ele><time>2026-04-25T05:49:43Z</time></trkpt><trkpt lat="41.61270055932982" lon="14.245616197315133"><ele>464.0</ele><time>2026-04-25T05:49:46Z</time></trkpt><trkpt lat="41.6126252323172" lon="14.245639074837836"><ele>464.0</ele><time>2026-04-25T05:49:49Z</time></trkpt><trkpt lat="41.61253313725956" lon="14.245654242673735"><ele>464.0</ele><time>2026-04-25T05:49:52Z</time></trkpt><trkpt lat="41.612454979863905" lon="14.245667103776661"><ele>463.99999999999994</ele><time>2026-04-25T05:49:55Z</time></trkpt><trkpt lat="41.61236822943157" lon="14.24566820254359"><ele>464.0</ele><time>2026-04-25T05:49:58Z</time></trkpt><trkpt lat="41.61228206128419" lon="14.245648367465348"><ele>463.99999999999994</ele><time>2026-04-25T05:50:01Z</time></trkpt><trkpt lat="41.61219336839008" lon="14.245615637931664"><ele>464.0</ele><time>2026-04-25T05:50:04Z</time></trkpt><trkpt lat="41.6121178111049" lon="14.245598836891888"><ele>464.0</ele><time>2026-04-25T05:50:07Z</time></trkpt><trkpt lat="41.612036614666025" lon="14.245631163698674"><ele>464.0</ele><time>2026-04-25T05:50:10Z</time></trkpt><trkpt lat="41.611967555183135" lon="14.24564909647904"><ele>463.99999999999994</ele><time>2026-04-25T05:50:13Z</time></trkpt><trkpt lat="41.6118952451367" lon="14.245683412789305"><ele>464.0</ele><time>2026-04-25T05:50:16Z</time></trkpt><trkpt lat="41.61182928962478" lon="14.245739344721928"><ele>463.99999999999994</ele><time>2026-04-25T05:50:18Z</time></trkpt><trkpt lat="41.611765192684075" lon="14.245750696955513"><ele>464.0</ele><time>2026-04-25T05:50:21Z</time></trkpt><trkpt lat="41.61168706306109" lon="14.24578923362301"><ele>464.0</ele><time>2026-04-25T05:50:24Z</time></trkpt><trkpt lat="41.61160294218206" lon="14.245823844313625"><ele>464.0</ele><time>2026-04-25T05:50:27Z</time></trkpt><trkpt lat="41.61152998210213" lon="14.245785083383259"><ele>463.99999999999994</ele><time>2026-04-25T05:50:30Z</time></trkpt><trkpt lat="41.611476171556895" lon="14.245719335162546"><ele>464.0</ele><time>2026-04-25T05:50:33Z</time></trkpt><trkpt lat="41.61142904986826" lon="14.245637087748038"><ele>464.16666666666663</ele><time>2026-04-25T05:50:36Z</time></trkpt><trkpt lat="41.6113804229449" lon="14.245543438904777"><ele>464.3333333333333</ele><time>2026-04-25T05:50:39Z</time></trkpt><trkpt lat="41.611342369327566" lon="14.245456231982837"><ele>464.5</ele><time>2026-04-25T05:50:42Z</time></trkpt><trkpt lat="41.61130442819067" lon="14.245366423300887"><ele>464.66666666666663</ele><time>2026-04-25T05:50:45Z</time></trkpt><trkpt lat="41.61127169837249" lon="14.24526760127524"><ele>464.8333333333333</ele><time>2026-04-25T05:50:48Z</time></trkpt><trkpt lat="41.61122715204253" lon="14.245172856338527"><ele>465.0</ele><time>2026-04-25T05:50:51Z</time></trkpt><trkpt lat="41.61118094274256" lon="14.245078107715722"><ele>464.8333333333333</ele><time>2026-04-25T05:50:54Z</time></trkpt><trkpt lat="41.61114698386159" lon="14.244970070059125"><ele>464.66666666666663</ele><time>2026-04-25T05:50:57Z</time></trkpt><trkpt lat="41.611064174413464" lon="14.244934325957034"><ele>464.5</ele><time>2026-04-25T05:51:00Z</time></trkpt><trkpt lat="41.61100823720831" lon="14.244979821379511"><ele>464.3333333333333</ele><time>2026-04-25T05:51:02Z</time></trkpt><trkpt lat="41.61095010845859" lon="14.245039946066557"><ele>464.16666666666663</ele><time>2026-04-25T05:51:05Z</time></trkpt><trkpt lat="41.610878710571214" lon="14.245105381191932"><ele>464.0</ele><time>2026-04-25T05:51:08Z</time></trkpt><trkpt lat="41.61079996015473" lon="14.245169078805922"><ele>463.99999999999994</ele><time>2026-04-25T05:51:11Z</time></trkpt><trkpt lat="41.61072546104474" lon="14.245231227855482"><ele>464.0</ele><time>2026-04-25T05:51:14Z</time></trkpt><trkpt lat="41.61066115110227" lon="14.245289339601339"><ele>464.0</ele><time>2026-04-25T05:51:17Z</time></trkpt><trkpt lat="41.61059288611615" lon="14.245362972746003"><ele>464.0</ele><time>2026-04-25T05:51:20Z</time></trkpt><trkpt lat="41.61054176056332" lon="14.245455899193038"><ele>463.99999999999994</ele><time>2026-04-25T05:51:23Z</time></trkpt><trkpt lat="41.61049094445984" lon="14.24550916730343"><ele>464.0</ele><time>2026-04-25T05:51:25Z</time></trkpt><trkpt lat="41.61042768692005" lon="14.245582264522563"><ele>464.16666666666663</ele><time>2026-04-25T05:51:28Z</time></trkpt><trkpt lat="41.61037083937404" lon="14.245644846933027"><ele>464.3333333333333</ele><time>2026-04-25T05:51:31Z</time></trkpt><trkpt lat="41.610294970427816" lon="14.245705441157664"><ele>464.5</ele><time>2026-04-25T05:51:34Z</time></trkpt><trkpt lat="41.61022526951579" lon="14.24577213040631"><ele>464.66666666666663</ele><time>2026-04-25T05:51:37Z</time></trkpt><trkpt lat="41.610171358358606" lon="14.24583449807188"><ele>464.8333333333333</ele><time>2026-04-25T05:51:40Z</time></trkpt><trkpt lat="41.61008893690306" lon="14.245870463874873"><ele>465.0</ele><time>2026-04-25T05:51:43Z</time></trkpt><trkpt lat="41.61004416660214" lon="14.245933366648947"><ele>465.0</ele><time>2026-04-25T05:51:45Z</time></trkpt><trkpt lat="41.60998572651293" lon="14.246006919653649"><ele>465.0</ele><time>2026-04-25T05:51:48Z</time></trkpt><trkpt lat="41.609903398691266" lon="14.24605150587174"><ele>465.0</ele><time>2026-04-25T05:51:51Z</time></trkpt><trkpt lat="41.60983152694746" lon="14.246117419411684"><ele>465.0</ele><time>2026-04-25T05:51:54Z</time></trkpt><trkpt lat="41.609758094713534" lon="14.246175452577562"><ele>465.0</ele><time>2026-04-25T05:51:57Z</time></trkpt><trkpt lat="41.6096902721734" lon="14.246238305134273"><ele>465.0</ele><time>2026-04-25T05:52:00Z</time></trkpt><trkpt lat="41.60962205357154" lon="14.246305284527049"><ele>465.0</ele><time>2026-04-25T05:52:03Z</time></trkpt><trkpt lat="41.6095564459272" lon="14.246376426630954"><ele>465.0</ele><time>2026-04-25T05:52:06Z</time></trkpt><trkpt lat="41.60948866864797" lon="14.246448937558537"><ele>465.0</ele><time>2026-04-25T05:52:09Z</time></trkpt><trkpt lat="41.609426734107146" lon="14.24650744483809"><ele>465.0</ele><time>2026-04-25T05:52:12Z</time></trkpt><trkpt lat="41.60936766203813" lon="14.246593726263924"><ele>465.0</ele><time>2026-04-25T05:52:15Z</time></trkpt><trkpt lat="41.609314952099844" lon="14.246668592830272"><ele>465.0</ele><time>2026-04-25T05:52:18Z</time></trkpt><trkpt lat="41.609273719267065" lon="14.246732501338114"><ele>464.6666666666667</ele><time>2026-04-25T05:52:20Z</time></trkpt><trkpt lat="41.609221501550124" lon="14.246791977273212"><ele>464.33333333333337</ele><time>2026-04-25T05:52:23Z</time></trkpt><trkpt lat="41.609152799452275" lon="14.246865647349626"><ele>464.0</ele><time>2026-04-25T05:52:26Z</time></trkpt><trkpt lat="41.60910052295794" lon="14.24695376777523"><ele>463.6666666666667</ele><time>2026-04-25T05:52:29Z</time></trkpt><trkpt lat="41.609046663562964" lon="14.247046171954326"><ele>463.33333333333337</ele><time>2026-04-25T05:52:32Z</time></trkpt><trkpt lat="41.60897459184804" lon="14.247117804900558"><ele>463.0</ele><time>2026-04-25T05:52:35Z</time></trkpt><trkpt lat="41.60891545310814" lon="14.24720467525819"><ele>463.00000000000006</ele><time>2026-04-25T05:52:38Z</time></trkpt><trkpt lat="41.60887836419725" lon="14.247274285855651"><ele>463.0</ele><time>2026-04-25T05:52:40Z</time></trkpt><trkpt lat="41.608835247748885" lon="14.24736702214622"><ele>463.0</ele><time>2026-04-25T05:52:43Z</time></trkpt><trkpt lat="41.60878820567012" lon="14.247463443927641"><ele>463.0</ele><time>2026-04-25T05:52:46Z</time></trkpt><trkpt lat="41.608735291371914" lon="14.247552837666188"><ele>463.00000000000006</ele><time>2026-04-25T05:52:49Z</time></trkpt><trkpt lat="41.608684568473336" lon="14.247641123685915"><ele>463.0</ele><time>2026-04-25T05:52:52Z</time></trkpt><trkpt lat="41.60862860043827" lon="14.24773277577172"><ele>462.83333333333337</ele><time>2026-04-25T05:52:55Z</time></trkpt><trkpt lat="41.608581960921924" lon="14.247832600056991"><ele>462.6666666666667</ele><time>2026-04-25T05:52:58Z</time></trkpt><trkpt lat="41.60852468221787" lon="14.247923986254047"><ele>462.5</ele><time>2026-04-25T05:53:01Z</time></trkpt><trkpt lat="41.60846709496612" lon="14.247976042746545"><ele>462.33333333333337</ele><time>2026-04-25T05:53:04Z</time></trkpt><trkpt lat="41.60839940206384" lon="14.247949961176921"><ele>462.1666666666667</ele><time>2026-04-25T05:53:07Z</time></trkpt><trkpt lat="41.60835219142469" lon="14.24788916648495"><ele>462.0</ele><time>2026-04-25T05:53:09Z</time></trkpt><trkpt lat="41.60827735205834" lon="14.24781819826344"><ele>462.0</ele><time>2026-04-25T05:53:12Z</time></trkpt><trkpt lat="41.608209725988054" lon="14.247762990665327"><ele>462.0</ele><time>2026-04-25T05:53:15Z</time></trkpt><trkpt lat="41.60814179047422" lon="14.247694908412186"><ele>462.0</ele><time>2026-04-25T05:53:18Z</time></trkpt><trkpt lat="41.60806439448207" lon="14.247653459745145"><ele>462.0</ele><time>2026-04-25T05:53:21Z</time></trkpt><trkpt lat="41.607985732892814" lon="14.247612484507522"><ele>462.0</ele><time>2026-04-25T05:53:24Z</time></trkpt><trkpt lat="41.607907776043106" lon="14.247574373091853"><ele>462.0</ele><time>2026-04-25T05:53:27Z</time></trkpt><trkpt lat="41.60783216523362" lon="14.247532808890659"><ele>462.0</ele><time>2026-04-25T05:53:30Z</time></trkpt><trkpt lat="41.607772328886725" lon="14.247475949530237"><ele>462.0</ele><time>2026-04-25T05:53:33Z</time></trkpt><trkpt lat="41.60770537600002" lon="14.247391405088988"><ele>462.0</ele><time>2026-04-25T05:53:36Z</time></trkpt><trkpt lat="41.607635160529654" lon="14.247319520519959"><ele>462.0</ele><time>2026-04-25T05:53:39Z</time></trkpt><trkpt lat="41.60757183562941" lon="14.247248228810008"><ele>462.0</ele><time>2026-04-25T05:53:42Z</time></trkpt><trkpt lat="41.607503686466515" lon="14.24716142753529"><ele>462.0</ele><time>2026-04-25T05:53:45Z</time></trkpt><trkpt lat="41.60743944200151" lon="14.247101823837445"><ele>462.0</ele><time>2026-04-25T05:53:48Z</time></trkpt><trkpt lat="41.60736788275698" lon="14.24705071353671"><ele>462.0</ele><time>2026-04-25T05:53:51Z</time></trkpt><trkpt lat="41.60729719535399" lon="14.246982465562397"><ele>462.0</ele><time>2026-04-25T05:53:54Z</time></trkpt><trkpt lat="41.607208378245446" lon="14.246972553537233"><ele>462.0</ele><time>2026-04-25T05:53:57Z</time></trkpt><trkpt lat="41.60713587709726" lon="14.246942746392023"><ele>462.0</ele><time>2026-04-25T05:54:00Z</time></trkpt><trkpt lat="41.607052543503876" lon="14.246912574576786"><ele>462.0</ele><time>2026-04-25T05:54:03Z</time></trkpt><trkpt lat="41.60697757600774" lon="14.246880962357306"><ele>462.0</ele><time>2026-04-25T05:54:06Z</time></trkpt><trkpt lat="41.60689714381553" lon="14.246845272473957"><ele>462.0</ele><time>2026-04-25T05:54:09Z</time></trkpt><trkpt lat="41.606827243635756" lon="14.246812137055823"><ele>462.0</ele><time>2026-04-25T05:54:12Z</time></trkpt><trkpt lat="41.60677453265371" lon="14.24673848131494"><ele>462.0</ele><time>2026-04-25T05:54:14Z</time></trkpt><trkpt lat="41.6067041271316" lon="14.246670049022015"><ele>462.0</ele><time>2026-04-25T05:54:17Z</time></trkpt><trkpt lat="41.60664118430316" lon="14.246580211175901"><ele>462.0</ele><time>2026-04-25T05:54:20Z</time></trkpt><trkpt lat="41.60660849613112" lon="14.246501881200514"><ele>462.1666666666667</ele><time>2026-04-25T05:54:22Z</time></trkpt><trkpt lat="41.60656013240067" lon="14.246413029627469"><ele>462.33333333333337</ele><time>2026-04-25T05:54:25Z</time></trkpt><trkpt lat="41.6065011112595" lon="14.24633850140388"><ele>462.5</ele><time>2026-04-25T05:54:28Z</time></trkpt><trkpt lat="41.606452577677" lon="14.246251455330665"><ele>462.6666666666667</ele><time>2026-04-25T05:54:31Z</time></trkpt><trkpt lat="41.60640069533509" lon="14.246174081697877"><ele>462.83333333333337</ele><time>2026-04-25T05:54:34Z</time></trkpt><trkpt lat="41.606351393557844" lon="14.246080669244824"><ele>463.0</ele><time>2026-04-25T05:54:37Z</time></trkpt><trkpt lat="41.606293025014324" lon="14.246008086818343"><ele>463.00000000000006</ele><time>2026-04-25T05:54:40Z</time></trkpt><trkpt lat="41.6062485386064" lon="14.24589711327089"><ele>463.0</ele><time>2026-04-25T05:54:43Z</time></trkpt><trkpt lat="41.60619362906617" lon="14.245821335312783"><ele>463.0</ele><time>2026-04-25T05:54:46Z</time></trkpt><trkpt lat="41.60612988138044" lon="14.245741972747291"><ele>463.0</ele><time>2026-04-25T05:54:49Z</time></trkpt><trkpt lat="41.6060800353191" lon="14.245650232266039"><ele>463.00000000000006</ele><time>2026-04-25T05:54:52Z</time></trkpt><trkpt lat="41.6060344236069" lon="14.245567937778242"><ele>463.0</ele><time>2026-04-25T05:54:55Z</time></trkpt><trkpt lat="41.605969348131595" lon="14.24550287872223"><ele>462.83333333333337</ele><time>2026-04-25T05:54:58Z</time></trkpt><trkpt lat="41.605889508884125" lon="14.245414638055625"><ele>462.6666666666667</ele><time>2026-04-25T05:55:01Z</time></trkpt><trkpt lat="41.60581137409719" lon="14.245342032061851"><ele>462.5</ele><time>2026-04-25T05:55:04Z</time></trkpt><trkpt lat="41.60576828819268" lon="14.245278555203765"><ele>462.33333333333337</ele><time>2026-04-25T05:55:06Z</time></trkpt><trkpt lat="41.60570015299431" lon="14.245232468034207"><ele>462.1666666666667</ele><time>2026-04-25T05:55:09Z</time></trkpt><trkpt lat="41.605644319519584" lon="14.24517989002524"><ele>462.0</ele><time>2026-04-25T05:55:11Z</time></trkpt><trkpt lat="41.60559034802523" lon="14.245110710546816"><ele>462.0</ele><time>2026-04-25T05:55:14Z</time></trkpt><trkpt lat="41.605555537201866" lon="14.24500770148698"><ele>462.0</ele><time>2026-04-25T05:55:17Z</time></trkpt><trkpt lat="41.60550580060989" lon="14.244919300419658"><ele>462.0</ele><time>2026-04-25T05:55:20Z</time></trkpt><trkpt lat="41.60546996981486" lon="14.244822676332962"><ele>462.0</ele><time>2026-04-25T05:55:23Z</time></trkpt><trkpt lat="41.605427445465644" lon="14.24473088465563"><ele>462.0</ele><time>2026-04-25T05:55:26Z</time></trkpt><trkpt lat="41.60538869760316" lon="14.244664500570522"><ele>462.0</ele><time>2026-04-25T05:55:28Z</time></trkpt><trkpt lat="41.60533517510027" lon="14.244572669623823"><ele>461.8333333333333</ele><time>2026-04-25T05:55:31Z</time></trkpt><trkpt lat="41.60528120553657" lon="14.244488539359098"><ele>461.66666666666663</ele><time>2026-04-25T05:55:34Z</time></trkpt><trkpt lat="41.60525069575688" lon="14.244396369167315"><ele>461.5</ele><time>2026-04-25T05:55:37Z</time></trkpt><trkpt lat="41.60524900600877" lon="14.244294143901444"><ele>461.3333333333333</ele><time>2026-04-25T05:55:39Z</time></trkpt><trkpt lat="41.60519291300048" lon="14.244200922787408"><ele>461.16666666666663</ele><time>2026-04-25T05:55:42Z</time></trkpt><trkpt lat="41.60515851593971" lon="14.244123565781097"><ele>461.0</ele><time>2026-04-25T05:55:44Z</time></trkpt><trkpt lat="41.60513663265884" lon="14.244039723499844"><ele>460.99999999999994</ele><time>2026-04-25T05:55:46Z</time></trkpt><trkpt lat="41.60506247784462" lon="14.243968234819276"><ele>461.0</ele><time>2026-04-25T05:55:49Z</time></trkpt><trkpt lat="41.60500298838007" lon="14.24393993118752"><ele>461.0</ele><time>2026-04-25T05:55:51Z</time></trkpt><trkpt lat="41.60493596241042" lon="14.243896477067363"><ele>461.0</ele><time>2026-04-25T05:55:54Z</time></trkpt><trkpt lat="41.60486545292507" lon="14.243839947466933"><ele>460.99999999999994</ele><time>2026-04-25T05:55:57Z</time></trkpt><trkpt lat="41.60480021581326" lon="14.243761761522052"><ele>461.0</ele><time>2026-04-25T05:56:00Z</time></trkpt><trkpt lat="41.604735734083235" lon="14.243693915091757"><ele>460.99999999999994</ele><time>2026-04-25T05:56:03Z</time></trkpt><trkpt lat="41.60467458734395" lon="14.24360357473606"><ele>461.0</ele><time>2026-04-25T05:56:06Z</time></trkpt><trkpt lat="41.604619388479534" lon="14.243517276827752"><ele>461.0</ele><time>2026-04-25T05:56:09Z</time></trkpt><trkpt lat="41.60458403340897" lon="14.243411273933726"><ele>461.0</ele><time>2026-04-25T05:56:12Z</time></trkpt><trkpt lat="41.60454221998" lon="14.24330540748685"><ele>460.99999999999994</ele><time>2026-04-25T05:56:15Z</time></trkpt><trkpt lat="41.604493506797695" lon="14.243196608120297"><ele>461.0</ele><time>2026-04-25T05:56:18Z</time></trkpt><trkpt lat="41.60444165221844" lon="14.243141739131316"><ele>461.6</ele><time>2026-04-25T05:56:20Z</time></trkpt><trkpt lat="41.604361684855554" lon="14.24308041172234"><ele>462.20000000000005</ele><time>2026-04-25T05:56:23Z</time></trkpt><trkpt lat="41.60430034922064" lon="14.242987919156976"><ele>462.79999999999995</ele><time>2026-04-25T05:56:26Z</time></trkpt><trkpt lat="41.604240191846884" lon="14.242898598917137"><ele>463.4</ele><time>2026-04-25T05:56:29Z</time></trkpt><trkpt lat="41.60418122479155" lon="14.242807835785355"><ele>464.0</ele><time>2026-04-25T05:56:32Z</time></trkpt><trkpt lat="41.60411701415623" lon="14.24271632677322"><ele>463.99999999999994</ele><time>2026-04-25T05:56:35Z</time></trkpt><trkpt lat="41.60405501232032" lon="14.242628673989923"><ele>464.0</ele><time>2026-04-25T05:56:38Z</time></trkpt><trkpt lat="41.60400215585867" lon="14.242531216711962"><ele>464.0</ele><time>2026-04-25T05:56:41Z</time></trkpt><trkpt lat="41.603951845144984" lon="14.242473721876184"><ele>464.0</ele><time>2026-04-25T05:56:43Z</time></trkpt><trkpt lat="41.603906669126246" lon="14.242403987887986"><ele>463.99999999999994</ele><time>2026-04-25T05:56:45Z</time></trkpt><trkpt lat="41.603863098995475" lon="14.24233107580256"><ele>464.0</ele><time>2026-04-25T05:56:47Z</time></trkpt><trkpt lat="41.60380681769451" lon="14.242280614295984"><ele>463.99999999999994</ele><time>2026-04-25T05:56:49Z</time></trkpt><trkpt lat="41.60372048838655" lon="14.242240887437184"><ele>464.0</ele><time>2026-04-25T05:56:52Z</time></trkpt><trkpt lat="41.603657060375724" lon="14.242276536124566"><ele>464.0</ele><time>2026-04-25T05:56:54Z</time></trkpt><trkpt lat="41.6035721653418" lon="14.242337969727483"><ele>464.0</ele><time>2026-04-25T05:56:57Z</time></trkpt><trkpt lat="41.603525396350584" lon="14.242415977561759"><ele>463.99999999999994</ele><time>2026-04-25T05:57:00Z</time></trkpt><trkpt lat="41.60345141802314" lon="14.242481250916455"><ele>464.0</ele><time>2026-04-25T05:57:03Z</time></trkpt><trkpt lat="41.60336650654086" lon="14.242512928340847"><ele>463.66666666666663</ele><time>2026-04-25T05:57:06Z</time></trkpt><trkpt lat="41.603275462818" lon="14.24251538230224"><ele>463.3333333333333</ele><time>2026-04-25T05:57:09Z</time></trkpt><trkpt lat="41.60318849428109" lon="14.24251915058894"><ele>463.0</ele><time>2026-04-25T05:57:12Z</time></trkpt><trkpt lat="41.60312446553535" lon="14.242555661227888"><ele>462.66666666666663</ele><time>2026-04-25T05:57:14Z</time></trkpt><trkpt lat="41.60306143031267" lon="14.242563245907995"><ele>462.3333333333333</ele><time>2026-04-25T05:57:16Z</time></trkpt><trkpt lat="41.60298449333838" lon="14.242633157185999"><ele>462.0</ele><time>2026-04-25T05:57:20Z</time></trkpt><trkpt lat="41.602922457208855" lon="14.242694776009998"><ele>462.0</ele><time>2026-04-25T05:57:23Z</time></trkpt><trkpt lat="41.60284361030276" lon="14.242744767016749"><ele>462.0</ele><time>2026-04-25T05:57:26Z</time></trkpt><trkpt lat="41.60277170104829" lon="14.242785194968343"><ele>462.0</ele><time>2026-04-25T05:57:29Z</time></trkpt><trkpt lat="41.60271173062659" lon="14.242823248432021"><ele>462.0</ele><time>2026-04-25T05:57:31Z</time></trkpt><trkpt lat="41.60264500835944" lon="14.242889258140924"><ele>462.0</ele><time>2026-04-25T05:57:34Z</time></trkpt><trkpt lat="41.602555749351396" lon="14.242917986868578"><ele>462.0</ele><time>2026-04-25T05:57:37Z</time></trkpt><trkpt lat="41.60248932968867" lon="14.242983327179822"><ele>462.0</ele><time>2026-04-25T05:57:40Z</time></trkpt><trkpt lat="41.60240969828298" lon="14.243023740609063"><ele>462.0</ele><time>2026-04-25T05:57:43Z</time></trkpt><trkpt lat="41.60235440756759" lon="14.24309546993902"><ele>462.0</ele><time>2026-04-25T05:57:46Z</time></trkpt><trkpt lat="41.60230748581138" lon="14.243170799929212"><ele>462.0</ele><time>2026-04-25T05:57:48Z</time></trkpt><trkpt lat="41.60227972187673" lon="14.24327368949752"><ele>462.0</ele><time>2026-04-25T05:57:51Z</time></trkpt><trkpt lat="41.602286799299264" lon="14.243378585830335"><ele>462.0</ele><time>2026-04-25T05:57:54Z</time></trkpt><trkpt lat="41.6022684374685" lon="14.243489110720585"><ele>462.0</ele><time>2026-04-25T05:57:57Z</time></trkpt><trkpt lat="41.602254282674494" lon="14.24357582469692"><ele>462.0</ele><time>2026-04-25T05:57:59Z</time></trkpt><trkpt lat="41.60225034654886" lon="14.243692084962332"><ele>462.0</ele><time>2026-04-25T05:58:02Z</time></trkpt><trkpt lat="41.60224893498488" lon="14.243816180581115"><ele>462.0</ele><time>2026-04-25T05:58:05Z</time></trkpt><trkpt lat="41.60225353739159" lon="14.24392215477491"><ele>462.0</ele><time>2026-04-25T05:58:08Z</time></trkpt><trkpt lat="41.60225131242364" lon="14.244035731092621"><ele>462.0</ele><time>2026-04-25T05:58:11Z</time></trkpt><trkpt lat="41.6022540862206" lon="14.244157067159785"><ele>461.8333333333333</ele><time>2026-04-25T05:58:14Z</time></trkpt><trkpt lat="41.60226502252769" lon="14.244257727038418"><ele>461.66666666666663</ele><time>2026-04-25T05:58:17Z</time></trkpt><trkpt lat="41.60227698150946" lon="14.244372094452443"><ele>461.5</ele><time>2026-04-25T05:58:20Z</time></trkpt><trkpt lat="41.60227273822084" lon="14.24449001407965"><ele>461.3333333333333</ele><time>2026-04-25T05:58:23Z</time></trkpt><trkpt lat="41.60227796162698" lon="14.244590354582195"><ele>461.16666666666663</ele><time>2026-04-25T05:58:26Z</time></trkpt><trkpt lat="41.6022642584185" lon="14.244674879753488"><ele>461.0</ele><time>2026-04-25T05:58:28Z</time></trkpt><trkpt lat="41.602269707373914" lon="14.24477662038346"><ele>461.49999999999994</ele><time>2026-04-25T05:58:31Z</time></trkpt><trkpt lat="41.602262734366185" lon="14.244881940630382"><ele>462.0</ele><time>2026-04-25T05:58:34Z</time></trkpt><trkpt lat="41.60226224824659" lon="14.24498633939959"><ele>462.5</ele><time>2026-04-25T05:58:37Z</time></trkpt><trkpt lat="41.60226815427195" lon="14.24509139628314"><ele>463.0</ele><time>2026-04-25T05:58:40Z</time></trkpt><trkpt lat="41.60224625426008" lon="14.245191977033146"><ele>463.49999999999994</ele><time>2026-04-25T05:58:43Z</time></trkpt><trkpt lat="41.602215981484775" lon="14.245304331670908"><ele>464.0</ele><time>2026-04-25T05:58:46Z</time></trkpt><trkpt lat="41.60219763868193" lon="14.245391675303145"><ele>463.99999999999994</ele><time>2026-04-25T05:58:49Z</time></trkpt><trkpt lat="41.60216012770639" lon="14.245505368851667"><ele>464.0</ele><time>2026-04-25T05:58:52Z</time></trkpt><trkpt lat="41.60212856557288" lon="14.24561073901305"><ele>464.0</ele><time>2026-04-25T05:58:55Z</time></trkpt><trkpt lat="41.60209284566256" lon="14.24571606650284"><ele>464.0</ele><time>2026-04-25T05:58:58Z</time></trkpt><trkpt lat="41.60207557038945" lon="14.245835475727482"><ele>463.99999999999994</ele><time>2026-04-25T05:59:01Z</time></trkpt><trkpt lat="41.602096684398994" lon="14.245919654940815"><ele>464.0</ele><time>2026-04-25T05:59:03Z</time></trkpt><trkpt lat="41.60211932186613" lon="14.245999963863321"><ele>463.66666666666663</ele><time>2026-04-25T05:59:05Z</time></trkpt><trkpt lat="41.602146538167204" lon="14.24610361881875"><ele>463.3333333333333</ele><time>2026-04-25T05:59:08Z</time></trkpt><trkpt lat="41.60218459009876" lon="14.24619956560653"><ele>463.0</ele><time>2026-04-25T05:59:11Z</time></trkpt><trkpt lat="41.602219977343786" lon="14.246301199270688"><ele>462.66666666666663</ele><time>2026-04-25T05:59:14Z</time></trkpt><trkpt lat="41.60224702178067" lon="14.246408521689284"><ele>462.3333333333333</ele><time>2026-04-25T05:59:17Z</time></trkpt><trkpt lat="41.60230194158383" lon="14.246492495760773"><ele>462.0</ele><time>2026-04-25T05:59:20Z</time></trkpt><trkpt lat="41.60232434151407" lon="14.246572788234914"><ele>461.6666666666667</ele><time>2026-04-25T05:59:22Z</time></trkpt><trkpt lat="41.602372067116015" lon="14.24666904824134"><ele>461.33333333333337</ele><time>2026-04-25T05:59:25Z</time></trkpt><trkpt lat="41.60242281234963" lon="14.24675603232501"><ele>461.0</ele><time>2026-04-25T05:59:28Z</time></trkpt><trkpt lat="41.60246879472316" lon="14.246853087037454"><ele>460.6666666666667</ele><time>2026-04-25T05:59:31Z</time></trkpt><trkpt lat="41.602514663283394" lon="14.246937691473265"><ele>460.33333333333337</ele><time>2026-04-25T05:59:34Z</time></trkpt><trkpt lat="41.60255519934436" lon="14.247037990527492"><ele>460.0</ele><time>2026-04-25T05:59:37Z</time></trkpt><trkpt lat="41.60260779191756" lon="14.247125831247654"><ele>460.00000000000006</ele><time>2026-04-25T05:59:40Z</time></trkpt><trkpt lat="41.602649602348066" lon="14.247217203455593"><ele>460.0</ele><time>2026-04-25T05:59:43Z</time></trkpt><trkpt lat="41.6026773584875" lon="14.247322313472958"><ele>460.0</ele><time>2026-04-25T05:59:46Z</time></trkpt><trkpt lat="41.60271647752794" lon="14.24742819420495"><ele>460.0</ele><time>2026-04-25T05:59:49Z</time></trkpt><trkpt lat="41.60274790962327" lon="14.247534037402644"><ele>460.00000000000006</ele><time>2026-04-25T05:59:52Z</time></trkpt><trkpt lat="41.60278917440973" lon="14.24763979180375"><ele>460.0</ele><time>2026-04-25T05:59:55Z</time></trkpt><trkpt lat="41.60285281449698" lon="14.247712237197053"><ele>460.1666666666667</ele><time>2026-04-25T05:59:58Z</time></trkpt><trkpt lat="41.602924448462865" lon="14.247780336367391"><ele>460.33333333333337</ele><time>2026-04-25T06:00:01Z</time></trkpt><trkpt lat="41.60301159252275" lon="14.24780969285198"><ele>460.5</ele><time>2026-04-25T06:00:04Z</time></trkpt><trkpt lat="41.603097780079025" lon="14.247821165885037"><ele>460.66666666666663</ele><time>2026-04-25T06:00:07Z</time></trkpt><trkpt lat="41.603177356440305" lon="14.247851419284295"><ele>460.8333333333333</ele><time>2026-04-25T06:00:10Z</time></trkpt><trkpt lat="41.60325231611511" lon="14.247888672161046"><ele>461.0</ele><time>2026-04-25T06:00:13Z</time></trkpt><trkpt lat="41.60332792641616" lon="14.247935992044445"><ele>460.99999999999994</ele><time>2026-04-25T06:00:16Z</time></trkpt><trkpt lat="41.603395503868" lon="14.247986769911348"><ele>461.0</ele><time>2026-04-25T06:00:19Z</time></trkpt><trkpt lat="41.603470439607754" lon="14.2480416632012"><ele>461.0</ele><time>2026-04-25T06:00:22Z</time></trkpt><trkpt lat="41.60354344734727" lon="14.248102728367032"><ele>461.0</ele><time>2026-04-25T06:00:25Z</time></trkpt><trkpt lat="41.60361573376513" lon="14.248153579359508"><ele>460.99999999999994</ele><time>2026-04-25T06:00:28Z</time></trkpt><trkpt lat="41.60367380398026" lon="14.248227131514334"><ele>461.0</ele><time>2026-04-25T06:00:31Z</time></trkpt><trkpt lat="41.603732487517746" lon="14.24830574213982"><ele>461.16666666666663</ele><time>2026-04-25T06:00:34Z</time></trkpt><trkpt lat="41.60379192118492" lon="14.248394892500906"><ele>461.3333333333333</ele><time>2026-04-25T06:00:37Z</time></trkpt><trkpt lat="41.60385085082583" lon="14.248471105926685"><ele>461.5</ele><time>2026-04-25T06:00:40Z</time></trkpt><trkpt lat="41.6039138879494" lon="14.248548465825728"><ele>461.66666666666663</ele><time>2026-04-25T06:00:43Z</time></trkpt><trkpt lat="41.60398285432626" lon="14.248605582093791"><ele>461.8333333333333</ele><time>2026-04-25T06:00:46Z</time></trkpt><trkpt lat="41.604024768793316" lon="14.248689884003003"><ele>462.0</ele><time>2026-04-25T06:00:49Z</time></trkpt><trkpt lat="41.60406991615773" lon="14.248779720024878"><ele>462.0</ele><time>2026-04-25T06:00:52Z</time></trkpt><trkpt lat="41.60410227821836" lon="14.248881831979265"><ele>462.0</ele><time>2026-04-25T06:00:55Z</time></trkpt><trkpt lat="41.604126600192316" lon="14.24898040638675"><ele>462.0</ele><time>2026-04-25T06:00:58Z</time></trkpt><trkpt lat="41.60414513103474" lon="14.249103278858883"><ele>462.0</ele><time>2026-04-25T06:01:01Z</time></trkpt><trkpt lat="41.604161349393095" lon="14.249197946482644"><ele>462.0</ele><time>2026-04-25T06:01:04Z</time></trkpt><trkpt lat="41.60420192334373" lon="14.249296552760933"><ele>462.0</ele><time>2026-04-25T06:01:07Z</time></trkpt><trkpt lat="41.60423723705305" lon="14.249397708679341"><ele>462.0</ele><time>2026-04-25T06:01:10Z</time></trkpt><trkpt lat="41.60427322238412" lon="14.2494937268532"><ele>462.0</ele><time>2026-04-25T06:01:13Z</time></trkpt><trkpt lat="41.604304853109824" lon="14.24959357933589"><ele>462.0</ele><time>2026-04-25T06:01:16Z</time></trkpt><trkpt lat="41.6043394013361" lon="14.249693409994824"><ele>462.0</ele><time>2026-04-25T06:01:19Z</time></trkpt><trkpt lat="41.604378232674954" lon="14.249788341131886"><ele>462.0</ele><time>2026-04-25T06:01:22Z</time></trkpt><trkpt lat="41.604432618442345" lon="14.249867880793042"><ele>462.0</ele><time>2026-04-25T06:01:25Z</time></trkpt><trkpt lat="41.60448232614805" lon="14.249961123898403"><ele>461.8333333333333</ele><time>2026-04-25T06:01:28Z</time></trkpt><trkpt lat="41.60454014663319" lon="14.250035259643678"><ele>461.66666666666663</ele><time>2026-04-25T06:01:31Z</time></trkpt><trkpt lat="41.60459506148618" lon="14.250116470599691"><ele>461.5</ele><time>2026-04-25T06:01:34Z</time></trkpt><trkpt lat="41.60466105907151" lon="14.250188245570513"><ele>461.3333333333333</ele><time>2026-04-25T06:01:37Z</time></trkpt><trkpt lat="41.60472255542292" lon="14.250255963425406"><ele>461.16666666666663</ele><time>2026-04-25T06:01:40Z</time></trkpt><trkpt lat="41.6047921414949" lon="14.250315482993688"><ele>461.0</ele><time>2026-04-25T06:01:43Z</time></trkpt><trkpt lat="41.60487156823964" lon="14.25034680993137"><ele>460.99999999999994</ele><time>2026-04-25T06:01:46Z</time></trkpt><trkpt lat="41.604956573923886" lon="14.250360988434261"><ele>461.0</ele><time>2026-04-25T06:01:49Z</time></trkpt><trkpt lat="41.60503717074432" lon="14.250348486811255"><ele>461.0</ele><time>2026-04-25T06:01:52Z</time></trkpt><trkpt lat="41.605116304914" lon="14.250316949272577"><ele>461.0</ele><time>2026-04-25T06:01:55Z</time></trkpt><trkpt lat="41.60519709821106" lon="14.250289673757937"><ele>460.99999999999994</ele><time>2026-04-25T06:01:58Z</time></trkpt><trkpt lat="41.60528099312236" lon="14.250262260400424"><ele>461.0</ele><time>2026-04-25T06:02:01Z</time></trkpt><trkpt lat="41.60535826134435" lon="14.250217427872679"><ele>461.16666666666663</ele><time>2026-04-25T06:02:04Z</time></trkpt><trkpt lat="41.6054285434387" lon="14.250180279473918"><ele>461.3333333333333</ele><time>2026-04-25T06:02:07Z</time></trkpt><trkpt lat="41.60551323878399" lon="14.250151570171928"><ele>461.5</ele><time>2026-04-25T06:02:10Z</time></trkpt><trkpt lat="41.6055905983106" lon="14.25010036365859"><ele>461.66666666666663</ele><time>2026-04-25T06:02:13Z</time></trkpt><trkpt lat="41.60567274301912" lon="14.250069480279889"><ele>461.8333333333333</ele><time>2026-04-25T06:02:16Z</time></trkpt><trkpt lat="41.605742975341094" lon="14.250027252553949"><ele>462.0</ele><time>2026-04-25T06:02:19Z</time></trkpt><trkpt lat="41.60583175997297" lon="14.250016760797418"><ele>462.0</ele><time>2026-04-25T06:02:22Z</time></trkpt><trkpt lat="41.605906008298945" lon="14.250010896809236"><ele>462.0</ele><time>2026-04-25T06:02:25Z</time></trkpt><trkpt lat="41.60598633831179" lon="14.2500132771119"><ele>462.0</ele><time>2026-04-25T06:02:28Z</time></trkpt><trkpt lat="41.60607044222037" lon="14.250049331496449"><ele>462.0</ele><time>2026-04-25T06:02:32Z</time></trkpt><trkpt lat="41.6061401805051" lon="14.25012022274387"><ele>462.0</ele><time>2026-04-25T06:02:35Z</time></trkpt><trkpt lat="41.60618018620083" lon="14.250202035773947"><ele>462.0</ele><time>2026-04-25T06:02:38Z</time></trkpt><trkpt lat="41.60622458909715" lon="14.250298750014425"><ele>462.0</ele><time>2026-04-25T06:02:41Z</time></trkpt><trkpt lat="41.60626098320219" lon="14.250400292232113"><ele>462.0</ele><time>2026-04-25T06:02:44Z</time></trkpt><trkpt lat="41.60629710248023" lon="14.2505063186714"><ele>462.0</ele><time>2026-04-25T06:02:47Z</time></trkpt><trkpt lat="41.60633935243944" lon="14.250607250326771"><ele>462.0</ele><time>2026-04-25T06:02:50Z</time></trkpt><trkpt lat="41.60634946035518" lon="14.250697683093957"><ele>462.0</ele><time>2026-04-25T06:02:53Z</time></trkpt><trkpt lat="41.606384408459945" lon="14.250812022021274"><ele>462.0</ele><time>2026-04-25T06:02:56Z</time></trkpt><trkpt lat="41.60639559946277" lon="14.250916567361589"><ele>462.0</ele><time>2026-04-25T06:02:59Z</time></trkpt><trkpt lat="41.60643926283801" lon="14.251024980036194"><ele>462.0</ele><time>2026-04-25T06:03:02Z</time></trkpt><trkpt lat="41.60645479419726" lon="14.251123575110658"><ele>462.0</ele><time>2026-04-25T06:03:05Z</time></trkpt><trkpt lat="41.60648270421113" lon="14.251226431678738"><ele>462.0</ele><time>2026-04-25T06:03:08Z</time></trkpt><trkpt lat="41.606501305772014" lon="14.251335547814595"><ele>462.0</ele><time>2026-04-25T06:03:11Z</time></trkpt><trkpt lat="41.60653034431861" lon="14.251442127859079"><ele>462.0</ele><time>2026-04-25T06:03:14Z</time></trkpt><trkpt lat="41.60654229654528" lon="14.251551891723084"><ele>462.1666666666667</ele><time>2026-04-25T06:03:17Z</time></trkpt><trkpt lat="41.60656142374796" lon="14.25166164178194"><ele>462.33333333333337</ele><time>2026-04-25T06:03:20Z</time></trkpt><trkpt lat="41.60658727279012" lon="14.251756786887578"><ele>462.5</ele><time>2026-04-25T06:03:23Z</time></trkpt><trkpt lat="41.60660362393991" lon="14.251871968071807"><ele>462.6666666666667</ele><time>2026-04-25T06:03:26Z</time></trkpt><trkpt lat="41.60662397659829" lon="14.251993879666768"><ele>462.83333333333337</ele><time>2026-04-25T06:03:29Z</time></trkpt><trkpt lat="41.606661136710215" lon="14.252082001699693"><ele>463.0</ele><time>2026-04-25T06:03:32Z</time></trkpt><trkpt lat="41.606708953102896" lon="14.252182450833212"><ele>463.00000000000006</ele><time>2026-04-25T06:03:35Z</time></trkpt><trkpt lat="41.60676436218417" lon="14.252259005027511"><ele>463.0</ele><time>2026-04-25T06:03:38Z</time></trkpt><trkpt lat="41.60681847199266" lon="14.252338478250275"><ele>463.0</ele><time>2026-04-25T06:03:41Z</time></trkpt><trkpt lat="41.60687363902115" lon="14.252421915048252"><ele>463.0</ele><time>2026-04-25T06:03:44Z</time></trkpt><trkpt lat="41.60692170325026" lon="14.252509289622822"><ele>463.00000000000006</ele><time>2026-04-25T06:03:47Z</time></trkpt><trkpt lat="41.6069765925353" lon="14.25259972605335"><ele>463.0</ele><time>2026-04-25T06:03:50Z</time></trkpt><trkpt lat="41.60702503025044" lon="14.252679612832367"><ele>462.83333333333337</ele><time>2026-04-25T06:03:53Z</time></trkpt><trkpt lat="41.60708006932622" lon="14.252778261102351"><ele>462.6666666666667</ele><time>2026-04-25T06:03:56Z</time></trkpt><trkpt lat="41.60711796232836" lon="14.252866852702718"><ele>462.5</ele><time>2026-04-25T06:03:59Z</time></trkpt><trkpt lat="41.6071623602289" lon="14.252960156742278"><ele>462.33333333333337</ele><time>2026-04-25T06:04:02Z</time></trkpt><trkpt lat="41.60720652985023" lon="14.253064311072075"><ele>462.1666666666667</ele><time>2026-04-25T06:04:05Z</time></trkpt><trkpt lat="41.60726259626216" lon="14.25315431651868"><ele>462.0</ele><time>2026-04-25T06:04:08Z</time></trkpt><trkpt lat="41.60730512567438" lon="14.253241136804732"><ele>462.6666666666667</ele><time>2026-04-25T06:04:11Z</time></trkpt><trkpt lat="41.60735045028188" lon="14.2533467382855"><ele>463.33333333333337</ele><time>2026-04-25T06:04:14Z</time></trkpt><trkpt lat="41.607396418723305" lon="14.253431051495788"><ele>464.0</ele><time>2026-04-25T06:04:17Z</time></trkpt><trkpt lat="41.607431695228655" lon="14.253516682979006"><ele>464.6666666666667</ele><time>2026-04-25T06:04:20Z</time></trkpt><trkpt lat="41.60746709669921" lon="14.253607437139339"><ele>465.33333333333337</ele><time>2026-04-25T06:04:23Z</time></trkpt><trkpt lat="41.60751384426503" lon="14.25369651384004"><ele>466.0</ele><time>2026-04-25T06:04:26Z</time></trkpt><trkpt lat="41.6075603066099" lon="14.253784528052881"><ele>466.00000000000006</ele><time>2026-04-25T06:04:29Z</time></trkpt><trkpt lat="41.60761257622518" lon="14.253879764050987"><ele>466.0</ele><time>2026-04-25T06:04:32Z</time></trkpt><trkpt lat="41.607653254641235" lon="14.253965100192172"><ele>466.0</ele><time>2026-04-25T06:04:35Z</time></trkpt><trkpt lat="41.60770313666113" lon="14.254061797727976"><ele>466.0</ele><time>2026-04-25T06:04:38Z</time></trkpt><trkpt lat="41.60773006740706" lon="14.254142491291542"><ele>466.00000000000006</ele><time>2026-04-25T06:04:41Z</time></trkpt><trkpt lat="41.607757562412864" lon="14.25423618486527"><ele>466.0</ele><time>2026-04-25T06:04:44Z</time></trkpt><trkpt lat="41.607778634626264" lon="14.254329050947554"><ele>466.50000000000006</ele><time>2026-04-25T06:04:47Z</time></trkpt><trkpt lat="41.60780295596116" lon="14.254433109985772"><ele>467.0</ele><time>2026-04-25T06:04:50Z</time></trkpt><trkpt lat="41.60782203498886" lon="14.254532497434331"><ele>467.5</ele><time>2026-04-25T06:04:53Z</time></trkpt><trkpt lat="41.607848968947266" lon="14.254631445595274"><ele>468.0</ele><time>2026-04-25T06:04:56Z</time></trkpt><trkpt lat="41.607865401257804" lon="14.25474664065798"><ele>468.50000000000006</ele><time>2026-04-25T06:04:59Z</time></trkpt><trkpt lat="41.60787688979524" lon="14.254851650282326"><ele>469.0</ele><time>2026-04-25T06:05:02Z</time></trkpt><trkpt lat="41.60789489893122" lon="14.254963261000508"><ele>469.50000000000006</ele><time>2026-04-25T06:05:05Z</time></trkpt><trkpt lat="41.60789998916773" lon="14.255080556987737"><ele>470.0</ele><time>2026-04-25T06:05:08Z</time></trkpt><trkpt lat="41.60791996279059" lon="14.255186706265087"><ele>470.5</ele><time>2026-04-25T06:05:11Z</time></trkpt><trkpt lat="41.60794023909897" lon="14.25528787907228"><ele>471.0</ele><time>2026-04-25T06:05:14Z</time></trkpt><trkpt lat="41.607954460090546" lon="14.255401182334772"><ele>471.50000000000006</ele><time>2026-04-25T06:05:17Z</time></trkpt><trkpt lat="41.607977329745104" lon="14.255504539830806"><ele>472.0</ele><time>2026-04-25T06:05:20Z</time></trkpt><trkpt lat="41.60803172665078" lon="14.255568700428903"><ele>472.00000000000006</ele><time>2026-04-25T06:05:23Z</time></trkpt><trkpt lat="41.60809290630988" lon="14.25559386771764"><ele>472.0</ele><time>2026-04-25T06:05:25Z</time></trkpt><trkpt lat="41.60817844703151" lon="14.255584362082846"><ele>472.0</ele><time>2026-04-25T06:05:28Z</time></trkpt><trkpt lat="41.608263292783604" lon="14.255575077802396"><ele>472.0</ele><time>2026-04-25T06:05:31Z</time></trkpt><trkpt lat="41.60832604255446" lon="14.25556047658506"><ele>472.00000000000006</ele><time>2026-04-25T06:05:33Z</time></trkpt><trkpt lat="41.6084010966953" lon="14.25551657195301"><ele>472.0</ele><time>2026-04-25T06:05:36Z</time></trkpt><trkpt lat="41.60847992440746" lon="14.255479100064752"><ele>472.00000000000006</ele><time>2026-04-25T06:05:39Z</time></trkpt><trkpt lat="41.60856106378859" lon="14.255424232310748"><ele>472.0</ele><time>2026-04-25T06:05:42Z</time></trkpt><trkpt lat="41.60864731392484" lon="14.255387130989144"><ele>472.0</ele><time>2026-04-25T06:05:45Z</time></trkpt><trkpt lat="41.60873053508216" lon="14.255337267782474"><ele>472.0</ele><time>2026-04-25T06:05:48Z</time></trkpt><trkpt lat="41.60879481409391" lon="14.255280287695168"><ele>472.00000000000006</ele><time>2026-04-25T06:05:51Z</time></trkpt><trkpt lat="41.608859127841114" lon="14.25524453658288"><ele>472.0</ele><time>2026-04-25T06:05:53Z</time></trkpt><trkpt lat="41.60892280973577" lon="14.255214195264951"><ele>472.00000000000006</ele><time>2026-04-25T06:05:55Z</time></trkpt><trkpt lat="41.60899489999031" lon="14.2551513999087"><ele>472.0</ele><time>2026-04-25T06:05:58Z</time></trkpt><trkpt lat="41.60906793297356" lon="14.25508930740554"><ele>472.0</ele><time>2026-04-25T06:06:01Z</time></trkpt><trkpt lat="41.60913478117137" lon="14.255051228619605"><ele>472.0</ele><time>2026-04-25T06:06:03Z</time></trkpt><trkpt lat="41.60920426144135" lon="14.255014644421935"><ele>472.00000000000006</ele><time>2026-04-25T06:06:06Z</time></trkpt><trkpt lat="41.6092682297771" lon="14.254982823637393"><ele>472.0</ele><time>2026-04-25T06:06:09Z</time></trkpt><trkpt lat="41.609353644973226" lon="14.254937825274586"><ele>472.00000000000006</ele><time>2026-04-25T06:06:12Z</time></trkpt><trkpt lat="41.609435915008845" lon="14.254924945765117"><ele>472.0</ele><time>2026-04-25T06:06:14Z</time></trkpt><trkpt lat="41.60949921483127" lon="14.25490255490226"><ele>472.0</ele><time>2026-04-25T06:06:16Z</time></trkpt><trkpt lat="41.60957912062602" lon="14.25486624597241"><ele>472.0</ele><time>2026-04-25T06:06:19Z</time></trkpt><trkpt lat="41.60966027287514" lon="14.254813302505273"><ele>472.00000000000006</ele><time>2026-04-25T06:06:22Z</time></trkpt><trkpt lat="41.60972375787165" lon="14.254753755028629"><ele>472.0</ele><time>2026-04-25T06:06:25Z</time></trkpt><trkpt lat="41.60979033027184" lon="14.254694492523754"><ele>471.1666666666667</ele><time>2026-04-25T06:06:28Z</time></trkpt><trkpt lat="41.60985661781592" lon="14.25465730009478"><ele>470.33333333333337</ele><time>2026-04-25T06:06:30Z</time></trkpt><trkpt lat="41.60993668184851" lon="14.254625505479344"><ele>469.5</ele><time>2026-04-25T06:06:33Z</time></trkpt><trkpt lat="41.61000872220387" lon="14.254580499840994"><ele>468.66666666666663</ele><time>2026-04-25T06:06:36Z</time></trkpt><trkpt lat="41.610055841440044" lon="14.254520704814565"><ele>467.8333333333333</ele><time>2026-04-25T06:06:38Z</time></trkpt><trkpt lat="41.610135632166354" lon="14.254466586637461"><ele>467.0</ele><time>2026-04-25T06:06:41Z</time></trkpt><trkpt lat="41.61021087156174" lon="14.254418419793561"><ele>466.99999999999994</ele><time>2026-04-25T06:06:44Z</time></trkpt><trkpt lat="41.61027699459071" lon="14.254378283403657"><ele>467.0</ele><time>2026-04-25T06:06:47Z</time></trkpt><trkpt lat="41.61034628585389" lon="14.254333779210445"><ele>467.0</ele><time>2026-04-25T06:06:49Z</time></trkpt><trkpt lat="41.61042418476069" lon="14.254319570478671"><ele>467.0</ele><time>2026-04-25T06:06:52Z</time></trkpt><trkpt lat="41.61050543446908" lon="14.25433349844172"><ele>466.99999999999994</ele><time>2026-04-25T06:06:55Z</time></trkpt><trkpt lat="41.61056426777795" lon="14.25438333501348"><ele>467.0</ele><time>2026-04-25T06:06:57Z</time></trkpt><trkpt lat="41.61060277293826" lon="14.254489078950895"><ele>466.8571428571428</ele><time>2026-04-25T06:06:59Z</time></trkpt><trkpt lat="41.610631104128544" lon="14.254587201619149"><ele>466.71428571428567</ele><time>2026-04-25T06:07:01Z</time></trkpt><trkpt lat="41.610686320915825" lon="14.254636928900128"><ele>466.57142857142856</ele><time>2026-04-25T06:07:03Z</time></trkpt><trkpt lat="41.61071314915604" lon="14.254715149462486"><ele>466.4285714285714</ele><time>2026-04-25T06:07:05Z</time></trkpt><trkpt lat="41.61075202359057" lon="14.254790686005727"><ele>466.2857142857142</ele><time>2026-04-25T06:07:07Z</time></trkpt><trkpt lat="41.61078935652378" lon="14.254860119970475"><ele>466.14285714285717</ele><time>2026-04-25T06:07:09Z</time></trkpt><trkpt lat="41.61083077187749" lon="14.254971124844053"><ele>466.0</ele><time>2026-04-25T06:07:12Z</time></trkpt><trkpt lat="41.61088517079061" lon="14.255018249919921"><ele>466.42857142857144</ele><time>2026-04-25T06:07:14Z</time></trkpt><trkpt lat="41.61092831400945" lon="14.255087521301903"><ele>466.85714285714283</ele><time>2026-04-25T06:07:16Z</time></trkpt><trkpt lat="41.611010875078705" lon="14.255134801430733"><ele>467.2857142857143</ele><time>2026-04-25T06:07:19Z</time></trkpt><trkpt lat="41.61109684053083" lon="14.255117269608283"><ele>467.7142857142857</ele><time>2026-04-25T06:07:22Z</time></trkpt><trkpt lat="41.61115486157685" lon="14.255081923840532"><ele>468.1428571428571</ele><time>2026-04-25T06:07:24Z</time></trkpt><trkpt lat="41.61120769036993" lon="14.255017712230734"><ele>468.57142857142856</ele><time>2026-04-25T06:07:26Z</time></trkpt><trkpt lat="41.61125918347951" lon="14.254956036235985"><ele>469.0</ele><time>2026-04-25T06:07:28Z</time></trkpt><trkpt lat="41.61132607526679" lon="14.25488758162732"><ele>468.7142857142857</ele><time>2026-04-25T06:07:31Z</time></trkpt><trkpt lat="41.611395690557735" lon="14.254861849124826"><ele>468.42857142857144</ele><time>2026-04-25T06:07:33Z</time></trkpt><trkpt lat="41.61145032505156" lon="14.254812033012165"><ele>468.1428571428571</ele><time>2026-04-25T06:07:35Z</time></trkpt><trkpt lat="41.611502266904566" lon="14.254750935013314"><ele>467.85714285714283</ele><time>2026-04-25T06:07:37Z</time></trkpt><trkpt lat="41.61158949736159" lon="14.254691659705951"><ele>467.57142857142856</ele><time>2026-04-25T06:07:40Z</time></trkpt><trkpt lat="41.6116472122306" lon="14.25465262541967"><ele>467.2857142857142</ele><time>2026-04-25T06:07:42Z</time></trkpt><trkpt lat="41.61171936094526" lon="14.254613627673034"><ele>466.99999999999994</ele><time>2026-04-25T06:07:44Z</time></trkpt><trkpt lat="41.611787475077705" lon="14.25459381805323"><ele>466.99999999999994</ele><time>2026-04-25T06:07:46Z</time></trkpt><trkpt lat="41.61186277334583" lon="14.254542353058607"><ele>467.0</ele><time>2026-04-25T06:07:49Z</time></trkpt><trkpt lat="41.611929175543004" lon="14.254538803230435"><ele>467.0</ele><time>2026-04-25T06:07:51Z</time></trkpt><trkpt lat="41.61202184073696" lon="14.254523360675348"><ele>467.0</ele><time>2026-04-25T06:07:54Z</time></trkpt><trkpt lat="41.6121008494019" lon="14.254524382969114"><ele>466.99999999999994</ele><time>2026-04-25T06:07:57Z</time></trkpt><trkpt lat="41.612166501180326" lon="14.254515482854295"><ele>467.0</ele><time>2026-04-25T06:07:59Z</time></trkpt><trkpt lat="41.61223394561516" lon="14.254497465331989"><ele>466.99999999999994</ele><time>2026-04-25T06:08:01Z</time></trkpt><trkpt lat="41.612312025884535" lon="14.254518245631267"><ele>467.0</ele><time>2026-04-25T06:08:04Z</time></trkpt><trkpt lat="41.612407442198794" lon="14.254505501059887"><ele>467.0</ele><time>2026-04-25T06:08:07Z</time></trkpt><trkpt lat="41.61247003022826" lon="14.254493241336615"><ele>467.0</ele><time>2026-04-25T06:08:09Z</time></trkpt><trkpt lat="41.61253961534494" lon="14.254513821891946"><ele>466.99999999999994</ele><time>2026-04-25T06:08:11Z</time></trkpt><trkpt lat="41.61262968345545" lon="14.254576467314571"><ele>467.0</ele><time>2026-04-25T06:08:14Z</time></trkpt><trkpt lat="41.61271987392819" lon="14.254592432447835"><ele>466.99999999999994</ele><time>2026-04-25T06:08:17Z</time></trkpt><trkpt lat="41.61279379468609" lon="14.254635494189737"><ele>467.0</ele><time>2026-04-25T06:08:20Z</time></trkpt><trkpt lat="41.612883996216276" lon="14.25464992870999"><ele>467.0</ele><time>2026-04-25T06:08:23Z</time></trkpt><trkpt lat="41.61296372245254" lon="14.254677211371792"><ele>467.0</ele><time>2026-04-25T06:08:26Z</time></trkpt><trkpt lat="41.61305190514527" lon="14.254729749198624"><ele>466.99999999999994</ele><time>2026-04-25T06:08:29Z</time></trkpt><trkpt lat="41.613132352219935" lon="14.25473158013521"><ele>467.0</ele><time>2026-04-25T06:08:31Z</time></trkpt><trkpt lat="41.613194567306806" lon="14.254745385864371"><ele>466.49999999999994</ele><time>2026-04-25T06:08:33Z</time></trkpt><trkpt lat="41.61328612341488" lon="14.254768641685736"><ele>466.0</ele><time>2026-04-25T06:08:36Z</time></trkpt><trkpt lat="41.613358798580485" lon="14.254799391638093"><ele>465.5</ele><time>2026-04-25T06:08:39Z</time></trkpt><trkpt lat="41.61343681783645" lon="14.2548251107787"><ele>465.0</ele><time>2026-04-25T06:08:42Z</time></trkpt><trkpt lat="41.61350833127277" lon="14.254855162962814"><ele>464.49999999999994</ele><time>2026-04-25T06:08:44Z</time></trkpt><trkpt lat="41.613596139175264" lon="14.254901463059468"><ele>464.0</ele><time>2026-04-25T06:08:47Z</time></trkpt><trkpt lat="41.61368388661714" lon="14.254912958124281"><ele>464.00000000000006</ele><time>2026-04-25T06:08:50Z</time></trkpt><trkpt lat="41.61375060660726" lon="14.254903770886136"><ele>464.0</ele><time>2026-04-25T06:08:52Z</time></trkpt><trkpt lat="41.61379273346405" lon="14.25483010244369"><ele>464.00000000000006</ele><time>2026-04-25T06:08:54Z</time></trkpt><trkpt lat="41.61382888326215" lon="14.25473183264164"><ele>464.00000000000006</ele><time>2026-04-25T06:08:57Z</time></trkpt><trkpt lat="41.613845848611845" lon="14.254629429257381"><ele>464.0</ele><time>2026-04-25T06:09:00Z</time></trkpt><trkpt lat="41.613794804616326" lon="14.254570039275904"><ele>464.00000000000006</ele><time>2026-04-25T06:09:02Z</time></trkpt><trkpt lat="41.6137409451809" lon="14.254519824885794"><ele>464.00000000000006</ele><time>2026-04-25T06:09:04Z</time></trkpt><trkpt lat="41.61369867001058" lon="14.254455860028719"><ele>463.8333333333333</ele><time>2026-04-25T06:09:06Z</time></trkpt><trkpt lat="41.61363606993016" lon="14.254419140900076"><ele>463.66666666666663</ele><time>2026-04-25T06:09:08Z</time></trkpt><trkpt lat="41.613565665095926" lon="14.25434144683023"><ele>463.5</ele><time>2026-04-25T06:09:11Z</time></trkpt><trkpt lat="41.61352731943749" lon="14.254273470821536"><ele>463.33333333333337</ele><time>2026-04-25T06:09:13Z</time></trkpt><trkpt lat="41.61347892343419" lon="14.254177390954194"><ele>463.1666666666667</ele><time>2026-04-25T06:09:16Z</time></trkpt><trkpt lat="41.61343816179038" lon="14.254094003686966"><ele>463.0</ele><time>2026-04-25T06:09:19Z</time></trkpt><trkpt lat="41.613417228584986" lon="14.253993417276748"><ele>463.0</ele><time>2026-04-25T06:09:21Z</time></trkpt><trkpt lat="41.6133855472148" lon="14.253890518182429"><ele>462.99999999999994</ele><time>2026-04-25T06:09:24Z</time></trkpt><trkpt lat="41.61335815748884" lon="14.253772630183803"><ele>462.99999999999994</ele><time>2026-04-25T06:09:27Z</time></trkpt><trkpt lat="41.61333238011703" lon="14.25366185763418"><ele>463.0</ele><time>2026-04-25T06:09:30Z</time></trkpt><trkpt lat="41.613304298229146" lon="14.253545969621157"><ele>463.0</ele><time>2026-04-25T06:09:33Z</time></trkpt><trkpt lat="41.61324525813107" lon="14.253441531955842"><ele>463.00000000000006</ele><time>2026-04-25T06:09:36Z</time></trkpt><trkpt lat="41.6132044565815" lon="14.253377380244876"><ele>463.0</ele><time>2026-04-25T06:09:38Z</time></trkpt><trkpt lat="41.6131499757916" lon="14.25327641460975"><ele>463.0</ele><time>2026-04-25T06:09:41Z</time></trkpt><trkpt lat="41.61310977704757" lon="14.253167410218401"><ele>463.0</ele><time>2026-04-25T06:09:44Z</time></trkpt><trkpt lat="41.61305758723305" lon="14.253063136350127"><ele>463.00000000000006</ele><time>2026-04-25T06:09:47Z</time></trkpt><trkpt lat="41.61303818977152" lon="14.25294748045419"><ele>463.0</ele><time>2026-04-25T06:09:50Z</time></trkpt><trkpt lat="41.61301267777433" lon="14.252842846230884"><ele>463.1428571428571</ele><time>2026-04-25T06:09:53Z</time></trkpt><trkpt lat="41.61299378765292" lon="14.252747956081299"><ele>463.2857142857142</ele><time>2026-04-25T06:09:55Z</time></trkpt><trkpt lat="41.612983877489725" lon="14.252661905759478"><ele>463.42857142857144</ele><time>2026-04-25T06:09:57Z</time></trkpt><trkpt lat="41.61294644476315" lon="14.2525504818533"><ele>463.57142857142856</ele><time>2026-04-25T06:10:00Z</time></trkpt><trkpt lat="41.61292480013852" lon="14.25247067932276"><ele>463.7142857142857</ele><time>2026-04-25T06:10:02Z</time></trkpt><trkpt lat="41.61290721758263" lon="14.252353828914691"><ele>463.8571428571429</ele><time>2026-04-25T06:10:05Z</time></trkpt><trkpt lat="41.61287191953881" lon="14.25228045905081"><ele>464.00000000000006</ele><time>2026-04-25T06:10:07Z</time></trkpt><trkpt lat="41.612849255953755" lon="14.25219847245711"><ele>463.99999999999994</ele><time>2026-04-25T06:10:09Z</time></trkpt><trkpt lat="41.61282999145701" lon="14.252079673836482"><ele>464.0</ele><time>2026-04-25T06:10:12Z</time></trkpt><trkpt lat="41.61281729084172" lon="14.251969029375532"><ele>464.0</ele><time>2026-04-25T06:10:15Z</time></trkpt><trkpt lat="41.61280770102324" lon="14.25188091291961"><ele>464.0</ele><time>2026-04-25T06:10:17Z</time></trkpt><trkpt lat="41.61278929839589" lon="14.251791382628685"><ele>463.99999999999994</ele><time>2026-04-25T06:10:19Z</time></trkpt><trkpt lat="41.61274363929563" lon="14.251685519181507"><ele>464.0</ele><time>2026-04-25T06:10:22Z</time></trkpt><trkpt lat="41.61268290052642" lon="14.251599397262737"><ele>463.66666666666663</ele><time>2026-04-25T06:10:25Z</time></trkpt><trkpt lat="41.612644412002034" lon="14.251524727331931"><ele>463.3333333333333</ele><time>2026-04-25T06:10:27Z</time></trkpt><trkpt lat="41.61260812157037" lon="14.251422740365824"><ele>463.0</ele><time>2026-04-25T06:10:30Z</time></trkpt><trkpt lat="41.612569174904294" lon="14.251348178225161"><ele>462.66666666666663</ele><time>2026-04-25T06:10:32Z</time></trkpt><trkpt lat="41.61252133869237" lon="14.251242432957731"><ele>462.3333333333333</ele><time>2026-04-25T06:10:35Z</time></trkpt><trkpt lat="41.61249580675888" lon="14.251164630174387"><ele>462.0</ele><time>2026-04-25T06:10:37Z</time></trkpt><trkpt lat="41.612436823652615" lon="14.251058748208887"><ele>462.0</ele><time>2026-04-25T06:10:40Z</time></trkpt><trkpt lat="41.61238359446061" lon="14.250968621218727"><ele>462.0</ele><time>2026-04-25T06:10:43Z</time></trkpt><trkpt lat="41.61233682596915" lon="14.250909925114497"><ele>462.0</ele><time>2026-04-25T06:10:45Z</time></trkpt><trkpt lat="41.612273434741475" lon="14.25083312839151"><ele>462.0</ele><time>2026-04-25T06:10:48Z</time></trkpt><trkpt lat="41.61223208423575" lon="14.250741581322359"><ele>462.0</ele><time>2026-04-25T06:10:51Z</time></trkpt><trkpt lat="41.61217842288597" lon="14.25067102146496"><ele>462.0</ele><time>2026-04-25T06:10:53Z</time></trkpt><trkpt lat="41.612102977474215" lon="14.250610396825797"><ele>462.1666666666667</ele><time>2026-04-25T06:10:56Z</time></trkpt><trkpt lat="41.61202286379841" lon="14.250560689603809"><ele>462.33333333333337</ele><time>2026-04-25T06:10:59Z</time></trkpt><trkpt lat="41.611958126524925" lon="14.250550738098378"><ele>462.5</ele><time>2026-04-25T06:11:01Z</time></trkpt><trkpt lat="41.61187604613124" lon="14.250522532115118"><ele>462.6666666666667</ele><time>2026-04-25T06:11:04Z</time></trkpt><trkpt lat="41.61181727859424" lon="14.250492288899085"><ele>462.83333333333337</ele><time>2026-04-25T06:11:06Z</time></trkpt><trkpt lat="41.61174395533003" lon="14.25043669483858"><ele>463.0</ele><time>2026-04-25T06:11:09Z</time></trkpt><trkpt lat="41.61166560204686" lon="14.250395022143119"><ele>463.1666666666667</ele><time>2026-04-25T06:11:12Z</time></trkpt><trkpt lat="41.61161386234419" lon="14.250338327683506"><ele>463.33333333333337</ele><time>2026-04-25T06:11:14Z</time></trkpt><trkpt lat="41.61154276235301" lon="14.25026531328861"><ele>463.5</ele><time>2026-04-25T06:11:17Z</time></trkpt><trkpt lat="41.6115052815808" lon="14.250171270717649"><ele>463.66666666666663</ele><time>2026-04-25T06:11:20Z</time></trkpt><trkpt lat="41.61147154496323" lon="14.250069971923669"><ele>463.8333333333333</ele><time>2026-04-25T06:11:23Z</time></trkpt><trkpt lat="41.61146663480323" lon="14.249979482392908"><ele>464.0</ele><time>2026-04-25T06:11:25Z</time></trkpt><trkpt lat="41.61144450491553" lon="14.24987338860504"><ele>463.8571428571429</ele><time>2026-04-25T06:11:28Z</time></trkpt><trkpt lat="41.611425469243095" lon="14.249791213100307"><ele>463.7142857142857</ele><time>2026-04-25T06:11:30Z</time></trkpt><trkpt lat="41.611396968126286" lon="14.24970240167142"><ele>463.57142857142856</ele><time>2026-04-25T06:11:33Z</time></trkpt><trkpt lat="41.61144941740429" lon="14.249643350550246"><ele>463.42857142857144</ele><time>2026-04-25T06:11:36Z</time></trkpt><trkpt lat="41.61149153507378" lon="14.249577973830313"><ele>463.2857142857142</ele><time>2026-04-25T06:11:38Z</time></trkpt><trkpt lat="41.61153915015218" lon="14.24951619636864"><ele>463.1428571428571</ele><time>2026-04-25T06:11:40Z</time></trkpt><trkpt lat="41.61158132584262" lon="14.249418723553552"><ele>463.0</ele><time>2026-04-25T06:11:43Z</time></trkpt><trkpt lat="41.611616560418106" lon="14.249306136492322"><ele>463.0</ele><time>2026-04-25T06:11:46Z</time></trkpt><trkpt lat="41.61163740412584" lon="14.249223436871361"><ele>462.99999999999994</ele><time>2026-04-25T06:11:48Z</time></trkpt><trkpt lat="41.61167398081938" lon="14.249119155437377"><ele>463.0</ele><time>2026-04-25T06:11:51Z</time></trkpt><trkpt lat="41.61171203493963" lon="14.249040874686845"><ele>463.0</ele><time>2026-04-25T06:11:53Z</time></trkpt><trkpt lat="41.6117468738215" lon="14.248942236896116"><ele>462.99999999999994</ele><time>2026-04-25T06:11:56Z</time></trkpt><trkpt lat="41.611787053157364" lon="14.24887250413153"><ele>463.0</ele><time>2026-04-25T06:11:58Z</time></trkpt><trkpt lat="41.61184016432767" lon="14.248803894707466"><ele>463.0</ele><time>2026-04-25T06:12:00Z</time></trkpt><trkpt lat="41.611890015247276" lon="14.248717143957029"><ele>463.1666666666667</ele><time>2026-04-25T06:12:03Z</time></trkpt><trkpt lat="41.6119398798701" lon="14.248619541165192"><ele>463.33333333333337</ele><time>2026-04-25T06:12:06Z</time></trkpt><trkpt lat="41.61199154164327" lon="14.248560027202778"><ele>463.5</ele><time>2026-04-25T06:12:08Z</time></trkpt><trkpt lat="41.612041258728084" lon="14.248467790420818"><ele>463.66666666666663</ele><time>2026-04-25T06:12:11Z</time></trkpt><trkpt lat="41.61209034863583" lon="14.24836309610391"><ele>463.8333333333333</ele><time>2026-04-25T06:12:14Z</time></trkpt><trkpt lat="41.61216125550571" lon="14.248284606125825"><ele>464.0</ele><time>2026-04-25T06:12:17Z</time></trkpt><trkpt lat="41.61223374559484" lon="14.248226700281496"><ele>463.99999999999994</ele><time>2026-04-25T06:12:20Z</time></trkpt><trkpt lat="41.61231108702995" lon="14.248226749122978"><ele>464.0</ele><time>2026-04-25T06:12:23Z</time></trkpt><trkpt lat="41.61238171110048" lon="14.248293827854745"><ele>464.0</ele><time>2026-04-25T06:12:26Z</time></trkpt><trkpt lat="41.612439603068516" lon="14.24833415621895"><ele>464.0</ele><time>2026-04-25T06:12:28Z</time></trkpt><trkpt lat="41.61251345384856" lon="14.248365421739434"><ele>463.99999999999994</ele><time>2026-04-25T06:12:31Z</time></trkpt><trkpt lat="41.6126038376905" lon="14.24839382401272"><ele>464.0</ele><time>2026-04-25T06:12:34Z</time></trkpt><trkpt lat="41.612688241451615" lon="14.24843734812519"><ele>463.99999999999994</ele><time>2026-04-25T06:12:37Z</time></trkpt><trkpt lat="41.61276903845351" lon="14.24848193069613"><ele>464.0</ele><time>2026-04-25T06:12:40Z</time></trkpt><trkpt lat="41.612839491573716" lon="14.248555361943914"><ele>464.0</ele><time>2026-04-25T06:12:43Z</time></trkpt><trkpt lat="41.61291025420485" lon="14.248622640653663"><ele>464.0</ele><time>2026-04-25T06:12:46Z</time></trkpt><trkpt lat="41.61298079766126" lon="14.248689577722025"><ele>463.99999999999994</ele><time>2026-04-25T06:12:49Z</time></trkpt><trkpt lat="41.61306418255859" lon="14.248693427427483"><ele>464.0</ele><time>2026-04-25T06:12:52Z</time></trkpt><trkpt lat="41.61313605520744" lon="14.248627535249176"><ele>463.66666666666663</ele><time>2026-04-25T06:12:55Z</time></trkpt><trkpt lat="41.6132026037113" lon="14.248548465782845"><ele>463.3333333333333</ele><time>2026-04-25T06:12:58Z</time></trkpt><trkpt lat="41.613273806456576" lon="14.248476088396016"><ele>463.0</ele><time>2026-04-25T06:13:01Z</time></trkpt><trkpt lat="41.6133368446048" lon="14.248401596478622"><ele>462.66666666666663</ele><time>2026-04-25T06:13:04Z</time></trkpt><trkpt lat="41.61341250611993" lon="14.248332207358407"><ele>462.3333333333333</ele><time>2026-04-25T06:13:07Z</time></trkpt><trkpt lat="41.61347496493505" lon="14.24826020180433"><ele>462.0</ele><time>2026-04-25T06:13:10Z</time></trkpt><trkpt lat="41.6135533012112" lon="14.248197711603153"><ele>462.0</ele><time>2026-04-25T06:13:13Z</time></trkpt><trkpt lat="41.613614911772764" lon="14.248117765166079"><ele>462.0</ele><time>2026-04-25T06:13:16Z</time></trkpt><trkpt lat="41.61367106628709" lon="14.248067048323977"><ele>462.0</ele><time>2026-04-25T06:13:18Z</time></trkpt><trkpt lat="41.61372491039229" lon="14.248003352397811"><ele>462.0</ele><time>2026-04-25T06:13:21Z</time></trkpt><trkpt lat="41.61380751440516" lon="14.247928991413612"><ele>462.0</ele><time>2026-04-25T06:13:24Z</time></trkpt><trkpt lat="41.613866862345304" lon="14.247852080289679"><ele>462.0</ele><time>2026-04-25T06:13:27Z</time></trkpt><trkpt lat="41.61391833732442" lon="14.247777070277726"><ele>462.0</ele><time>2026-04-25T06:13:30Z</time></trkpt><trkpt lat="41.61397358413175" lon="14.2477060184339"><ele>462.0</ele><time>2026-04-25T06:13:33Z</time></trkpt><trkpt lat="41.614028978610406" lon="14.2476653244463"><ele>462.0</ele><time>2026-04-25T06:13:35Z</time></trkpt><trkpt lat="41.6140954778749" lon="14.247589398074114"><ele>462.0</ele><time>2026-04-25T06:13:38Z</time></trkpt><trkpt lat="41.614165443672654" lon="14.247523115068844"><ele>462.0</ele><time>2026-04-25T06:13:41Z</time></trkpt><trkpt lat="41.61422581438216" lon="14.247443208064922"><ele>462.0</ele><time>2026-04-25T06:13:44Z</time></trkpt><trkpt lat="41.61424459606485" lon="14.247323630730541"><ele>462.0</ele><time>2026-04-25T06:13:47Z</time></trkpt><trkpt lat="41.61422498565243" lon="14.247210252623868"><ele>462.0</ele><time>2026-04-25T06:13:50Z</time></trkpt><trkpt lat="41.61417034257305" lon="14.247110056808832"><ele>462.0</ele><time>2026-04-25T06:13:53Z</time></trkpt><trkpt lat="41.614141091789136" lon="14.24699912919113"><ele>462.0</ele><time>2026-04-25T06:13:56Z</time></trkpt><trkpt lat="41.614100410471615" lon="14.246903315179559"><ele>462.0</ele><time>2026-04-25T06:13:59Z</time></trkpt><trkpt lat="41.61409764380356" lon="14.246782712214246"><ele>462.0</ele><time>2026-04-25T06:14:02Z</time></trkpt><trkpt lat="41.614072915367636" lon="14.246653829465274"><ele>462.0</ele><time>2026-04-25T06:14:05Z</time></trkpt><trkpt lat="41.61405418206592" lon="14.246569177544966"><ele>462.0</ele><time>2026-04-25T06:14:08Z</time></trkpt><trkpt lat="41.614027281923825" lon="14.246491963567456"><ele>462.0</ele><time>2026-04-25T06:14:10Z</time></trkpt><trkpt lat="41.613991937089146" lon="14.246389148361732"><ele>462.0</ele><time>2026-04-25T06:14:13Z</time></trkpt><trkpt lat="41.61392415798699" lon="14.246301285934932"><ele>462.0</ele><time>2026-04-25T06:14:16Z</time></trkpt><trkpt lat="41.61384642913468" lon="14.246295062114461"><ele>462.0</ele><time>2026-04-25T06:14:18Z</time></trkpt><trkpt lat="41.613764323358396" lon="14.246266825744206"><ele>462.3333333333333</ele><time>2026-04-25T06:14:21Z</time></trkpt><trkpt lat="41.61371399933417" lon="14.246188209712761"><ele>462.66666666666663</ele><time>2026-04-25T06:14:24Z</time></trkpt><trkpt lat="41.613672434657445" lon="14.246124774241983"><ele>463.0</ele><time>2026-04-25T06:14:26Z</time></trkpt><trkpt lat="41.61362756504724" lon="14.246018201983214"><ele>463.3333333333333</ele><time>2026-04-25T06:14:29Z</time></trkpt><trkpt lat="41.61356065571109" lon="14.24594364427185"><ele>463.66666666666663</ele><time>2026-04-25T06:14:32Z</time></trkpt><trkpt lat="41.61346228271594" lon="14.245955644387235"><ele>464.0</ele><time>2026-04-25T06:14:35Z</time></trkpt><trkpt lat="41.61338848603042" lon="14.245938383671037"><ele>463.99999999999994</ele><time>2026-04-25T06:14:38Z</time></trkpt><trkpt lat="41.613303691946825" lon="14.24588091946811"><ele>464.0</ele><time>2026-04-25T06:14:41Z</time></trkpt><trkpt lat="41.61322688065054" lon="14.245821817617797"><ele>464.0</ele><time>2026-04-25T06:14:44Z</time></trkpt><trkpt lat="41.6131450457078" lon="14.245763513004116"><ele>464.0</ele><time>2026-04-25T06:14:47Z</time></trkpt><trkpt lat="41.61307929881348" lon="14.245701778435643"><ele>463.99999999999994</ele><time>2026-04-25T06:14:50Z</time></trkpt><trkpt lat="41.61302385731678" lon="14.245660293133975"><ele>464.0</ele><time>2026-04-25T06:14:52Z</time></trkpt><trkpt lat="41.612942549382865" lon="14.245626638193242"><ele>463.99999999999994</ele><time>2026-04-25T06:14:55Z</time></trkpt><trkpt lat="41.61287695935025" lon="14.245622645849043"><ele>464.0</ele><time>2026-04-25T06:14:57Z</time></trkpt><trkpt lat="41.61279418356451" lon="14.24560534802132"><ele>464.0</ele><time>2026-04-25T06:15:00Z</time></trkpt><trkpt lat="41.612702789213586" lon="14.245641281341792"><ele>464.0</ele><time>2026-04-25T06:15:03Z</time></trkpt><trkpt lat="41.612618811449586" lon="14.24566011521215"><ele>463.99999999999994</ele><time>2026-04-25T06:15:06Z</time></trkpt><trkpt lat="41.612533280107996" lon="14.245682531302045"><ele>464.0</ele><time>2026-04-25T06:15:09Z</time></trkpt><trkpt lat="41.61244328015552" lon="14.245691966418802"><ele>463.99999999999994</ele><time>2026-04-25T06:15:12Z</time></trkpt><trkpt lat="41.61236814680751" lon="14.24570338108298"><ele>464.0</ele><time>2026-04-25T06:15:15Z</time></trkpt><trkpt lat="41.61230602699812" lon="14.2456754294042"><ele>464.0</ele><time>2026-04-25T06:15:17Z</time></trkpt><trkpt lat="41.61222287325719" lon="14.245663624051232"><ele>464.0</ele><time>2026-04-25T06:15:20Z</time></trkpt><trkpt lat="41.61213982143628" lon="14.245636209320638"><ele>463.99999999999994</ele><time>2026-04-25T06:15:23Z</time></trkpt><trkpt lat="41.61206948081284" lon="14.245660822580806"><ele>464.0</ele><time>2026-04-25T06:15:26Z</time></trkpt><trkpt lat="41.611991816281" lon="14.245695343243622"><ele>463.99999999999994</ele><time>2026-04-25T06:15:29Z</time></trkpt><trkpt lat="41.61192708977856" lon="14.245711494956435"><ele>464.0</ele><time>2026-04-25T06:15:31Z</time></trkpt><trkpt lat="41.61186795308922" lon="14.245757945390359"><ele>464.0</ele><time>2026-04-25T06:15:33Z</time></trkpt><trkpt lat="41.61178500564131" lon="14.245780854457042"><ele>464.0</ele><time>2026-04-25T06:15:36Z</time></trkpt><trkpt lat="41.61170892380808" lon="14.245786598899445"><ele>463.99999999999994</ele><time>2026-04-25T06:15:38Z</time></trkpt><trkpt lat="41.611622469779796" lon="14.245820575852338"><ele>464.0</ele><time>2026-04-25T06:15:41Z</time></trkpt><trkpt lat="41.61153203368916" lon="14.245825682014752"><ele>463.99999999999994</ele><time>2026-04-25T06:15:44Z</time></trkpt><trkpt lat="41.61146149810334" lon="14.245744871790944"><ele>464.0</ele><time>2026-04-25T06:15:47Z</time></trkpt><trkpt lat="41.61141913337696" lon="14.245645754724496"><ele>464.0</ele><time>2026-04-25T06:15:50Z</time></trkpt><trkpt lat="41.61137527129262" lon="14.245545123023787"><ele>464.0</ele><time>2026-04-25T06:15:53Z</time></trkpt><trkpt lat="41.61131323835313" lon="14.245449000477214"><ele>463.99999999999994</ele><time>2026-04-25T06:15:56Z</time></trkpt><trkpt lat="41.61128130964272" lon="14.245345873504721"><ele>464.0</ele><time>2026-04-25T06:15:59Z</time></trkpt><trkpt lat="41.61123959387493" lon="14.24524758418888"><ele>463.99999999999994</ele><time>2026-04-25T06:16:02Z</time></trkpt><trkpt lat="41.61120827587812" lon="14.24514102636286"><ele>464.0</ele><time>2026-04-25T06:16:05Z</time></trkpt><trkpt lat="41.61116685344717" lon="14.245046552079042"><ele>464.0</ele><time>2026-04-25T06:16:08Z</time></trkpt><trkpt lat="41.61111308314413" lon="14.244968959340445"><ele>464.0</ele><time>2026-04-25T06:16:11Z</time></trkpt><trkpt lat="41.61102899682524" lon="14.244955311178"><ele>463.99999999999994</ele><time>2026-04-25T06:16:14Z</time></trkpt><trkpt lat="41.61097205325842" lon="14.245005390283954"><ele>464.0</ele><time>2026-04-25T06:16:16Z</time></trkpt><trkpt lat="41.61091089195914" lon="14.24508556344046"><ele>463.99999999999994</ele><time>2026-04-25T06:16:19Z</time></trkpt><trkpt lat="41.61083732460448" lon="14.245144745454121"><ele>464.0</ele><time>2026-04-25T06:16:22Z</time></trkpt><trkpt lat="41.610772023173936" lon="14.245224040929196"><ele>464.0</ele><time>2026-04-25T06:16:25Z</time></trkpt><trkpt lat="41.61071024385682" lon="14.245242350255571"><ele>464.0</ele><time>2026-04-25T06:16:27Z</time></trkpt><trkpt lat="41.61065634289878" lon="14.24530044285772"><ele>463.99999999999994</ele><time>2026-04-25T06:16:30Z</time></trkpt><trkpt lat="41.61059702765299" lon="14.245339567741436"><ele>464.0</ele><time>2026-04-25T06:16:32Z</time></trkpt><trkpt lat="41.61054437012647" lon="14.245423089311231"><ele>463.99999999999994</ele><time>2026-04-25T06:16:35Z</time></trkpt><trkpt lat="41.6104740720208" lon="14.245496403645918"><ele>464.0</ele><time>2026-04-25T06:16:38Z</time></trkpt><trkpt lat="41.61040329658454" lon="14.245567578329918"><ele>464.0</ele><time>2026-04-25T06:16:41Z</time></trkpt><trkpt lat="41.61034482968591" lon="14.245640801875892"><ele>464.0</ele><time>2026-04-25T06:16:44Z</time></trkpt><trkpt lat="41.61028007174646" lon="14.245726778732733"><ele>463.99999999999994</ele><time>2026-04-25T06:16:47Z</time></trkpt><trkpt lat="41.61021170670417" lon="14.24578840096757"><ele>464.0</ele><time>2026-04-25T06:16:50Z</time></trkpt><trkpt lat="41.610151265635835" lon="14.245856730636707"><ele>464.16666666666663</ele><time>2026-04-25T06:16:53Z</time></trkpt><trkpt lat="41.610075945060714" lon="14.24590542297337"><ele>464.3333333333333</ele><time>2026-04-25T06:16:56Z</time></trkpt><trkpt lat="41.609998488684234" lon="14.245975747183744"><ele>464.5</ele><time>2026-04-25T06:16:59Z</time></trkpt><trkpt lat="41.60991505398973" lon="14.24602971689711"><ele>464.66666666666663</ele><time>2026-04-25T06:17:02Z</time></trkpt><trkpt lat="41.60985555107054" lon="14.24608278823262"><ele>464.8333333333333</ele><time>2026-04-25T06:17:05Z</time></trkpt><trkpt lat="41.60978840537738" lon="14.246173627959228"><ele>465.0</ele><time>2026-04-25T06:17:08Z</time></trkpt><trkpt lat="41.60971332021029" lon="14.24622495709047"><ele>465.0</ele><time>2026-04-25T06:17:11Z</time></trkpt><trkpt lat="41.609663065725236" lon="14.246293093400514"><ele>465.0</ele><time>2026-04-25T06:17:13Z</time></trkpt><trkpt lat="41.60958668093508" lon="14.24636823759066"><ele>465.0</ele><time>2026-04-25T06:17:16Z</time></trkpt><trkpt lat="41.6095216576325" lon="14.246425241437088"><ele>465.0</ele><time>2026-04-25T06:17:19Z</time></trkpt><trkpt lat="41.609472815426535" lon="14.246488318210833"><ele>465.0</ele><time>2026-04-25T06:17:21Z</time></trkpt><trkpt lat="41.60941452773409" lon="14.246537592219969"><ele>465.0</ele><time>2026-04-25T06:17:23Z</time></trkpt><trkpt lat="41.60936284560151" lon="14.246611621242046"><ele>464.6666666666667</ele><time>2026-04-25T06:17:26Z</time></trkpt><trkpt lat="41.60930554915866" lon="14.246701284047997"><ele>464.33333333333337</ele><time>2026-04-25T06:17:29Z</time></trkpt><trkpt lat="41.60925743152806" lon="14.246769133047025"><ele>464.0</ele><time>2026-04-25T06:17:31Z</time></trkpt><trkpt lat="41.60919733426055" lon="14.246855380222028"><ele>463.6666666666667</ele><time>2026-04-25T06:17:34Z</time></trkpt><trkpt lat="41.60913817634684" lon="14.246932386476043"><ele>463.33333333333337</ele><time>2026-04-25T06:17:37Z</time></trkpt><trkpt lat="41.60907656490614" lon="14.247007548512073"><ele>463.0</ele><time>2026-04-25T06:17:40Z</time></trkpt><trkpt lat="41.60902947091796" lon="14.247063516403472"><ele>463.00000000000006</ele><time>2026-04-25T06:17:42Z</time></trkpt><trkpt lat="41.60896845279574" lon="14.2471460038036"><ele>463.0</ele><time>2026-04-25T06:17:45Z</time></trkpt><trkpt lat="41.60891705230372" lon="14.24722889519421"><ele>463.0</ele><time>2026-04-25T06:17:48Z</time></trkpt><trkpt lat="41.60887424748588" lon="14.247304412317156"><ele>463.0</ele><time>2026-04-25T06:17:50Z</time></trkpt><trkpt lat="41.60882819611532" lon="14.247403920779673"><ele>463.00000000000006</ele><time>2026-04-25T06:17:53Z</time></trkpt><trkpt lat="41.608781798798645" lon="14.247491111997316"><ele>463.0</ele><time>2026-04-25T06:17:56Z</time></trkpt><trkpt lat="41.60873756944455" lon="14.24755766159781"><ele>462.83333333333337</ele><time>2026-04-25T06:17:58Z</time></trkpt><trkpt lat="41.60868980628913" lon="14.247658327081675"><ele>462.6666666666667</ele><time>2026-04-25T06:18:01Z</time></trkpt><trkpt lat="41.60863299301413" lon="14.247734965656793"><ele>462.5</ele><time>2026-04-25T06:18:04Z</time></trkpt><trkpt lat="41.60857983408332" lon="14.247825213099462"><ele>462.33333333333337</ele><time>2026-04-25T06:18:07Z</time></trkpt><trkpt lat="41.60852945134964" lon="14.247909926795286"><ele>462.1666666666667</ele><time>2026-04-25T06:18:10Z</time></trkpt><trkpt lat="41.60846051595123" lon="14.247955740773813"><ele>462.0</ele><time>2026-04-25T06:18:13Z</time></trkpt><trkpt lat="41.60838992584523" lon="14.247921688807187"><ele>462.0</ele><time>2026-04-25T06:18:16Z</time></trkpt><trkpt lat="41.60831469706081" lon="14.247892267662449"><ele>462.0</ele><time>2026-04-25T06:18:19Z</time></trkpt><trkpt lat="41.60824810296364" lon="14.247816570323383"><ele>462.0</ele><time>2026-04-25T06:18:22Z</time></trkpt><trkpt lat="41.60817949759458" lon="14.247770009915474"><ele>462.0</ele><time>2026-04-25T06:18:25Z</time></trkpt><trkpt lat="41.608128013889335" lon="14.247716129940427"><ele>462.0</ele><time>2026-04-25T06:18:27Z</time></trkpt><trkpt lat="41.608054231080395" lon="14.247645395074713"><ele>462.0</ele><time>2026-04-25T06:18:30Z</time></trkpt><trkpt lat="41.60797221794803" lon="14.247609135207993"><ele>462.0</ele><time>2026-04-25T06:18:33Z</time></trkpt><trkpt lat="41.607896041688875" lon="14.247588428278917"><ele>462.0</ele><time>2026-04-25T06:18:36Z</time></trkpt><trkpt lat="41.60782112672625" lon="14.247528171400642"><ele>462.0</ele><time>2026-04-25T06:18:39Z</time></trkpt><trkpt lat="41.607750689865775" lon="14.247455222792563"><ele>462.0</ele><time>2026-04-25T06:18:42Z</time></trkpt><trkpt lat="41.60769809614534" lon="14.247402900272851"><ele>462.0</ele><time>2026-04-25T06:18:44Z</time></trkpt><trkpt lat="41.60762877180461" lon="14.247331457645686"><ele>462.0</ele><time>2026-04-25T06:18:47Z</time></trkpt><trkpt lat="41.60756396046104" lon="14.247252051696764"><ele>462.0</ele><time>2026-04-25T06:18:50Z</time></trkpt><trkpt lat="41.60750506989602" lon="14.247177492418114"><ele>462.0</ele><time>2026-04-25T06:18:53Z</time></trkpt><trkpt lat="41.60743762506995" lon="14.247095236741414"><ele>462.0</ele><time>2026-04-25T06:18:56Z</time></trkpt><trkpt lat="41.60737093681194" lon="14.247034386507286"><ele>462.0</ele><time>2026-04-25T06:18:59Z</time></trkpt><trkpt lat="41.607305066014064" lon="14.247006939863821"><ele>462.0</ele><time>2026-04-25T06:19:02Z</time></trkpt><trkpt lat="41.607232807387895" lon="14.246958056758789"><ele>462.0</ele><time>2026-04-25T06:19:05Z</time></trkpt><trkpt lat="41.607168077659324" lon="14.246943643092973"><ele>462.0</ele><time>2026-04-25T06:19:07Z</time></trkpt><trkpt lat="41.60708964978367" lon="14.246909500822355"><ele>462.0</ele><time>2026-04-25T06:19:10Z</time></trkpt><trkpt lat="41.60700971590482" lon="14.24688903455404"><ele>462.0</ele><time>2026-04-25T06:19:13Z</time></trkpt><trkpt lat="41.6069242544975" lon="14.246850704133161"><ele>462.0</ele><time>2026-04-25T06:19:16Z</time></trkpt><trkpt lat="41.606863223308835" lon="14.246827219117211"><ele>462.0</ele><time>2026-04-25T06:19:18Z</time></trkpt><trkpt lat="41.60680008021099" lon="14.246761988948807"><ele>462.0</ele><time>2026-04-25T06:19:21Z</time></trkpt><trkpt lat="41.60673821395112" lon="14.246718343092878"><ele>462.0</ele><time>2026-04-25T06:19:23Z</time></trkpt><trkpt lat="41.606693367998105" lon="14.246627513006445"><ele>462.0</ele><time>2026-04-25T06:19:26Z</time></trkpt><trkpt lat="41.606628321416004" lon="14.246553581524944"><ele>462.0</ele><time>2026-04-25T06:19:29Z</time></trkpt><trkpt lat="41.6065906532563" lon="14.246476934389127"><ele>462.0</ele><time>2026-04-25T06:19:31Z</time></trkpt><trkpt lat="41.60654260178859" lon="14.246415800408784"><ele>462.0</ele><time>2026-04-25T06:19:34Z</time></trkpt><trkpt lat="41.6064900829493" lon="14.246328448747544"><ele>462.0</ele><time>2026-04-25T06:19:37Z</time></trkpt><trkpt lat="41.60643384036965" lon="14.246260257886515"><ele>462.1666666666667</ele><time>2026-04-25T06:19:40Z</time></trkpt><trkpt lat="41.60638707009089" lon="14.246156375189562"><ele>462.33333333333337</ele><time>2026-04-25T06:19:43Z</time></trkpt><trkpt lat="41.60634299056258" lon="14.246078272674108"><ele>462.5</ele><time>2026-04-25T06:19:46Z</time></trkpt><trkpt lat="41.60629030658529" lon="14.245990645162275"><ele>462.6666666666667</ele><time>2026-04-25T06:19:49Z</time></trkpt><trkpt lat="41.606229556607225" lon="14.24590629634789"><ele>462.83333333333337</ele><time>2026-04-25T06:19:52Z</time></trkpt><trkpt lat="41.606167530724946" lon="14.245827169663379"><ele>463.0</ele><time>2026-04-25T06:19:55Z</time></trkpt><trkpt lat="41.60612524402736" lon="14.245734647464495"><ele>463.00000000000006</ele><time>2026-04-25T06:19:58Z</time></trkpt><trkpt lat="41.60606667952328" lon="14.245660236830517"><ele>463.0</ele><time>2026-04-25T06:20:01Z</time></trkpt><trkpt lat="41.60604351839035" lon="14.245575556700208"><ele>463.0</ele><time>2026-04-25T06:20:03Z</time></trkpt><trkpt lat="41.605988150957074" lon="14.245533463393773"><ele>463.0</ele><time>2026-04-25T06:20:05Z</time></trkpt><trkpt lat="41.60592839925004" lon="14.245459782406105"><ele>463.00000000000006</ele><time>2026-04-25T06:20:08Z</time></trkpt><trkpt lat="41.60586488388075" lon="14.24537976138555"><ele>463.0</ele><time>2026-04-25T06:20:11Z</time></trkpt><trkpt lat="41.60578849540278" lon="14.245314526391404"><ele>462.83333333333337</ele><time>2026-04-25T06:20:14Z</time></trkpt><trkpt lat="41.605721161107454" lon="14.245222951684731"><ele>462.6666666666667</ele><time>2026-04-25T06:20:17Z</time></trkpt><trkpt lat="41.60564784001531" lon="14.245168728256635"><ele>462.5</ele><time>2026-04-25T06:20:20Z</time></trkpt><trkpt lat="41.60559179037987" lon="14.245087823253447"><ele>462.33333333333337</ele><time>2026-04-25T06:20:23Z</time></trkpt><trkpt lat="41.60555785992899" lon="14.244994481935882"><ele>462.1666666666667</ele><time>2026-04-25T06:20:26Z</time></trkpt><trkpt lat="41.60551790773608" lon="14.244898067353084"><ele>462.0</ele><time>2026-04-25T06:20:29Z</time></trkpt><trkpt lat="41.60548369992224" lon="14.2448231305581"><ele>461.8333333333333</ele><time>2026-04-25T06:20:31Z</time></trkpt><trkpt lat="41.605418895943835" lon="14.244740946171863"><ele>461.66666666666663</ele><time>2026-04-25T06:20:34Z</time></trkpt><trkpt lat="41.60540563287984" lon="14.244648750449317"><ele>461.5</ele><time>2026-04-25T06:20:36Z</time></trkpt><trkpt lat="41.60535051520346" lon="14.244578917853016"><ele>461.3333333333333</ele><time>2026-04-25T06:20:39Z</time></trkpt><trkpt lat="41.60529807796189" lon="14.244494891351337"><ele>461.16666666666663</ele><time>2026-04-25T06:20:42Z</time></trkpt><trkpt lat="41.605238875968375" lon="14.244397190183669"><ele>461.0</ele><time>2026-04-25T06:20:45Z</time></trkpt><trkpt lat="41.60521405298971" lon="14.244316523297263"><ele>460.99999999999994</ele><time>2026-04-25T06:20:47Z</time></trkpt><trkpt lat="41.60520231853525" lon="14.244232829024021"><ele>461.0</ele><time>2026-04-25T06:20:49Z</time></trkpt><trkpt lat="41.6051671105424" lon="14.24412718889739"><ele>461.0</ele><time>2026-04-25T06:20:52Z</time></trkpt><trkpt lat="41.60512030515641" lon="14.244028750812083"><ele>461.0</ele><time>2026-04-25T06:20:55Z</time></trkpt><trkpt lat="41.6050524094029" lon="14.243958151727279"><ele>460.99999999999994</ele><time>2026-04-25T06:20:58Z</time></trkpt><trkpt lat="41.60497087891404" lon="14.243930035186798"><ele>461.0</ele><time>2026-04-25T06:21:01Z</time></trkpt><trkpt lat="41.60489195113005" lon="14.24388908803204"><ele>460.99999999999994</ele><time>2026-04-25T06:21:04Z</time></trkpt><trkpt lat="41.60482127050522" lon="14.243824420229648"><ele>461.0</ele><time>2026-04-25T06:21:07Z</time></trkpt><trkpt lat="41.604760351825206" lon="14.243746575495267"><ele>461.0</ele><time>2026-04-25T06:21:10Z</time></trkpt><trkpt lat="41.60469486175974" lon="14.243653056864346"><ele>461.0</ele><time>2026-04-25T06:21:13Z</time></trkpt><trkpt lat="41.60465680871416" lon="14.243537440221123"><ele>460.99999999999994</ele><time>2026-04-25T06:21:16Z</time></trkpt><trkpt lat="41.60460294578505" lon="14.243451252206183"><ele>461.0</ele><time>2026-04-25T06:21:19Z</time></trkpt><trkpt lat="41.6045573561635" lon="14.243351340686804"><ele>460.99999999999994</ele><time>2026-04-25T06:21:22Z</time></trkpt><trkpt lat="41.604508608918195" lon="14.243255143558683"><ele>461.0</ele><time>2026-04-25T06:21:25Z</time></trkpt><trkpt lat="41.60447015517741" lon="14.243176472782869"><ele>461.0</ele><time>2026-04-25T06:21:27Z</time></trkpt><trkpt lat="41.60439995977464" lon="14.243120767142726"><ele>461.0</ele><time>2026-04-25T06:21:30Z</time></trkpt><trkpt lat="41.604346404003465" lon="14.24307468531947"><ele>460.99999999999994</ele><time>2026-04-25T06:21:32Z</time></trkpt><trkpt lat="41.60428730797836" lon="14.242995953206703"><ele>461.0</ele><time>2026-04-25T06:21:35Z</time></trkpt><trkpt lat="41.60423903379359" lon="14.242909797441468"><ele>461.49999999999994</ele><time>2026-04-25T06:21:38Z</time></trkpt><trkpt lat="41.60419704274103" lon="14.242845857132366"><ele>462.0</ele><time>2026-04-25T06:21:40Z</time></trkpt><trkpt lat="41.6041570851438" lon="14.24277710209568"><ele>462.5</ele><time>2026-04-25T06:21:42Z</time></trkpt><trkpt lat="41.60409423212749" lon="14.242697848020294"><ele>463.0</ele><time>2026-04-25T06:21:45Z</time></trkpt><trkpt lat="41.60403492748928" lon="14.242620086419967"><ele>463.49999999999994</ele><time>2026-04-25T06:21:48Z</time></trkpt><trkpt lat="41.603978233592336" lon="14.242537784066316"><ele>464.0</ele><time>2026-04-25T06:21:51Z</time></trkpt><trkpt lat="41.60391960261942" lon="14.242444933440044"><ele>463.99999999999994</ele><time>2026-04-25T06:21:54Z</time></trkpt><trkpt lat="41.60387334571625" lon="14.242362374118018"><ele>464.0</ele><time>2026-04-25T06:21:57Z</time></trkpt><trkpt lat="41.60381465516352" lon="14.24228212302907"><ele>464.0</ele><time>2026-04-25T06:22:00Z</time></trkpt><trkpt lat="41.60374076048749" lon="14.242237069694479"><ele>464.0</ele><time>2026-04-25T06:22:03Z</time></trkpt><trkpt lat="41.603667631718665" lon="14.242285244269953"><ele>463.99999999999994</ele><time>2026-04-25T06:22:06Z</time></trkpt><trkpt lat="41.603605273949725" lon="14.24235879850712"><ele>464.0</ele><time>2026-04-25T06:22:09Z</time></trkpt><trkpt lat="41.603537796323614" lon="14.242414083408715"><ele>463.66666666666663</ele><time>2026-04-25T06:22:12Z</time></trkpt><trkpt lat="41.60346222516481" lon="14.242440802964504"><ele>463.3333333333333</ele><time>2026-04-25T06:22:15Z</time></trkpt><trkpt lat="41.603404998636975" lon="14.242499251974378"><ele>463.0</ele><time>2026-04-25T06:22:17Z</time></trkpt><trkpt lat="41.60332641164988" lon="14.242523973272307"><ele>462.66666666666663</ele><time>2026-04-25T06:22:20Z</time></trkpt><trkpt lat="41.60323794077573" lon="14.242539913226874"><ele>462.3333333333333</ele><time>2026-04-25T06:22:23Z</time></trkpt><trkpt lat="41.60314085485208" lon="14.24254048602042"><ele>462.0</ele><time>2026-04-25T06:22:26Z</time></trkpt><trkpt lat="41.60307116843402" lon="14.24255934417987"><ele>462.0</ele><time>2026-04-25T06:22:29Z</time></trkpt><trkpt lat="41.60302134651261" lon="14.242641560272164"><ele>462.0</ele><time>2026-04-25T06:22:32Z</time></trkpt><trkpt lat="41.602984205229504" lon="14.242770192107331"><ele>462.0</ele><time>2026-04-25T06:22:35Z</time></trkpt><trkpt lat="41.602991116743226" lon="14.242897084645461"><ele>462.0</ele><time>2026-04-25T06:22:38Z</time></trkpt><trkpt lat="41.60301197179434" lon="14.242978992311771"><ele>462.0</ele><time>2026-04-25T06:22:40Z</time></trkpt><trkpt lat="41.602995223418574" lon="14.243097972498703"><ele>462.0</ele><time>2026-04-25T06:22:43Z</time></trkpt><trkpt lat="41.6029883017949" lon="14.243182752643738"><ele>461.8</ele><time>2026-04-25T06:22:45Z</time></trkpt><trkpt lat="41.60298466858452" lon="14.24331498753924"><ele>461.6</ele><time>2026-04-25T06:22:48Z</time></trkpt><trkpt lat="41.60296801336525" lon="14.243428276709762"><ele>461.40000000000003</ele><time>2026-04-25T06:22:51Z</time></trkpt><trkpt lat="41.60297160491144" lon="14.243544317861966"><ele>461.20000000000005</ele><time>2026-04-25T06:22:54Z</time></trkpt><trkpt lat="41.60297416230028" lon="14.243661394281784"><ele>461.0</ele><time>2026-04-25T06:22:57Z</time></trkpt><trkpt lat="41.60296616944131" lon="14.243787924357775"><ele>460.99999999999994</ele><time>2026-04-25T06:23:00Z</time></trkpt><trkpt lat="41.60294910816552" lon="14.243884020963286"><ele>461.0</ele><time>2026-04-25T06:23:03Z</time></trkpt><trkpt lat="41.60294802227242" lon="14.244010421092367"><ele>461.0</ele><time>2026-04-25T06:23:06Z</time></trkpt><trkpt lat="41.602935346015485" lon="14.244093625299973"><ele>461.0</ele><time>2026-04-25T06:23:08Z</time></trkpt><trkpt lat="41.60293630121585" lon="14.244182506628507"><ele>460.99999999999994</ele><time>2026-04-25T06:23:10Z</time></trkpt><trkpt lat="41.602928737376665" lon="14.244307361862964"><ele>461.0</ele><time>2026-04-25T06:23:13Z</time></trkpt><trkpt lat="41.60292674644243" lon="14.244422593071002"><ele>460.8333333333333</ele><time>2026-04-25T06:23:16Z</time></trkpt><trkpt lat="41.60293562409212" lon="14.244514826619955"><ele>460.66666666666663</ele><time>2026-04-25T06:23:18Z</time></trkpt><trkpt lat="41.602927970206636" lon="14.244621424797549"><ele>460.5</ele><time>2026-04-25T06:23:21Z</time></trkpt><trkpt lat="41.60292181789582" lon="14.244743752216335"><ele>460.33333333333337</ele><time>2026-04-25T06:23:24Z</time></trkpt><trkpt lat="41.60292869942491" lon="14.244861770983107"><ele>460.1666666666667</ele><time>2026-04-25T06:23:27Z</time></trkpt><trkpt lat="41.6029506779539" lon="14.244966611192403"><ele>460.0</ele><time>2026-04-25T06:23:30Z</time></trkpt><trkpt lat="41.602976875408864" lon="14.245086063681185"><ele>460.00000000000006</ele><time>2026-04-25T06:23:33Z</time></trkpt><trkpt lat="41.60300708579831" lon="14.24519728806975"><ele>460.0</ele><time>2026-04-25T06:23:36Z</time></trkpt><trkpt lat="41.60306046720838" lon="14.24528137490497"><ele>460.0</ele><time>2026-04-25T06:23:39Z</time></trkpt><trkpt lat="41.60312459697358" lon="14.245348544992819"><ele>460.0</ele><time>2026-04-25T06:23:42Z</time></trkpt><trkpt lat="41.603180737636265" lon="14.245441275892025"><ele>460.00000000000006</ele><time>2026-04-25T06:23:45Z</time></trkpt><trkpt lat="41.603224969486426" lon="14.245551756502906"><ele>460.0</ele><time>2026-04-25T06:23:48Z</time></trkpt><trkpt lat="41.60327168647302" lon="14.24563156788149"><ele>459.83333333333337</ele><time>2026-04-25T06:23:51Z</time></trkpt><trkpt lat="41.60331648219152" lon="14.245700787315661"><ele>459.6666666666667</ele><time>2026-04-25T06:23:53Z</time></trkpt><trkpt lat="41.60337615468486" lon="14.245782566584172"><ele>459.5</ele><time>2026-04-25T06:23:56Z</time></trkpt><trkpt lat="41.60343791602284" lon="14.245847551635247"><ele>459.33333333333337</ele><time>2026-04-25T06:23:59Z</time></trkpt><trkpt lat="41.603473922187774" lon="14.245922113763362"><ele>459.1666666666667</ele><time>2026-04-25T06:24:01Z</time></trkpt><trkpt lat="41.60352978028889" lon="14.246006004330606"><ele>459.0</ele><time>2026-04-25T06:24:04Z</time></trkpt><trkpt lat="41.60358493561911" lon="14.24609330033451"><ele>459.0</ele><time>2026-04-25T06:24:07Z</time></trkpt><trkpt lat="41.60364347355993" lon="14.246173564682083"><ele>459.0</ele><time>2026-04-25T06:24:10Z</time></trkpt><trkpt lat="41.60370680406537" lon="14.246254429667005"><ele>459.0</ele><time>2026-04-25T06:24:13Z</time></trkpt><trkpt lat="41.60377212600533" lon="14.246330634121687"><ele>459.0</ele><time>2026-04-25T06:24:16Z</time></trkpt><trkpt lat="41.60382734877912" lon="14.246401936160025"><ele>459.0</ele><time>2026-04-25T06:24:19Z</time></trkpt><trkpt lat="41.6038866286594" lon="14.246481937428106"><ele>459.0</ele><time>2026-04-25T06:24:22Z</time></trkpt><trkpt lat="41.603934269374236" lon="14.24656511046085"><ele>459.0</ele><time>2026-04-25T06:24:25Z</time></trkpt><trkpt lat="41.60399819680651" lon="14.246617554560256"><ele>459.0</ele><time>2026-04-25T06:24:28Z</time></trkpt><trkpt lat="41.604015086332865" lon="14.24652705561665"><ele>459.0</ele><time>2026-04-25T06:24:31Z</time></trkpt><trkpt lat="41.603952434325926" lon="14.246485829634604"><ele>459.0</ele><time>2026-04-25T06:24:33Z</time></trkpt><trkpt lat="41.60387974604837" lon="14.246416968667557"><ele>459.0</ele><time>2026-04-25T06:24:36Z</time></trkpt><trkpt lat="41.603840746380676" lon="14.24634913793083"><ele>459.0</ele><time>2026-04-25T06:24:38Z</time></trkpt><trkpt lat="41.60378825015616" lon="14.24629739277322"><ele>459.0</ele><time>2026-04-25T06:24:40Z</time></trkpt><trkpt lat="41.60372456699707" lon="14.246219617603362"><ele>459.0</ele><time>2026-04-25T06:24:43Z</time></trkpt><trkpt lat="41.60366534226337" lon="14.24613480293904"><ele>459.0</ele><time>2026-04-25T06:24:46Z</time></trkpt><trkpt lat="41.60361108461365" lon="14.24605245966505"><ele>459.0</ele><time>2026-04-25T06:24:49Z</time></trkpt><trkpt lat="41.603559775530044" lon="14.24600060387931"><ele>459.0</ele><time>2026-04-25T06:24:51Z</time></trkpt><trkpt lat="41.6034967344883" lon="14.245938380047694"><ele>459.0</ele><time>2026-04-25T06:24:54Z</time></trkpt><trkpt lat="41.60342578450754" lon="14.245889337478555"><ele>459.0</ele><time>2026-04-25T06:24:57Z</time></trkpt><trkpt lat="41.60337835988037" lon="14.245819983505912"><ele>459.0</ele><time>2026-04-25T06:24:59Z</time></trkpt><trkpt lat="41.60331633802172" lon="14.24574678748003"><ele>459.0</ele><time>2026-04-25T06:25:02Z</time></trkpt><trkpt lat="41.60326229013136" lon="14.245663919751022"><ele>459.0</ele><time>2026-04-25T06:25:05Z</time></trkpt><trkpt lat="41.6032142452093" lon="14.2455776556544"><ele>459.0</ele><time>2026-04-25T06:25:08Z</time></trkpt><trkpt lat="41.60317932764668" lon="14.245503471282033"><ele>459.0</ele><time>2026-04-25T06:25:10Z</time></trkpt><trkpt lat="41.60312705136446" lon="14.245427149300173"><ele>459.0</ele><time>2026-04-25T06:25:13Z</time></trkpt><trkpt lat="41.60307972139282" lon="14.2453364637673"><ele>459.14285714285717</ele><time>2026-04-25T06:25:16Z</time></trkpt><trkpt lat="41.603029156200876" lon="14.245273975071118"><ele>459.2857142857142</ele><time>2026-04-25T06:25:19Z</time></trkpt><trkpt lat="41.60297549183062" lon="14.245193225405085"><ele>459.4285714285714</ele><time>2026-04-25T06:25:22Z</time></trkpt><trkpt lat="41.60295591429183" lon="14.24509840947648"><ele>459.57142857142856</ele><time>2026-04-25T06:25:25Z</time></trkpt><trkpt lat="41.60299955906571" lon="14.245186052346984"><ele>459.71428571428567</ele><time>2026-04-25T06:25:37Z</time></trkpt><trkpt lat="41.60301741671762" lon="14.245266797462342"><ele>459.8571428571428</ele><time>2026-04-25T06:25:44Z</time></trkpt><trkpt lat="41.603066219012206" lon="14.24533578931851"><ele>459.99999999999994</ele><time>2026-04-25T06:25:51Z</time></trkpt><trkpt lat="41.60311904124048" lon="14.245384369461833"><ele>460.0</ele><time>2026-04-25T06:25:56Z</time></trkpt><trkpt lat="41.603160656871836" lon="14.245448491437214"><ele>460.0</ele><time>2026-04-25T06:26:02Z</time></trkpt><trkpt lat="41.603191080775275" lon="14.24552303825818"><ele>460.0</ele><time>2026-04-25T06:26:05Z</time></trkpt></trkseg></trk></gpx>